[[{"header":{"parameterUnit":"m.s-1","parameterCategory":1,"la1":31.0,"la2":29.5877,"lo1":-88.7671,"lo2":-86.6584,"dy":0.0162,"dx":0.0185,"nx":115,"ny":88,"refTime":"2024-05-22T00:00:00:Z","depth":0,"parameterNumber":2,"parameterNumberName":"U-component_of_WINDS"},"data":[0.0,0.0,0.0,0.0,0.0,0.0,0.0,0.0,0.0,0.0,0.0,0.0,0.0,0.0,0.0,0.0,0.0,0.0,0.0,0.0,0.0,0.0,0.0,0.0,0.0,0.0,0.0,0.0,0.0,0.0,0.0,0.0,0.0,0.0,0.0,0.0,0.0,0.0,0.0,0.0,0.0,0.0,0.0,0.0,0.0,0.0,0.0,0.0,0.0,0.0,0.0,0.0,0.0,0.0,0.0,0.0,0.0,0.0,0.0,0.0,0.0,0.0,0.0,0.0,0.0,0.0,0.0,0.0,0.0,0.0,0.0,0.0,0.0,0.0,0.0,0.0,0.0,0.0,0.0,0.0,0.0,0.0,0.0,0.0,0.0,0.0,0.0,0.0,0.0,0.0,0.0,0.0,0.0,0.0,0.0,0.0,0.0,0.0,0.0,0.0,0.0,0.0,0.0,0.0,0.0,0.0,0.0,0.0,0.0,0.0,0.0,0.0,0.0,0.0,0.0,0.0,0.0,0.0,0.0,0.0,0.0,0.0,0.0,0.0,0.0,0.0,0.0,0.0,0.0,0.0,0.0,0.0,0.0,0.0,0.0,0.0,0.0,0.0,0.0,0.0,0.0,0.0,0.0,0.0,0.0,0.0,0.0,0.0,0.0,0.0,0.0,0.0,0.0,0.0,0.0,0.0,0.0,0.0,0.0,0.0,0.0,0.0,0.0,0.0,0.0,0.0,0.0,0.0,0.0,0.0,0.0,0.0,0.0,0.0,0.0,0.0,0.0,0.0,0.0,0.0,0.0,0.0,0.0,0.0,0.0,0.0,0.0,0.0,0.0,0.0,0.0,0.0,0.0,0.0,0.0,0.0,0.0,0.0,0.0,0.0,0.0,0.0,0.0,0.0,0.0,0.0,0.0,0.0,0.0,0.0,0.0,0.0,0.0,0.0,0.0,0.0,0.0,0.0,0.0,0.0,0.0,0.0,0.0,0.0,0.0,0.0,0.0,0.0,0.0,0.0,0.0,0.0,0.0,0.0,0.0,0.0,0.0,0.0,0.0,0.0,0.0,0.0,0.0,0.0,0.0,0.0,0.0,0.0,0.0,0.0,0.0,0.0,0.0,0.0,0.0,0.0,0.0,0.0,0.0,0.0,0.0,0.0,0.0,0.0,0.0,0.0,0.0,0.0,0.0,0.0,0.0,0.0,0.0,0.0,0.0,0.0,0.0,0.0,0.0,0.0,0.0,0.0,0.0,0.0,0.0,0.0,0.0,0.0,0.0,0.0,0.0,0.0,0.0,0.0,0.0,0.0,0.0,0.0,0.0,0.0,0.0,0.0,0.0,0.0,0.0,0.0,0.0,0.0,0.0,0.0,0.0,0.0,0.0,0.0,0.0,0.0,0.0,0.0,0.0,0.0,0.0,0.0,0.0,0.0,0.0,0.0,0.0,0.0,0.0,0.0,0.0,0.0,0.0,0.0,0.0,0.0,0.0,0.0,0.0,0.0,0.0,0.0,0.0,0.0,0.0,0.0,0.0,0.0,0.0,0.0,0.0,0.0,0.0,0.0,0.0,0.0,0.0,0.0,0.0,0.0,0.0,0.0,0.0,0.0,0.0,0.0,0.0,0.0,0.0,0.0,0.0,0.0,0.0,0.0,0.0,0.0,0.0,0.0,0.0,0.0,0.0,0.0,0.0,0.0,0.0,0.0,0.0,0.0,0.0,0.0,0.0,0.0,0.0,0.0,0.0,0.0,0.0,0.0,0.0,0.0,0.0,0.0,0.0,0.0,0.0,0.0,0.0,0.0,0.0,0.0,0.0,0.0,0.0,0.0,0.0,0.0,0.0,0.0,0.0,0.0,0.0,0.0,0.0,0.0,0.0,0.0,0.0,0.0,0.0,0.0,0.0,0.0,0.0,0.0,0.0,0.0,0.0,0.0,0.0,0.0,0.0,0.0,0.0,0.0,0.0,0.0,0.0,0.0,0.0,0.0,0.0,0.0,0.0,0.0,0.0,0.0,0.0,0.0,0.0,0.0,0.0,0.0,0.0,0.0,0.0,0.0,0.0,0.0,0.0,0.0,0.0,0.0,0.0,0.0,0.0,0.0,0.0,0.0,0.0,0.0,0.0,0.0,0.0,0.0,0.0,0.0,0.0,0.0,0.0,0.0,0.0,0.0,0.0,0.0,0.0,0.0,0.0,0.0,0.0,0.0,0.0,0.0,0.0,0.0,0.0,0.0,0.0,0.0,0.0,0.0,0.0,0.0,0.0,0.0,0.0,0.0,0.0,0.0,0.0,0.0,0.0,0.0,0.0,0.0,0.0,0.0,0.0,0.0,0.0,0.0,0.0,0.0,0.0,0.0,0.0,0.0,0.0,0.0,0.0,0.0,0.0,0.0,0.0,0.0,0.0,0.0,0.0,0.0,0.0,0.0,0.0,0.0,0.0,0.0,0.0,0.0,0.0,0.0,0.0,0.0,0.0,0.0,0.0,0.0,0.0,0.0,0.0,0.0,0.0,0.0,0.0,0.0,0.0,0.0,0.0,0.0,0.0,0.0,0.0,0.0,0.0,0.0,0.0,0.0,0.0,0.0,0.0,0.0,0.0,0.0,0.0,0.0,0.0,0.0,0.0,0.0,0.0,0.0,0.0,0.0,0.0,0.0,0.0,0.0,0.0,0.0,0.0,0.0,0.0,0.0,0.0,0.0,0.0,0.0,0.0,0.0,0.0,0.0,0.0,0.0,0.0,0.0,0.0,0.0,0.0,0.0,0.0,0.0,0.0,0.0,0.0,0.0,0.0,0.0,0.0,0.0,0.0,0.0,0.0,0.0,0.0,0.0,0.0,0.0,0.0,0.0,0.0,0.0,0.0,0.0,0.0,0.0,0.0,0.0,0.0,0.0,0.0,0.0,0.0,0.0,0.0,0.0,0.0,0.0,0.0,0.0,0.0,0.0,0.0,0.0,0.0,0.0,0.0,0.0,0.0,0.0,0.0,0.0,0.0,0.0,0.0,0.0,0.0,0.0,0.0,0.0,0.0,0.0,0.0,0.0,0.0,0.0,0.0,0.0,0.0,0.0,0.0,0.0,0.0,0.0,0.0,0.0,0.0,0.0,0.0,0.0,0.0,0.0,0.0,0.0,0.0,0.0,0.0,0.0,0.0,0.0,0.0,0.0,0.0,0.0,0.0,0.0,0.0,0.0,0.0,0.0,0.0,0.0,0.0,0.0,0.0,0.0,0.0,0.0,0.0,0.0,0.0,0.0,0.0,0.0,0.0,0.0,0.0,0.0,0.0,0.0,0.0,0.0,0.0,0.0,0.0,0.0,0.0,0.0,0.0,0.0,0.0,0.0,0.0,0.0,0.0,0.0,0.0,0.0,0.0,0.0,0.0,0.0,0.0,0.0,0.0,0.0,0.0,0.0,0.0,0.0,0.0,0.0,0.0,0.0,0.0,0.0,0.0,0.0,0.0,0.0,0.0,0.0,0.0,0.0,0.0,0.0,0.0,0.0,0.0,0.0,0.0,0.0,0.0,0.0,0.0,0.0,0.0,0.0,0.0,0.0,0.0,0.0,0.0,0.0,0.0,0.0,0.0,0.0,0.0,0.0,0.0,0.0,0.0,0.0,0.0,0.0,0.0,0.0,0.0,0.0,0.0,0.0,0.0,0.0,0.0,0.0,0.0,0.0,0.0,0.0,0.0,0.0,0.0,0.0,0.0,0.0,0.0,0.0,0.0,0.0,0.0,0.0,0.0,0.0,0.0,0.0,0.0,0.0,0.0,0.0,0.0,0.0,0.0,0.0,0.0,0.0,0.0,0.0,0.0,0.0,0.0,0.0,0.0,0.0,0.0,0.0,0.0,0.0,0.0,0.0,0.0,0.0,0.0,0.0,0.0,0.0,0.0,0.0,0.0,0.0,0.0,0.0,0.0,0.0,0.0,0.0,0.0,0.0,0.0,0.0,0.0,0.0,0.0,0.0,0.0,0.0,0.0,0.0,0.0,0.0,0.0,0.0,0.0,0.0,0.0,0.0,0.0,0.0,0.0,0.0,0.0,0.0,0.0,0.0,0.0,0.0,0.0,0.0,0.0,0.0,0.0,0.0,0.0,0.0,0.0,0.0,0.0,0.0,0.0,0.0,0.0,0.0,0.0,0.0,0.0,0.0,0.0,0.0,0.0,0.0,0.0,0.0,0.0,0.0,0.0,0.0,0.0,0.0,0.0,0.0,0.0,0.0,0.0,0.0,0.0,0.0,0.0,0.0,0.0,0.0,-0.8367,0.0,0.0,0.0,0.0,0.0,0.0,0.0,0.0,0.0,0.0,0.0,0.0,0.0,0.0,0.0,0.0,0.0,0.0,0.0,0.0,0.0,0.0,0.0,0.0,0.0,0.0,0.0,0.0,0.0,0.0,0.0,0.0,0.0,0.0,0.0,0.0,0.0,0.0,0.0,0.0,0.0,0.0,0.0,0.0,0.0,0.0,0.0,0.0,0.0,0.0,0.0,0.0,0.0,0.0,0.0,0.0,0.0,0.0,0.0,0.0,0.0,0.0,0.0,0.0,0.0,0.0,0.0,0.0,0.0,0.0,0.0,0.0,0.0,0.0,0.0,0.0,0.0,0.0,0.0,0.0,0.0,0.0,0.0,0.0,0.0,0.0,0.0,0.0,0.0,0.0,0.0,0.0,0.0,0.0,0.0,0.0,0.0,0.0,0.0,0.0,0.0,0.0,0.0,0.0,0.0,0.0,0.0,0.0,0.0,0.0,-0.6673,-0.6883,-0.8227,-0.9016,-0.9218,0.0,0.0,0.0,0.0,0.0,0.0,0.0,0.0,0.0,0.0,0.0,0.0,0.0,0.0,0.0,0.0,0.0,0.0,0.0,0.0,0.0,0.0,0.0,0.0,0.0,0.0,0.0,0.0,0.0,0.0,0.0,0.0,0.0,0.0,0.0,0.0,0.0,0.0,0.0,0.0,0.0,0.0,0.0,0.0,0.0,0.0,0.0,0.0,0.0,0.0,0.0,0.0,0.0,0.0,0.0,0.0,0.0,0.0,0.0,0.0,0.0,0.0,0.0,0.0,0.0,0.0,0.0,0.0,0.0,0.0,0.0,0.0,0.0,0.0,0.0,0.0,0.0,0.0,0.0,0.0,0.0,0.0,0.0,0.0,0.0,0.0,0.0,0.0,0.0,0.0,0.0,0.0,0.0,0.0,0.0,0.0,0.0,0.0,0.0,0.0,0.0,0.0,0.0,0.0,0.0,0.0,0.0,0.0,0.0,0.0,0.0,0.0,-0.9435,-1.0212,-1.0567,0.0,0.0,0.0,0.0,0.0,0.0,0.0,0.0,0.0,0.0,0.0,0.0,0.0,0.0,0.0,0.0,0.0,0.0,0.0,0.0,0.0,0.0,0.0,0.0,0.0,0.0,0.0,0.0,0.0,0.0,0.0,0.0,0.0,0.0,0.0,0.0,0.0,0.0,0.0,0.0,0.0,0.0,0.0,0.0,0.0,0.0,0.0,0.0,0.0,0.0,0.0,0.0,0.0,0.0,0.0,0.0,0.0,0.0,0.0,0.0,0.0,0.0,0.0,0.0,0.0,0.0,0.0,0.0,0.0,0.0,0.0,0.0,0.0,0.0,0.0,0.0,0.0,0.0,0.0,0.0,0.0,0.0,0.0,0.0,0.0,0.0,0.0,0.0,0.0,0.0,0.0,0.0,0.0,0.0,0.0,0.0,0.0,0.0,0.0,0.0,0.0,0.0,0.0,0.0,0.0,0.0,0.0,0.0,0.0,0.0,-0.8019,-1.1359,-1.2201,0.0,-1.3078,0.0,0.0,0.0,0.0,0.0,0.0,0.0,0.0,0.0,0.0,0.0,0.0,0.0,0.0,0.0,0.0,0.0,0.0,0.0,0.0,0.0,0.0,0.0,0.0,0.0,0.0,0.0,0.0,0.0,0.0,0.0,0.0,0.0,0.0,0.0,0.0,0.0,0.0,0.0,0.0,0.0,0.0,0.0,0.0,0.0,0.0,0.0,0.0,0.0,0.0,0.0,0.0,0.0,0.0,0.0,0.0,0.0,0.0,0.0,0.0,0.0,0.0,0.0,0.0,0.0,0.0,0.0,0.0,0.0,0.0,0.0,0.0,0.0,0.0,0.0,0.0,0.0,0.0,0.0,0.0,0.0,0.0,0.0,0.0,0.0,0.0,0.0,0.0,0.0,0.0,0.0,0.0,0.0,0.0,0.0,0.0,0.0,0.0,0.0,0.0,0.0,0.0,0.0,0.0,0.0,0.0,0.0,0.0,0.0,0.0,0.0,-1.0976,-1.2024,-1.2754,0.0,0.0,0.0,0.0,0.0,0.0,0.0,0.0,0.0,0.0,0.0,0.0,0.0,0.0,0.0,0.0,0.0,0.0,0.0,0.0,0.0,0.0,0.0,0.0,0.0,0.0,0.0,0.0,0.0,0.0,0.0,0.0,0.0,0.0,0.0,0.0,0.0,0.0,0.0,0.0,0.0,0.0,0.0,0.0,0.0,0.0,0.0,0.0,0.0,0.0,0.0,0.0,0.0,0.0,0.0,0.0,0.0,0.0,0.0,0.0,0.0,0.0,0.0,0.0,0.0,0.0,0.0,0.0,0.0,0.0,0.0,0.0,0.0,0.0,0.0,0.0,0.0,0.0,0.0,0.0,0.0,0.0,0.0,0.0,0.0,0.0,0.0,0.0,0.0,0.0,0.0,0.0,0.0,0.0,0.0,0.0,0.0,0.0,0.0,0.0,0.0,0.0,0.0,0.0,0.0,0.0,0.0,0.0,0.0,0.0,-0.7642,0.0,-1.1571,-1.2506,-1.2693,-1.2123,0.0,0.0,0.0,0.0,0.0,0.0,0.0,0.0,0.0,0.0,0.0,0.0,0.0,0.0,0.0,0.0,0.0,0.0,0.0,0.0,0.0,0.0,0.0,0.0,0.0,0.0,0.0,0.0,0.0,0.0,0.0,0.0,0.0,0.0,0.0,0.0,0.0,0.0,0.0,0.0,0.0,0.0,0.0,0.0,0.0,0.0,0.0,0.0,0.0,0.0,0.0,0.0,0.0,0.0,0.0,0.0,0.0,0.0,0.0,0.0,0.0,0.0,0.0,0.0,0.0,0.0,0.0,0.0,0.0,0.0,0.0,0.0,0.0,0.0,0.0,0.0,0.0,0.0,0.0,0.0,0.0,0.0,0.0,0.0,0.0,0.0,0.0,0.0,0.0,0.0,0.0,0.0,0.0,0.0,0.0,0.0,0.0,0.0,0.0,0.0,0.0,0.0,0.0,0.0,0.0,0.0,0.0,0.0,0.0,-0.892,-1.021,-1.4506,-1.4628,-1.3193,0.0,0.0,0.0,0.0,0.0,0.0,0.0,0.0,0.0,0.0,0.0,0.0,0.0,0.0,0.0,0.0,0.0,0.0,0.0,0.0,0.0,0.0,0.0,0.0,0.0,0.0,0.0,0.0,0.0,0.0,0.0,0.0,0.0,0.0,0.0,0.0,0.0,0.0,0.0,0.0,0.0,0.0,0.0,0.0,0.0,0.0,0.0,0.0,0.0,0.0,0.0,0.0,0.0,0.0,0.0,0.0,0.0,0.0,0.0,0.0,0.0,0.0,0.0,0.0,0.0,0.0,0.0,0.0,0.0,0.0,0.0,0.0,0.0,0.0,0.0,0.0,0.0,0.0,0.0,0.0,0.0,0.0,0.0,0.0,0.0,0.0,0.0,0.0,0.0,0.0,0.0,0.0,0.0,0.0,0.0,0.0,0.0,0.0,0.0,0.0,0.0,0.0,0.0,0.0,0.0,0.0,0.0,0.0,0.0,-0.3915,-0.6752,-1.0904,0.0,-1.3473,-1.1976,0.0,0.0,0.0,0.0,0.0,0.0,0.0,0.0,0.0,0.0,0.0,0.0,0.0,0.0,0.0,0.0,0.0,0.0,0.0,0.0,0.0,0.0,0.0,0.0,0.0,0.0,0.0,0.0,0.0,0.0,0.0,0.0,0.0,0.0,0.0,0.0,0.0,0.0,0.0,0.0,0.0,0.0,0.0,0.0,0.0,0.0,0.0,0.0,0.0,0.0,0.0,0.0,0.0,0.0,0.0,0.0,0.0,0.0,0.0,0.0,0.0,0.0,0.0,0.0,0.0,0.0,0.0,0.0,0.0,0.0,0.0,0.0,0.0,0.0,0.0,0.0,0.0,0.0,0.0,0.0,0.0,0.0,0.0,0.0,0.0,0.0,0.0,0.0,0.0,0.0,0.0,0.0,0.0,0.0,0.0,0.0,0.0,0.0,0.0,0.0,0.0,0.0,0.0,0.0,0.0,0.0,0.0,0.0,0.0,-0.3287,0.0,-1.3086,0.0,-1.2739,-1.0912,0.0,0.0,0.0,0.0,0.0,0.0,0.0,0.0,0.0,0.0,0.0,0.0,0.0,0.0,0.0,0.0,0.0,0.0,0.0,0.0,0.0,0.0,0.0,0.0,0.0,0.0,0.0,0.0,0.0,0.0,0.0,0.0,0.0,0.0,0.0,0.0,0.0,0.0,0.0,0.0,0.0,0.0,0.0,0.0,0.0,0.0,0.0,0.0,0.0,0.0,0.0,0.0,0.0,0.0,0.0,0.0,0.0,0.0,0.0,0.0,0.0,0.0,0.0,0.0,0.0,0.0,0.0,0.0,0.0,0.0,0.0,0.0,0.0,0.0,0.0,0.0,0.0,0.0,0.0,0.0,0.0,0.0,0.0,0.0,0.0,0.0,0.0,0.0,0.0,0.0,0.0,0.0,0.0,0.0,0.0,0.0,0.0,0.0,0.0,0.0,0.0,0.0,0.0,0.0,0.0,0.0,0.0,0.0,-0.1855,-0.9701,-1.5085,-1.6388,-1.3768,-1.2677,-1.0117,0.0,0.0,0.0,0.0,0.0,0.0,0.0,0.0,0.0,0.0,0.0,0.0,0.0,0.0,0.0,0.0,0.0,0.0,0.0,0.0,0.0,0.0,0.0,0.0,0.0,0.0,0.0,0.0,0.0,0.0,0.0,0.0,0.0,0.0,0.0,0.0,0.0,0.0,0.0,0.0,0.0,0.0,0.0,0.0,0.0,0.0,0.0,0.0,0.0,0.0,0.0,0.0,0.0,0.0,0.0,0.0,0.0,0.0,0.0,0.0,0.0,0.0,0.0,0.0,0.0,0.0,0.0,0.0,0.0,0.0,0.0,0.0,0.0,0.0,0.0,0.0,0.0,0.0,0.0,0.0,0.0,0.0,0.0,0.0,0.0,0.0,0.0,0.0,0.0,0.0,0.0,0.0,0.0,0.0,0.0,0.0,0.0,0.0,0.0,0.0,0.0,0.0,0.0,0.0,0.0,0.0,0.0,0.0,0.0,-0.7372,-1.1583,-1.4258,-1.4961,-1.1394,-0.9853,0.0,0.0,0.0,0.0,0.0,0.0,0.0,0.0,0.0,0.0,0.0,0.0,0.0,0.0,0.0,0.0,0.0,0.0,0.0,0.0,0.0,0.0,0.0,0.0,0.0,0.0,0.0,0.0,0.0,0.0,0.0,0.0,0.0,0.0,0.0,0.0,0.0,0.0,0.0,0.0,0.0,0.0,0.0,0.0,0.0,0.0,0.0,0.0,0.0,0.0,0.0,0.0,0.0,0.0,0.0,0.0,0.0,0.0,0.0,0.0,0.0,0.0,0.0,0.0,0.0,0.0,0.0,0.0,0.0,0.0,0.0,0.0,0.0,0.0,0.0,0.0,0.0,0.0,0.0,0.0,0.0,0.0,0.0,0.0,0.0,0.0,0.0,0.0,0.0,0.0,0.0,0.0,0.0,0.0,0.0,0.0,0.0,0.0,0.0,0.0,0.0,0.0,0.0,0.0,0.0,0.0,0.0,0.0,0.0,-1.1452,-1.4242,-1.597,-1.6273,-1.2273,-1.0461,-1.1073,0.0,0.0,0.0,0.0,0.0,0.0,0.0,0.0,0.0,0.0,0.0,0.0,0.0,0.0,0.0,0.0,0.0,0.0,0.0,0.0,0.0,0.0,0.0,0.0,0.0,0.0,0.0,0.0,0.0,0.0,0.0,0.0,0.0,0.0,0.0,0.0,0.0,0.0,0.0,0.0,0.0,0.0,0.0,0.0,0.0,0.0,0.0,0.0,0.0,0.0,0.0,0.0,0.0,0.0,0.0,0.0,0.0,0.0,0.0,0.0,0.0,0.0,0.0,0.0,0.0,0.0,0.0,0.0,0.0,0.0,0.0,0.0,0.0,0.0,0.0,0.0,0.0,0.0,0.0,0.0,0.0,0.0,0.0,0.0,0.0,0.0,0.0,0.0,0.0,0.0,0.0,0.0,0.0,0.0,0.0,0.0,0.0,0.0,0.0,0.0,0.0,0.0,0.0,0.0,0.0,0.0,0.0,0.0,-2.0219,-2.1906,-2.1025,-1.7508,-1.4879,-1.1829,0.0,0.0,0.0,0.0,0.0,0.0,0.0,0.0,0.0,0.0,0.0,0.0,0.0,0.0,0.0,0.0,0.0,0.0,0.0,0.0,0.0,0.0,0.0,0.0,0.0,0.0,0.0,0.0,0.0,0.0,0.0,0.0,0.0,0.0,0.0,0.0,0.0,0.0,0.0,0.0,0.0,0.0,0.0,0.0,0.0,0.0,0.0,0.0,0.0,0.0,0.0,0.0,0.0,0.0,0.0,0.0,0.0,0.0,0.0,0.0,0.0,0.0,0.0,0.0,0.0,0.0,0.0,0.0,0.0,0.0,0.0,0.0,0.0,0.0,0.0,0.0,0.0,0.0,0.0,0.0,0.0,0.0,0.0,0.0,0.0,0.0,0.0,0.0,0.0,0.0,0.0,0.0,0.0,0.0,0.0,0.0,0.0,0.0,0.0,0.0,0.0,0.0,0.0,0.0,0.0,0.0,0.0,0.0,0.0,-2.3017,-2.4511,-2.389,-2.0811,-1.5835,-1.2266,0.0,0.0,0.0,0.0,0.0,0.0,0.0,0.0,0.0,0.0,0.0,0.0,0.0,0.0,0.0,0.0,0.0,0.0,0.0,0.0,0.0,0.0,0.0,0.0,0.0,0.0,0.0,0.0,0.0,0.0,0.0,0.0,0.0,0.0,0.0,0.0,0.0,0.0,0.0,0.0,0.0,0.0,0.0,0.0,0.0,0.0,0.0,0.0,0.0,0.0,0.0,0.0,0.0,0.0,0.0,0.0,0.0,0.0,0.0,0.0,0.0,0.0,0.0,0.0,0.0,0.0,0.0,0.0,0.0,0.0,0.0,0.0,0.0,0.0,0.0,0.0,0.0,0.0,0.0,0.0,0.0,0.0,0.0,0.0,0.0,0.0,0.0,0.0,0.0,0.0,0.0,0.0,0.0,0.0,0.0,0.0,0.0,0.0,0.0,0.0,0.0,0.0,0.0,0.0,0.0,0.0,0.0,0.0,-2.5063,-2.6107,-2.6238,-2.5027,-2.2358,-1.7133,-1.308,0.0,0.0,0.0,0.0,0.0,0.0,0.0,0.0,0.0,0.0,0.0,0.0,0.0,0.0,0.0,0.0,0.0,0.0,0.0,0.0,0.0,0.0,0.0,0.0,0.0,0.0,0.0,0.0,0.0,0.0,0.0,0.0,0.0,0.0,0.0,0.0,0.0,0.0,0.0,0.0,0.0,0.0,0.0,0.0,0.0,0.0,0.0,0.0,0.0,0.0,0.0,0.0,0.0,0.0,0.0,0.0,0.0,0.0,0.0,0.0,0.0,0.0,0.0,0.0,0.0,0.0,0.0,0.0,0.0,0.0,0.0,0.0,0.0,0.0,0.0,0.0,0.0,0.0,0.0,0.0,0.0,0.0,0.0,0.0,0.0,0.0,0.0,0.0,0.0,0.0,0.0,0.0,0.0,0.0,0.0,0.0,0.0,0.0,0.0,0.0,0.0,0.0,0.0,0.0,0.0,0.0,0.0,0.0,-2.6731,-2.9019,-2.7362,-2.5152,-2.2452,-1.8273,-1.3877,0.0,0.0,0.0,0.0,0.0,0.0,0.0,0.0,0.0,0.0,0.0,0.0,0.0,0.0,0.0,0.0,0.0,0.0,0.0,0.0,0.0,0.0,0.0,0.0,0.0,0.0,0.0,0.0,0.0,0.0,0.0,0.0,0.0,0.0,0.0,0.0,0.0,0.0,0.0,0.0,0.0,0.0,0.0,0.0,0.0,0.0,0.0,0.0,0.0,0.0,0.0,0.0,0.0,0.0,0.0,0.0,0.0,0.0,0.0,0.0,0.0,0.0,0.0,0.0,0.0,0.0,0.0,0.0,0.0,0.0,0.0,0.0,0.0,0.0,0.0,0.0,0.0,0.0,0.0,0.0,0.0,0.0,0.0,0.0,0.0,0.0,0.0,0.0,0.0,0.0,0.0,0.0,0.0,0.0,0.0,0.0,0.0,0.0,0.0,0.0,0.0,0.0,0.0,0.0,0.0,0.0,0.0,0.0,-2.6724,-2.9084,-2.8017,-2.5472,-2.1516,-1.7302,-1.2931,0.0,0.0,0.0,0.0,0.0,0.0,0.0,0.0,0.0,0.0,0.0,0.0,0.0,0.0,0.0,0.0,0.0,0.0,0.0,0.0,0.0,0.0,0.0,0.0,0.0,0.0,0.0,0.0,0.0,0.0,0.0,0.0,0.0,0.0,0.0,0.0,0.0,0.0,0.0,0.0,0.0,0.0,0.0,0.0,0.0,0.0,0.0,0.0,0.2828,0.0,0.0,0.0,0.0,0.0,0.0,0.0,0.0,0.0,0.0,0.0,0.0,0.0,0.0,0.0,0.0,0.0,0.0,0.0,0.0,0.0,0.0,0.0,0.0,0.0,0.0,0.0,0.0,0.0,0.0,0.0,0.0,0.0,0.0,0.0,0.0,0.0,0.0,0.0,0.0,0.0,0.0,0.0,0.0,0.0,0.0,0.0,0.0,0.0,0.0,0.0,0.0,0.0,0.0,0.0,0.0,0.0,0.0,0.0,-2.687,-2.9613,-2.8,-2.5144,-2.1046,-1.6937,-1.257,0.0,0.0,0.0,0.0,0.0,0.0,0.0,0.0,0.0,0.0,0.0,0.0,0.0,0.0,0.0,0.0,0.0,0.0,0.0,0.0,0.0,0.0,0.0,0.0,0.0,0.0,0.0,0.0,0.0,0.0,0.0,0.0,0.0,0.0,0.0,0.0,0.0,0.0,0.0,0.0,0.0,0.0,0.0,0.0,0.0,0.0,0.0,0.0,0.0,0.0,0.0,0.0,0.0,0.0,0.0,0.0,0.0,0.0,0.0,0.0,0.0,0.0,0.0,0.0,0.0,0.0,0.0,0.0,0.0,0.0,0.0,0.0,0.0,0.0,0.0,0.0,0.0,0.0,0.0,0.0,0.0,0.0,0.0,0.0,0.0,0.0,0.0,0.0,0.0,0.0,0.0,0.0,0.0,0.0,0.0,0.0,0.0,0.0,0.0,0.0,0.0,0.0,0.0,0.0,0.0,0.0,0.0,-2.3614,-2.7089,-3.0155,-2.7791,-2.4629,-2.0883,-1.6703,-1.2279,-0.7569,0.0,0.0,0.0,0.0,0.0,0.0,0.0,0.0,0.0,0.0,0.0,0.0,0.0,0.0,0.0,0.0,0.0,0.0,0.0,0.0,0.0,0.0,0.0,0.0,0.0,0.0,0.0,0.0,0.0,0.0,0.0,0.0,0.0,0.0,0.0,0.0,0.0,0.0,0.1045,0.2979,0.0,0.0,0.0,0.0,0.0,0.0,0.0,0.0,0.4428,0.0,0.0,0.0,0.0,0.0,0.0,0.0,0.0,0.0,0.0,0.0,0.0,0.0,0.0,0.0,0.0,0.0,0.0,0.0,0.0,0.0,0.0,0.0,0.0,0.0,0.0,0.0,0.0,0.0,0.0,0.0,0.0,0.0,0.0,0.0,0.0,0.0,0.0,0.0,0.0,0.0,0.0,0.0,0.0,0.0,0.0,0.0,0.0,0.0,0.0,0.0,0.0,0.0,0.0,0.0,0.0,-2.4335,-2.5083,-2.707,-3.0316,-2.7936,-2.4726,-2.0866,-1.6184,-1.1417,-0.6728,0.0,0.0,0.0,0.0,0.0,0.0,0.0,0.0,0.0,0.0,0.0,0.0,0.0,0.0,0.0,0.0,0.0,0.0,0.0,0.0,0.0,0.0,0.0,0.0,0.0,0.0,0.0,0.0,0.0,0.0,0.0,0.0,0.0,0.0,0.0,0.0,0.0,0.0,0.0,0.0958,0.0639,0.0,0.0,0.0,0.0,0.0,0.0,0.0,0.0,0.2065,0.0,0.0,0.0,0.0,0.0,0.0,0.0,0.0,0.0,0.0,0.0,0.0,0.0,0.0,0.0,0.0,0.0,0.0,0.0,0.0,0.0,0.0,0.0,0.0,0.0,0.0,0.0,0.0,0.0,0.0,0.0,0.0,0.0,0.0,0.0,0.0,0.0,0.0,0.0,0.0,0.0,0.0,0.0,0.0,0.0,0.0,0.0,0.0,0.0,0.0,0.0,0.0,0.0,0.0,0.0,-2.3333,-2.5636,-2.7987,-3.0384,-2.8179,-2.5074,-2.1283,-1.5898,-1.0897,0.0,0.0,0.0,0.0,0.0,0.0,0.0,0.0,0.0,0.0,0.0,0.0,0.0,0.0,0.0,0.0,0.0,0.0,0.0,0.0,0.0,0.0,0.0,0.0,0.0,0.0,0.0,0.0,0.0,0.0,0.0,0.0,0.0,0.0,0.0,0.0,0.0,0.0,0.0,0.0,-0.1153,-0.1259,-0.0142,0.0,0.0,0.0,0.0,0.0,0.0,-0.1434,-0.1004,0.0,0.0,0.0,0.0,0.0,0.0,0.0,0.0,0.0,0.0,0.0,0.0,0.0,0.0,0.0,0.0,0.0,0.0,0.0,0.0,0.0,0.0,0.0,0.0,0.0,0.0,0.0,0.0,0.0,0.0,0.0,0.0,0.0,0.0,0.0,0.0,0.0,0.0,0.0,0.0,0.0,0.0,0.0,0.0,0.0,0.0,0.0,0.0,0.0,0.0,0.0,0.0,0.0,0.0,0.0,-2.2103,-2.5839,-2.8768,-3.0673,-2.8792,-2.5844,-2.1878,-1.6123,-1.0909,0.0,0.0,0.0,0.0,0.0,0.0,0.0,0.0,0.0,0.0,0.0,0.0,0.0,0.0,0.0,0.0,0.0,0.0,0.0,0.0,0.0,0.0,0.0,0.0,0.0,0.0,0.0,0.0,0.0,0.0,0.0,0.0,0.0,0.0,0.0,0.0,0.0,0.0,0.0,0.0,0.0,-0.2616,-0.1082,-0.0364,0.0,0.0,0.0,0.0,-0.4518,-0.3982,0.0,0.0,0.0,0.0,0.0,0.0,0.0,0.0,0.0,0.0,0.0,0.0,0.0,0.0,0.0,0.0,0.0,0.0,0.0,0.0,0.0,0.0,0.0,0.0,0.0,0.0,0.0,0.0,0.0,0.0,0.0,0.0,0.0,0.0,0.0,0.0,0.0,0.0,0.0,0.0,0.0,0.0,0.0,0.0,0.0,0.0,0.0,0.0,0.0,0.0,0.0,0.0,0.0,0.0,0.0,0.0,-2.3577,-2.5878,-2.8492,-3.149,-3.0274,-2.7296,-2.2767,-1.7396,-1.1992,0.0,0.0,0.0,0.0,0.0,0.0,0.0,0.0,0.0,0.0,0.0,0.0,0.0,0.0,0.0,0.0,0.0,0.0,0.0,0.0,0.0,0.0,0.0,0.0,0.0,0.0,0.0,0.0,0.0,0.0,0.0,0.0,0.0,0.0,0.0,0.0,0.0,0.0,0.0,0.0,0.0,-0.3292,-0.3741,-0.164,-0.1528,0.0,0.0,-0.6933,-0.6877,-0.5728,0.0,0.0,0.0,0.0,0.0,0.0,0.0,0.0,0.0,0.0,0.0,0.0,0.0,0.0,0.0,0.0,0.0,0.0,0.0,0.0,0.0,0.0,0.0,0.0,0.0,0.0,0.0,0.0,0.0,0.0,0.0,0.0,0.0,0.0,0.0,0.0,0.0,0.0,0.0,0.0,0.0,0.0,0.0,0.0,0.0,0.0,0.0,0.0,0.0,0.0,0.0,0.0,0.0,0.0,0.0,-1.7616,-2.3227,-2.6603,-2.9255,-3.1148,-3.0046,-2.751,-2.3574,-1.7604,-1.2029,0.0,0.0,0.0,0.0,0.0,0.0,0.0,0.0,0.0,0.0,0.0,0.0,0.0,0.0,0.0,0.0,0.0,0.0,0.0,0.0,0.0,0.0,0.0,0.0,0.0,0.0,0.0,0.0,0.0,0.0,0.0,0.0,0.0,0.0,0.0,0.0,0.0,0.0,0.0,0.0,0.0,0.0,-0.595,-0.5806,0.0,0.0,0.0,-0.9447,-0.8718,0.0,0.0,0.0,0.0,0.0,0.0,0.0,0.0,0.0,0.0,0.0,0.0,0.0,0.0,0.0,0.0,0.0,0.0,0.0,0.0,0.0,0.0,0.0,0.0,0.0,0.0,0.0,0.0,0.0,0.0,0.0,0.0,0.0,0.0,0.0,0.0,0.0,0.0,0.0,0.0,0.0,0.0,0.0,0.0,0.0,0.0,0.0,0.0,0.0,0.0,0.0,0.0,0.0,0.0,0.0,0.0,0.0,-2.3755,-2.7918,-3.0486,-3.1359,-3.0545,-2.8302,-2.4568,-1.8665,0.0,0.0,0.0,0.0,0.0,0.0,0.0,0.0,0.0,0.0,0.0,0.0,0.0,0.0,0.0,0.0,0.0,0.0,0.0,0.0,0.0,0.0,0.0,0.0,0.0,0.0,0.0,0.1824,0.0,0.0,0.0,0.0,0.0,0.0,0.0,0.0,0.0,0.0,0.0,0.0,0.0,0.0,-0.1956,-0.6363,-0.9012,-1.0966,0.0,0.0,-1.1771,-1.0492,-0.9438,-0.8536,0.0,0.0,0.0,0.0,0.0,0.0,0.0,0.0,0.0,0.0,0.0,0.0,0.0,0.0,0.0,0.0,0.0,0.0,0.0,0.0,0.0,0.0,0.0,0.0,0.0,0.0,0.0,0.0,0.0,0.0,0.0,0.0,0.0,0.0,0.0,0.0,0.0,0.0,0.0,0.0,0.0,0.0,0.0,0.0,0.0,0.0,0.0,0.0,0.0,0.0,0.0,0.0,0.0,0.0,0.0,-2.6415,-3.0019,-3.2229,-3.3093,-3.2881,-3.0586,-2.6063,-2.1454,-1.6081,0.0,0.0,0.0,0.0,0.0,0.0,0.0,0.0,0.0,0.0,0.0,0.0,0.0,0.0,0.0,0.0,0.0,0.0,0.0,0.0,0.0,0.0,0.0,0.0,0.0,0.0,0.0,0.0,0.0,0.0,0.0,0.0,0.0,0.0,0.0,0.0,0.0,0.0,0.0,0.0,0.0,-0.2752,-0.3772,-0.9456,-1.3622,0.0,0.0,-1.3538,-1.2383,-1.2032,-1.1337,-0.97,0.0,0.0,0.0,0.0,0.0,0.0,0.0,0.0,0.0,0.0,0.0,0.0,0.0,0.0,0.0,0.0,0.0,0.0,0.0,0.0,0.0,0.0,0.0,0.0,0.0,0.0,0.0,0.0,0.0,0.0,0.0,0.0,0.0,0.0,0.0,0.0,0.0,0.0,0.0,0.0,0.0,0.0,0.0,0.0,0.0,0.0,0.0,0.0,0.0,0.0,0.0,0.0,0.0,-2.1338,-2.518,-3.027,-3.3005,-3.327,-3.2676,-3.0917,-2.795,-2.3817,-1.8904,0.0,0.0,0.0,0.0,0.0,0.0,0.0,0.0,0.0,0.0,0.0,0.0,0.0,0.0,0.0,0.0,0.0,0.0,0.0,0.0,0.0,0.0,0.0,0.0,0.0,0.0,0.0,0.0,0.3642,0.2677,0.1282,0.0,0.0,0.0,0.0,0.0,0.0,0.0,0.0,0.0,0.0,-0.402,-0.6086,-1.0567,0.0,0.0,-1.4916,-1.5422,-1.457,-1.381,-1.2971,-1.1976,-1.0882,0.0,0.0,0.0,0.0,0.0,0.0,0.0,0.0,0.0,0.0,0.0,0.0,0.0,0.0,0.0,0.0,0.0,0.0,0.0,0.0,0.0,0.0,0.0,0.0,0.0,0.0,0.0,0.0,0.0,0.0,0.0,0.0,0.0,0.0,0.0,0.0,0.0,0.0,0.0,0.0,0.0,0.0,0.0,0.0,0.0,0.0,0.0,0.0,0.0,0.0,0.0,0.0,-2.2371,-2.5386,-3.0946,-3.3754,-3.3673,-3.2796,-3.1407,-2.9484,-2.5685,-2.1305,0.0,0.0,0.0,0.0,0.0,0.0,0.0,0.0,0.0,0.0,0.0,0.0,0.0,0.0,0.0,0.0,0.0,0.0,0.0,0.0,0.0,0.0,0.0,0.0,0.0,0.0,0.0,0.0,0.4494,0.3001,0.1325,0.0,0.0,0.0,0.0,0.0,0.0,0.0,0.0,0.0,0.0,-0.5894,-0.865,-1.1764,-1.4151,-1.515,-1.6509,-1.7303,-1.6902,-1.5654,-1.4534,-1.3968,0.0,0.0,0.0,0.0,0.0,0.0,0.0,0.0,0.0,0.0,0.0,0.0,0.0,0.0,0.0,0.0,0.0,0.0,0.0,0.0,0.0,0.0,0.0,0.0,0.0,0.0,0.0,0.0,0.0,0.0,-1.2636,0.0,0.0,0.0,0.0,0.0,0.0,0.0,0.0,0.0,0.0,0.0,0.0,0.0,0.0,0.0,0.0,0.0,0.0,0.0,0.0,0.0,0.0,-2.388,-2.8066,-3.243,-3.4636,-3.4562,-3.3725,-3.2411,-3.0578,-2.7055,-2.3245,-1.9116,0.0,0.0,0.0,0.0,0.0,0.0,0.0,0.0,0.0,0.0,0.0,0.0,0.0,0.0,0.0,0.0,0.0,0.0,0.0,0.0,0.0,0.0,0.0,0.0,0.0,0.0,0.8508,0.5167,0.2449,0.0,0.0,0.0,0.0,0.0,0.0,0.0,0.0,0.0,0.0,-1.0327,-0.8502,-1.0868,-1.2966,-1.5347,-1.7945,-1.8788,-1.9175,-1.9324,-1.7684,-1.6159,0.0,0.0,0.0,0.0,0.0,0.0,0.0,0.0,0.0,0.0,0.0,0.0,0.0,0.0,0.0,0.0,0.0,0.0,0.0,0.0,0.0,0.0,0.0,0.0,0.0,0.0,0.0,-2.4077,-2.2309,0.0,0.0,0.0,0.0,0.0,0.0,0.0,0.0,0.0,0.0,0.0,-3.3867,-3.4816,0.0,0.0,0.0,0.0,0.0,0.0,0.0,0.0,0.0,0.0,0.0,0.0,-2.5898,-2.9093,-3.3308,-3.5495,-3.5438,-3.4614,-3.358,-3.2346,-2.9464,-2.4988,-1.877,0.0,0.0,0.0,0.0,0.0,0.0,0.0,0.0,0.0,0.0,0.0,0.0,0.0,0.0,0.0,0.0,0.0,0.0,0.0,0.0,0.0,0.0,0.0,0.0,0.0,0.8266,0.0,0.0,0.0,0.0,0.0,0.0,0.0,0.0,0.0,0.0,0.0,-1.4863,-1.6148,-1.3829,-1.2722,-1.4657,-1.6392,-1.7855,0.0,0.0,0.0,0.0,0.0,0.0,0.0,0.0,0.0,0.0,0.0,0.0,0.0,0.0,-1.8213,-1.7748,-1.4691,-1.2249,-1.2434,0.0,0.0,0.0,0.0,0.0,0.0,0.0,0.0,0.0,0.0,0.0,0.0,0.0,0.0,-3.2045,0.0,-3.1316,0.0,0.0,0.0,0.0,0.0,0.0,0.0,0.0,-3.7783,-3.8868,-3.8976,-3.9359,-3.8319,0.0,-3.4086,-3.0777,0.0,0.0,0.0,0.0,0.0,0.0,0.0,0.0,-2.7487,-3.042,-3.4008,-3.5889,-3.5833,-3.5035,-3.4151,-3.3197,-3.0094,-2.5614,-1.9658,-1.5548,-1.1655,0.0,0.0,0.0,0.0,0.0,0.0,0.0,0.0,0.0,0.0,0.0,0.0,0.0,0.0,0.0,0.0,0.0,0.0,0.0,0.0,0.0,0.0,0.0,0.7988,0.0,0.0,0.0,0.0,0.0,0.0,0.0,0.0,0.0,-0.6773,-1.4307,-1.9668,-2.09,-1.7737,-1.5913,-1.7546,0.0,0.0,0.0,0.0,0.0,0.0,0.0,-1.9446,-1.9161,-1.9646,-1.9652,-1.8333,-1.7269,-1.7496,-2.0081,0.0,0.0,-1.9503,-1.7095,-1.5233,-1.4821,-1.4523,-1.4409,-1.4654,-1.4593,-1.471,0.0,0.0,0.0,0.0,0.0,0.0,0.0,0.0,-3.9046,-3.8128,0.0,-3.4815,0.0,0.0,0.0,0.0,0.0,-3.5706,0.0,0.0,-4.2795,-4.3747,-4.246,-4.2073,-4.0862,-3.9061,-3.988,-3.8637,-3.5167,-2.7343,0.0,0.0,0.0,0.0,0.0,0.0,-2.8782,-3.2182,-3.4696,-3.5897,-3.5791,-3.5021,-3.4097,-3.2984,-2.9026,-2.5224,-2.1843,-1.8736,-1.495,-1.0249,-0.5017,0.0,0.0,0.0,0.0,0.0,0.0,0.0,0.0,0.0,0.0,0.0,0.0,0.0,0.0,0.0,0.0,0.0,0.0,0.0,0.0,0.5541,0.0,0.0,0.0,0.0,0.0,0.0,0.0,0.0,0.0,0.0,-1.423,-1.9583,-2.4146,-2.7267,0.0,0.0,0.0,0.0,-2.5216,-2.4995,-2.3564,-2.2289,-2.2054,-2.0741,-2.0022,-2.0878,0.0,0.0,-1.9563,-2.0427,-2.1783,-2.3449,-2.3666,-2.2817,-1.9866,-1.9139,-1.8681,-1.8,-1.7107,-1.6655,-1.6594,-1.6403,-1.6273,-4.82,0.0,0.0,0.0,0.0,-4.5168,-4.6562,-4.8333,-4.789,-4.624,-4.3829,-4.2604,0.0,0.0,0.0,0.0,0.0,0.0,-3.9541,-4.2189,-4.3173,-4.3685,-4.3868,-4.3168,-4.2193,-4.1022,-4.0106,-3.9162,-3.8078,-3.459,-3.0577,-2.6238,0.0,0.0,0.0,0.0,-3.2505,-3.4666,-3.6067,-3.6463,-3.5885,-3.5048,-3.3315,-3.0623,-2.8223,-2.559,-2.2795,-2.0055,-1.6947,-1.3369,-0.8865,0.0,0.0,0.0,0.0,0.0,0.0,0.0,0.0,0.0,0.0,0.0,0.0,0.0,0.0,0.0,0.0,0.0,0.0,0.0,0.5698,0.6164,0.5535,0.0,0.0,0.0,0.0,0.0,0.0,0.0,0.0,0.0,-2.0041,-2.4022,-2.6414,0.0,0.0,-2.413,-2.21,-2.3821,-2.4368,-2.1753,0.0,0.0,0.0,-2.2843,-2.19,-2.1913,-2.1931,-2.1731,-2.1161,-2.1386,-2.2099,-2.335,-2.3707,-2.3469,-2.2582,-2.059,-1.8975,-1.8154,-1.7818,-1.7591,-1.7453,-1.7782,-1.8074,-5.5261,-5.1547,-5.0713,-5.0478,-5.0673,-5.098,-5.1921,-5.3171,-5.2729,-5.1407,-4.95,-4.8134,-4.5246,-4.14,-4.0144,0.0,0.0,0.0,-4.1755,-4.4122,-4.4129,-4.4245,-4.4373,-4.3547,-4.2703,-4.1821,-4.0438,-3.9769,-3.9769,-3.8768,-3.6151,-3.2036,0.0,0.0,-3.1842,-3.2753,-3.4214,-3.6184,-3.6521,-3.6372,-3.5903,-3.4714,-3.2635,-2.9604,-2.7869,-2.5949,-2.3693,-2.1455,-1.9088,-1.6505,-1.2999,-0.8776,0.0,0.0,0.0,0.0,0.0,0.0,0.0,0.0,0.0,0.0,0.0,0.36,0.0,0.0,0.0,0.0,0.321,0.0148,-0.0027,0.3282,0.0,0.0,0.0,0.0,0.0,0.0,0.0,-3.0439,-2.6135,-2.3402,-2.4888,-2.8003,-2.9504,-2.7799,-2.7221,-2.6676,-2.5972,0.0,-2.4493,-2.2304,-2.2917,-2.3926,-2.4834,-2.4252,-2.3551,-2.3251,-2.307,-2.2875,-2.2721,-2.2722,-2.292,-2.3386,-2.3685,-2.3876,-2.3816,-2.2005,-2.0189,-1.917,-1.8739,-1.8486,-1.8262,-1.864,-1.8842,-5.989,-5.9545,-5.6463,-5.5427,-5.5864,-5.5798,-5.5527,-5.5137,-5.4484,-5.4093,-5.3814,-5.1591,-4.9827,-4.8296,-4.4635,0.0,-4.4285,-4.4249,-4.4614,-4.54,-4.5531,-4.5143,-4.4278,-4.347,-4.2626,-4.178,-4.0915,-4.0489,-4.0489,-4.0489,-3.9719,-3.8127,-3.5059,-3.4241,-3.555,-3.4236,-3.4651,-3.6949,-3.6345,-3.5942,-3.5774,-3.4174,-3.206,-2.9464,-2.7699,-2.592,-2.4149,-2.246,-2.0781,-1.9037,-1.6615,-1.2994,-0.8054,0.0,0.0,0.0,0.0,0.0,0.0,0.0,0.0,0.0,0.0,0.0,0.0,0.0,0.0,0.0,-0.5426,0.0,-0.9747,-0.2762,0.0,0.0,0.0,-2.452,-2.1558,-2.6891,-3.086,-3.0977,0.0,0.0,-2.8617,0.0,-3.2834,-3.1313,-2.8097,-2.7021,-3.0081,-2.7735,-2.5717,-2.5707,-2.5572,-2.5376,-2.5114,-2.5025,-2.5002,-2.4861,-2.4696,-2.4503,-2.406,-2.4059,-2.3996,-2.3682,-2.3831,-2.3996,-2.3858,-2.3173,-2.2355,-2.086,-1.9943,-1.9303,-1.8982,-1.8947,-1.8807,-5.9904,-5.9796,-5.8868,-5.8113,-5.7525,-5.7342,-5.65,-5.5211,-5.5025,-5.4597,-5.3907,-5.2856,-5.1644,-5.0203,-4.734,-4.6304,-4.6759,-4.5606,-4.5208,-4.5419,-4.555,-4.5145,-4.4264,-4.3419,-4.2576,-4.1696,-4.0833,-4.0413,-4.043,-4.043,-4.0202,-3.9797,-3.8408,-3.7329,-3.653,-3.6184,-3.6346,-3.6977,-3.6872,-3.6203,-3.4998,-3.3945,-3.1828,-2.8656,-2.6277,-2.3903,-2.1522,-1.9818,-1.8409,-1.7236,-1.5381,-1.3476,-1.1573,-0.6612,0.0,0.0,0.0,0.0,0.0,0.0,0.0,0.0,0.0,0.1194,-0.7713,0.0,-0.6469,0.0,-0.8659,-1.8833,-2.463,-1.3242,0.0,0.0,-2.5098,-2.6411,-2.8145,-2.978,-3.1326,-3.2636,-3.1621,-3.0622,-3.016,-3.2024,-3.3726,-3.445,-3.165,-2.9303,-2.8868,-2.9249,-2.9367,-2.9068,-2.8082,-2.6832,-2.5677,-2.5692,-2.6146,-2.6591,-2.6599,-2.6103,-2.4559,-2.4284,-2.4284,-2.4266,-2.4229,-2.4191,-2.4169,-2.3491,-2.2905,-2.2319,-2.1115,-1.9792,-1.9022,-1.8914,-1.8753,-6.0709,-6.0369,-6.0127,-5.9683,-5.9084,-5.8576,-5.7338,-5.5711,-5.5713,-5.5119,-5.3962,-5.2978,-5.1795,-5.0336,-4.8182,-4.7136,-4.6963,-4.5867,-4.5339,-4.5361,-4.5532,-4.5145,-4.4266,-4.3419,-4.2539,-4.1662,-4.0818,-4.0398,-4.0398,-4.0398,-4.0398,-4.036,-3.9569,-3.8716,-3.7839,-3.7173,-3.688,-3.6961,-3.6673,-3.5735,-3.4172,-3.3636,-3.1597,-2.786,-2.6319,-2.4159,-2.1227,-2.0227,-1.9127,-1.7829,-1.6128,-1.5179,-1.5013,-1.1599,-1.0305,0.0,0.0,0.0,0.0,0.0,0.0,0.0,0.0,0.0,0.0,0.0,-1.6891,-1.0533,-1.7399,-2.4195,-2.9055,-2.1812,-2.0249,-2.8704,-2.8627,-2.8714,-3.0604,-3.0801,-3.1777,-3.4254,-3.371,-3.2798,-3.2075,-3.3454,-3.4866,-3.5783,-3.4249,-3.2104,-3.0075,-3.1372,-3.2427,-3.081,-3.0304,-2.9382,-2.7392,-2.7144,-2.7285,-2.7447,-2.7573,-2.7177,-2.5953,-2.554,-2.5671,-2.6451,-2.6693,-2.6414,-2.569,-2.4764,-2.4026,-2.34,-2.2336,-2.0951,-1.9649,-1.8984,-1.8491,-6.1779,-6.1117,-6.0754,-6.0509,-6.0299,-5.9397,-5.8026,-5.645,-5.6532,-5.5716,-5.4219,-5.2682,-5.1235,-4.9844,-4.8077,-4.6883,-4.6171,-4.557,-4.5297,-4.5297,-4.5495,-4.507,-4.4112,-4.3344,-4.2482,-4.1527,-4.0743,-4.0379,-4.0379,-4.0379,-4.0379,-4.036,-3.9612,-3.921,-3.9035,-3.7676,-3.6839,-3.6593,-3.5974,-3.4898,-3.345,-3.3294,-3.1295,-2.7405,-2.6845,-2.5114,-2.1894,-2.1618,-2.0869,-1.9358,-1.7946,-1.7309,-1.7518,-1.624,-1.6981,0.0,-1.565,0.0,0.0,0.0,0.0,0.0,0.0,0.0,0.0,-2.187,-2.4178,-2.462,-2.6437,-2.7747,-2.821,-2.8152,-2.8163,-2.8469,-2.9839,-3.0799,-3.0804,-3.1181,-3.2625,-3.5671,-3.6016,-3.5389,-3.4019,-3.5093,-3.597,-3.5912,-3.5783,-3.4583,-3.24,-3.3855,-3.4528,-3.17,-3.2415,-3.2204,-2.991,-2.8976,-2.8542,-2.8179,-2.8289,-2.8196,-2.7714,-2.738,-2.7659,-2.9004,-2.9363,-2.9064,-2.7768,-2.6469,-2.5319,-2.4505,-2.3447,-2.2104,-2.0423,-1.9138,-1.8287,-6.203,-6.1823,-6.0943,-6.0452,-6.0182,-5.9297,-5.83,-5.7268,-5.7351,-5.6612,-5.5146,-5.2926,-5.1518,-5.0676,-4.8296,-4.6876,-4.6263,-4.5529,-4.5233,-4.5213,-4.538,-4.4632,-4.3214,-4.3003,-4.212,-4.0686,-4.0438,-4.0325,-4.0325,-4.0309,-4.031,-4.031,-4.0154,-3.9733,-3.9099,0.0,0.0,0.0,-3.4899,-3.4358,-3.3431,-3.2689,-3.0983,-2.8133,-2.5987,0.0,-2.0912,-2.0145,-1.9614,-1.9249,-1.9561,0.0,0.0,0.0,0.0,0.0,0.0,0.0,0.0,0.0,0.0,0.0,-2.0279,-1.9525,-1.8068,-1.7406,-1.8171,-2.0927,-2.3986,-2.6969,-2.9784,-2.8772,-2.8567,-3.0092,-3.0599,-3.0799,-3.0882,-3.322,-3.5341,-3.587,-3.6013,-3.5896,-3.5564,-3.5831,-3.5993,-3.5991,-3.5939,-3.568,-3.4978,-3.5353,-3.5527,-3.4928,-3.4844,-3.4101,-3.1614,-3.0575,-2.9971,-2.98,-2.9792,-2.9713,-2.9344,-2.9259,-2.9261,-2.9806,-2.9737,-2.9645,-2.9176,-2.753,-2.5912,-2.5356,-2.4269,-2.2725,-2.0508,-1.9208,-1.8345,-6.2956,0.0,-6.1839,-6.1469,0.0,-6.0234,-5.9375,-5.854,-5.7866,-5.6555,-5.4809,-5.2765,-5.1343,-5.0345,-4.8598,-4.7416,-4.6803,-4.6096,-4.5783,-4.5805,-4.5572,-4.4556,-4.2908,-4.2944,-4.2063,-4.0417,-4.0344,-4.0307,-4.0326,-4.031,-4.0329,-4.0329,-4.031,-4.0099,-3.9659,-3.855,-3.6807,-3.4528,-3.4525,-3.3965,-3.282,-3.2322,-3.0872,-2.8354,0.0,0.0,0.0,0.0,0.0,0.0,0.0,0.0,0.0,0.0,0.0,-2.1546,-1.9288,-1.7466,-1.6751,-1.8453,-1.9813,-2.0394,-2.1485,-2.1953,-2.1513,-1.9868,-1.9931,-2.2508,-2.5081,-2.7325,-2.9109,-2.9253,-2.9638,-3.0568,-3.0759,-3.0817,-3.1172,-3.3905,-3.5974,-3.6013,-3.6011,-3.6014,-3.6016,-3.6005,-3.6012,-3.6015,-3.597,-3.5942,-3.5904,-3.5889,-3.5891,-3.5807,-3.5687,-3.4851,-3.2852,-3.1799,-3.1036,-3.054,-3.0305,-3.0245,-3.0083,-2.9972,-2.994,-3.0019,-2.9991,-2.9702,-2.8592,-2.7586,-2.6656,-2.569,-2.4527,-2.3192,-2.1494,-2.0283,-1.9199,-6.3892,-6.3116,-6.2636,-6.2401,-6.2231,-6.1106,-6.0174,-5.9338,0.0,0.0,0.0,-5.2532,-5.1136,-4.9958,-4.8872,-4.804,-4.7359,-4.6697,-4.639,-4.6332,-4.5744,-4.4614,-4.3138,-4.3038,-4.2155,-4.0663,-4.0436,-4.0325,-4.0307,-4.0291,-4.0291,-4.0253,-4.0253,-4.0139,-3.9775,-3.8421,-3.66,-3.4497,-3.4322,-3.3565,-3.2141,-3.1924,-3.0769,-2.8482,-2.8973,-2.7878,-2.4991,-2.5385,-2.4706,-2.2636,-2.2497,-2.2162,-2.1494,-2.1959,-2.2625,-2.3373,-2.3159,-2.2421,-2.109,-2.2682,-2.2777,-2.056,-2.2539,-2.4262,-2.5236,-2.3986,-2.3746,-2.5168,-2.6804,-2.7952,-2.8477,-2.9455,-3.0308,-3.0576,-3.0739,-3.1028,-3.1855,-3.4191,-3.601,-3.601,-3.6013,-3.6007,-3.6011,-3.6012,-3.6015,-3.6016,-3.5996,-3.5971,-3.5923,-3.5947,-3.5938,-3.5823,-3.5708,-3.5024,-3.3508,-3.281,-3.1937,-3.0741,-3.0402,-3.0337,-3.0286,-3.0138,-3.0079,-3.0218,-3.0218,-2.9353,-2.7719,-2.7081,-2.6823,-2.5783,-2.4604,-2.3505,-2.2712,-2.164,-2.0306,-6.399,-6.3696,-6.2805,-6.2287,-6.1911,-6.0433,-5.9298,-5.8474,-5.7138,-5.6013,-5.5005,-5.2794,-5.1418,-5.0752,-4.9117,-4.804,-4.7359,-4.6662,-4.6307,-4.6292,-4.5636,-4.4842,-4.3925,-4.3308,-4.2516,-4.1591,-4.0828,-4.0413,-4.0288,-4.0252,-4.0196,-4.0137,-4.0137,-3.9471,-3.8197,-3.7302,-3.6048,-3.4439,-3.3732,-3.2931,-3.2026,-3.1293,-3.0408,-2.9357,-2.8729,-2.7831,-2.6613,-2.6039,-2.5539,-2.5173,-2.5137,-2.5078,-2.496,-2.4344,-2.4404,-2.5068,-2.3893,-2.2945,-2.2673,-2.2949,-2.2338,-2.0753,-2.2651,-2.4405,-2.5197,-2.5072,-2.5053,-2.5351,-2.6497,-2.8077,-2.9857,-2.9253,-2.9259,-3.0584,-3.0858,-3.1992,-3.4687,-3.5576,-3.601,-3.5991,-3.601,-3.6013,-3.6005,-3.6042,-3.6087,-3.6016,-3.5996,-3.5972,-3.5931,-3.5951,-3.5938,-3.5838,-3.5782,-3.5038,-3.3731,-3.3548,-3.2774,-3.082,-3.0617,-3.0577,-3.0355,-3.0318,-3.0299,-3.0362,-2.9942,-2.903,-2.7466,-2.5986,-2.5462,-2.5282,-2.4553,-2.372,-2.3315,-2.2465,-2.1154,-6.4019,-6.3811,-6.3193,-6.254,-6.1771,-6.0167,-5.9042,-5.8194,-5.7103,-5.6042,-5.5062,-5.3697,-5.2287,-5.087,-5.0048,-4.9315,-4.867,-4.7941,-4.7359,-4.6841,-4.626,-4.5298,-4.4154,-4.379,-4.3017,-4.1819,-4.1363,-4.0871,-4.0381,-4.0252,-4.0196,-4.0118,-3.9699,-3.8917,-3.7888,-3.7022,-3.6041,-3.4967,-3.4225,-3.3468,-3.266,-3.1838,-3.1203,-3.0808,-3.0003,-2.9153,-2.8361,-2.7953,-2.7342,-2.6452,-2.6422,-2.6191,-2.5723,-2.5305,-2.5258,-2.5595,-2.491,-2.4438,-2.4409,-2.3791,-2.3372,-2.3209,-2.3546,-2.4254,-2.5236,-2.5313,-2.5313,-2.5351,-2.666,-2.8772,-3.1596,-3.0412,-3.0106,-3.2019,-3.1459,-3.2324,-3.5273,-3.5957,-3.5962,-3.5962,-3.5951,-3.5958,-3.601,-3.6489,-3.6559,-3.6127,-3.597,-3.5976,-3.5957,-3.5994,-3.5958,-3.5878,-3.5818,-3.5282,-3.4167,-3.3965,-3.3444,-3.2139,-3.1715,-3.1245,-3.0674,-3.0471,-3.0439,-3.0217,-2.8834,-2.7115,-2.6128,-2.5255,-2.4791,-2.4762,-2.4389,-2.3705,-2.3163,-2.2781,-2.1661,-6.3953,-6.3736,-6.3447,-6.2622,-6.1437,-6.0185,-5.9117,-5.8168,-5.7457,-5.6418,-5.5161,-5.4447,-5.3106,-5.1437,-5.0967,-5.0549,-4.9977,-4.9083,-4.8219,-4.7378,-4.6725,-4.5696,-4.4419,-4.425,-4.352,-4.2345,-4.1903,-4.1315,-4.0687,-4.0366,-4.0196,-4.0043,-3.9147,-3.8381,-3.7855,-3.6763,-3.5944,-3.5405,-3.4882,-3.4254,-3.346,-3.2664,-3.2147,-3.1853,-3.13,-3.0594,-2.9824,-2.9405,-2.861,-2.7359,-2.6923,-2.6402,-2.5742,-2.57,-2.5705,-2.5701,-2.564,-2.5604,-2.5552,-2.4748,-2.4578,-2.5343,-2.4568,-2.4378,-2.5188,-2.5572,-2.5563,-2.5524,-2.6727,-2.9178,-3.2239,-3.1975,-3.1701,-3.3116,-3.2673,-3.3262,-3.5508,-3.5958,-3.5883,-3.5878,-3.5894,-3.5919,-3.6107,-3.6703,-3.6787,-3.6085,-3.596,-3.5996,-3.6016,-3.6012,-3.5984,-3.5939,-3.5883,-3.5496,-3.4789,-3.4633,-3.4056,-3.3225,-3.2706,-3.1922,-3.1056,-3.0548,-3.053,-3.0151,-2.7532,-2.5653,-2.5067,-2.4768,-2.4465,-2.4292,-2.3971,-2.3601,-2.2728,-2.2384,-2.161,-6.3805,-6.362,-6.3307,-6.2214,-6.0774,-6.0535,-5.9578,-5.8297,-5.8209,-5.7278,-5.5631,-5.45,-5.3674,-5.2911,-5.1494,-5.0851,-5.0704,-4.9277,-4.8143,-4.7337,-4.663,-4.5868,-4.4995,-4.4438,-4.402,-4.3656,-4.2449,-4.1722,-4.1399,-4.0616,-4.0177,-3.9927,-3.8556,-3.7828,-3.7559,-3.6211,-3.5422,-3.5391,-3.5341,-3.4956,-3.4191,-3.3402,-3.2668,-3.1912,-3.1823,-3.139,-3.0542,-2.9107,-2.8266,-2.7982,-2.6657,-2.581,-2.572,-2.5703,-2.5702,-2.5697,-2.5705,-2.5675,-2.5615,-2.551,-2.5362,-2.5312,-2.5269,-2.5228,-2.5425,-2.6294,-2.6449,-2.5909,-2.6526,-2.902,-3.2752,-3.3122,-3.3176,-3.3587,-3.4568,-3.5702,-3.5882,-3.5942,-3.5866,-3.5815,-3.5911,-3.5894,-3.5953,-3.6089,-3.6109,-3.6226,-3.6033,-3.5996,-3.6016,-3.6012,-3.6011,-3.5996,-3.5984,-3.563,-3.503,-3.5332,-3.4652,-3.2878,-3.282,-3.2427,-3.1394,-3.0808,-3.0668,-3.0272,-2.7682,-2.539,-2.4873,-2.4861,-2.4421,-2.3764,-2.3656,-2.3651,-2.2432,-2.1394,-2.0112,-6.3691,-6.3447,-6.3194,-6.2082,-6.057,-5.9971,-5.9108,-5.8125,-5.815,-5.7265,-5.5693,-5.43,-5.3423,-5.2872,-5.1832,-5.1193,-5.0753,-4.9788,-4.8833,-4.7937,-4.7315,-4.6559,-4.5788,-4.508,-4.4534,-4.4116,-4.3445,-4.2871,-4.2183,-4.1361,-4.0653,-4.008,-3.8957,-3.8136,-3.7656,-3.6547,-3.5755,-3.53,-3.5315,-3.5172,-3.474,-3.3658,-3.2866,-3.2491,-3.1584,-3.0953,-3.0595,-2.9512,-2.8693,-2.8194,-2.7059,-2.6186,-2.5732,-2.5702,-2.5703,-2.5703,-2.5694,-2.5696,-2.5671,-2.5615,-2.5599,-2.5518,-2.5461,-2.5421,-2.5468,-2.5884,-2.6406,-2.7351,-2.7608,-2.9279,-3.2843,-3.4283,-3.491,-3.5025,-3.5625,-3.6005,-3.6013,-3.6824,-3.7036,-3.609,-3.6262,-3.6382,-3.5969,-3.5866,-3.6356,-3.6941,-3.6672,-3.5977,-3.5995,-3.6007,-3.6018,-3.6005,-3.601,-3.5879,-3.5537,-3.5665,-3.5105,-3.3996,-3.3119,-3.2421,-3.2283,-3.1203,-3.0717,-3.0697,-2.7619,-2.5043,-2.3753,-2.3909,-2.3755,-2.3262,-2.2605,-2.228,-2.1054,-2.0023,-1.9007,-6.3602,-6.327,-6.2811,-6.1716,-6.0364,-5.9491,-5.8702,-5.8005,-5.7997,-5.7161,-5.5606,-5.4137,-5.3286,-5.2847,-5.213,-5.1401,-5.0673,-5.004,-4.9249,-4.8409,-4.7977,-4.7245,-4.6269,-4.5726,-4.5074,-4.4416,-4.4113,-4.3464,-4.2431,-4.178,-4.0997,-4.0177,-3.9261,-3.8537,-3.7963,-3.6954,-3.6079,-3.5522,-3.5346,-3.5212,-3.4983,-3.3878,-3.3154,-3.2875,-3.1648,-3.082,-3.0574,-3.0032,-2.926,-2.824,-2.7381,-2.6692,-2.621,-2.5873,-2.5701,-2.5702,-2.5702,-2.5694,-2.5705,-2.5873,-2.5894,-2.5753,-2.5913,-2.6168,-2.6137,-2.5805,-2.673,-2.8999,-2.9055,-3.0192,-3.3166,-3.5077,-3.5956,-3.6007,-3.6014,-3.6021,-3.6088,-3.7423,-3.7877,-3.6772,-3.7093,-3.7113,-3.6393,-3.6425,-3.698,-3.7286,-3.6629,-3.588,-3.5955,-3.5974,-3.601,-3.601,-3.602,-3.5996,-3.5996,-3.5957,-3.5516,-3.4317,-3.307,-3.2131,-3.2602,-3.1373,-3.0722,-3.0387,-2.7392,-2.5071,-2.3515,-2.3144,-2.2925,-2.2764,-2.2043,-2.0971,-2.0273,-1.9227,-1.8588,-6.3447,-6.3055,-6.1961,-6.1129,-6.0346,-5.945,-5.8578,-5.7883,-5.795,-5.7033,-5.5393,-5.4036,-5.3462,-5.3302,-5.2267,-5.1401,-5.0691,-4.9995,-4.9257,-4.8513,-4.8493,-4.7651,-4.6183,-4.6102,-4.5702,-4.4867,-4.4201,-4.3083,-4.1641,-4.1453,-4.0997,-4.0234,-3.9337,-3.8842,-3.8575,-3.7243,-3.6311,-3.6141,-3.5531,-3.5113,-3.4944,-3.4198,-3.3448,-3.2948,-3.2237,-3.1452,-3.0722,-3.0554,-2.9819,-2.8254,-2.7429,-2.7035,-2.7153,-2.6281,-2.5698,-2.5701,-2.5715,-2.5703,-2.5793,-2.647,-2.6574,-2.6038,-2.705,-2.8038,-2.7984,-2.6825,-2.7349,-3.0311,-3.0618,-3.18,-3.382,-3.5254,-3.5976,-3.6015,-3.6016,-3.6011,-3.6013,-3.743,-3.8257,-3.8093,-3.8055,-3.7715,-3.7017,-3.7635,-3.7317,-3.6715,-3.6078,-3.5936,-3.5846,-3.5929,-3.5978,-3.5981,-3.5997,-3.6004,-3.6015,-3.5991,-3.5247,-3.3905,-3.25,-3.1053,-3.093,-3.082,-3.0765,-2.9964,-2.7362,-2.5135,-2.3403,-2.2431,-2.2064,-2.161,-2.0808,-1.9945,-1.9525,-1.9237,-1.8768,-6.3213,-6.2768,-6.2325,-6.1656,-6.0752,-5.9967,-5.9114,-5.8281,-5.7916,-5.6831,-5.5285,-5.3738,-5.2918,-5.2607,-5.2212,-5.1785,-5.1208,-5.0469,-4.9727,-4.9055,-4.8645,-4.7843,-4.6797,-4.6391,-4.5773,-4.5,-4.4664,-4.3969,-4.2971,-4.2421,-4.1755,-4.0895,-4.0019,-3.9353,-3.8802,-3.8152,-3.7523,-3.6936,-3.612,-3.5664,-3.5492,-3.4358,-3.3595,-3.3436,-3.2297,-3.1314,-3.054,-3.0008,-2.9437,-2.8935,-2.8113,-2.7457,-2.6982,-2.6174,-2.5697,-2.5756,-2.6227,-2.6284,-2.5957,-2.7029,-2.721,-2.6018,-2.7293,-2.8805,-2.9526,-2.9281,-2.9186,-2.999,-3.264,-3.4209,-3.4258,-3.5254,-3.5955,-3.5992,-3.6013,-3.6009,-3.6281,-3.7391,-3.8364,-3.8326,-3.8297,-3.7938,-3.745,-3.7669,-3.7962,-3.7512,-3.7467,-3.7014,-3.6056,-3.5852,-3.5859,-3.5853,-3.5908,-3.597,-3.5923,-3.5976,-3.5408,-3.3689,-3.2176,-3.1259,-3.082,-3.0811,-3.0768,-2.8306,-2.615,-2.4618,-2.2704,-2.1608,-2.1229,-2.0552,-1.9736,-1.932,-1.885,-1.8569,-1.8556,-6.2904,-6.2515,-6.226,-6.154,-6.0602,-5.9783,-5.9001,-5.8137,-5.7741,-5.6755,-5.5195,-5.3561,-5.2669,-5.25,-5.249,-5.2266,-5.1712,-5.0813,-5.0146,-4.9677,-4.9025,-4.8115,-4.7165,-4.6636,-4.5873,-4.4997,-4.4962,-4.4554,-4.3734,-4.3232,-4.2395,-4.1307,-4.064,-3.9954,-3.9212,-3.8745,-3.8225,-3.7562,-3.6516,-3.591,-3.5762,-3.4636,-3.3847,-3.3596,-3.2645,-3.1698,-3.0887,-3.0042,-2.9476,-2.9245,-2.876,-2.7867,-2.6557,-2.6203,-2.6225,-2.6521,-2.6773,-2.6776,-2.6537,-2.7772,-2.781,-2.6058,-2.7816,-2.9662,-3.076,-3.1797,-3.1646,-3.148,-3.3483,-3.5586,-3.5137,-3.5432,-3.5864,-3.5942,-3.5926,-3.5955,-3.5992,-3.6897,-3.7782,-3.8384,-3.8382,-3.8078,-3.7839,-3.7982,-3.8214,-3.8407,-3.884,-3.8325,-3.6309,-3.5765,-3.5782,-3.5708,-3.5795,-3.5866,-3.5702,-3.5549,-3.5071,-3.3515,-3.1952,-3.1116,-3.0723,-3.0742,-2.9565,-2.688,-2.4898,-2.3514,-2.223,-2.1052,-2.0264,-1.9665,-1.9238,-1.8859,-1.8359,-1.788,-1.7929,-6.25,-6.2305,-6.1558,-6.0762,-5.988,-5.8924,-5.8003,-5.7492,-5.7491,-5.666,-5.5057,-5.3453,-5.2857,-5.3054,-5.2981,-5.278,-5.2096,-5.0991,-5.0424,-5.0191,-4.9557,-4.8421,-4.7132,-4.7049,-4.6234,-4.4836,-4.4908,-4.4492,-4.3662,-4.3583,-4.2879,-4.1604,-4.1135,-4.056,-3.9823,-3.8968,-3.838,-3.7834,-3.6587,-3.5806,-3.5706,-3.494,-3.4216,-3.3734,-3.3409,-3.2743,-3.1629,-3.0777,-2.9971,-2.9371,-2.9311,-2.8131,-2.6412,-2.652,-2.7269,-2.7751,-2.739,-2.7179,-2.7476,-2.8674,-2.8473,-2.7106,-2.891,-3.0591,-3.112,-3.3385,-3.4261,-3.2758,-3.4121,-3.5757,-3.5732,-3.5728,-3.576,-3.5846,-3.5833,-3.5803,-3.5826,-3.5896,-3.6705,-3.8451,-3.8562,-3.8574,-3.8923,-3.8807,-3.8601,-3.8878,-3.9599,-3.9136,-3.6428,-3.6102,-3.6076,-3.5737,-3.5728,-3.5766,-3.541,-3.497,-3.4247,-3.3336,-3.1831,-3.0716,-3.0599,-3.0476,-2.8904,-2.6465,-2.4334,-2.2921,-2.1514,-2.0406,-1.9821,-1.926,-1.8833,-1.8271,-1.7509,-1.7049,-1.7259,-6.2362,-6.2041,-6.1384,-6.0824,-6.0195,-5.8877,-5.8135,-5.7949,-5.7561,-5.6382,-5.4803,-5.3207,-5.2654,-5.2761,-5.2753,-5.274,-5.265,-5.1808,-5.1008,-5.0242,-4.9556,-4.8669,-4.774,-4.7567,-4.6787,-4.5386,-4.4842,-4.4519,-4.4165,-4.3717,-4.3108,-4.258,-4.1548,-4.0877,-4.0421,-3.9508,-3.8726,-3.7925,-3.6853,-3.6029,-3.5535,-3.4834,-3.4367,-3.4269,-3.4279,-3.3639,-3.2136,-3.0949,-3.0228,-2.9932,-3.0023,-2.9223,-2.7828,-2.7563,-2.7794,-2.8106,-2.8501,-2.8373,-2.8186,-2.9413,-3.0046,-2.9491,-3.025,-3.0703,-3.0918,-3.2538,-3.3027,-3.1788,-3.3105,-3.456,-3.5541,-3.5736,-3.5747,-3.5827,-3.5788,-3.5737,-3.5863,-3.6725,-3.7848,-3.8739,-3.857,-3.8547,-3.911,-3.9218,-3.9302,-3.8742,-3.97,-3.9268,-3.676,-3.7494,-3.7788,-3.6327,-3.6071,-3.5574,-3.5223,-3.4835,-3.4233,-3.3148,-3.1657,-3.0717,-3.0555,-2.9737,-2.8098,-2.6209,-2.4095,-2.2332,-2.0911,-2.0104,-1.9637,-1.902,-1.861,-1.7707,-1.6553,-1.6305,-1.6541,-6.2096,-6.1805,-6.1498,-6.0864,-6.0088,-5.8916,-5.8231,-5.7846,-5.7271,-5.6313,-5.5062,-5.3652,-5.2972,-5.2961,-5.2943,-5.2899,-5.2857,-5.2223,-5.1511,-5.0712,-4.9837,-4.89,-4.7824,-4.7444,-4.6885,-4.5898,-4.5156,-4.4851,-4.4747,-4.4093,-4.3592,-4.3066,-4.1938,-4.106,-4.0611,-3.9693,-3.8831,-3.8155,-3.7017,-3.6224,-3.5639,-3.4767,-3.4293,-3.4386,-3.4604,-3.386,-3.2298,-3.0869,-3.0113,-3.0117,-3.0035,-2.9583,-2.8989,-2.8421,-2.8259,-2.8919,-2.9179,-2.924,-2.924,-3.0122,-3.0765,-3.0774,-3.0794,-3.0784,-3.1081,-3.2109,-3.2495,-3.1322,-3.3066,-3.4749,-3.5562,-3.5697,-3.5707,-3.5763,-3.5737,-3.5707,-3.5927,-3.7193,-3.8636,-3.9209,-3.8868,-3.8535,-3.8794,-3.9692,-3.998,-3.9281,-3.9822,-3.9774,-3.781,-3.8777,-3.7899,-3.6774,-3.5797,-3.5379,-3.5106,-3.4687,-3.4236,-3.2936,-3.1468,-3.0901,-3.0594,-2.9308,-2.7779,-2.5661,-2.3562,-2.1844,-2.0438,-2.0295,-1.9942,-1.9229,-1.8241,-1.7187,-1.6151,-1.5722,-1.5729,-6.1822,-6.1633,-6.1768,-6.0847,-5.9403,-5.9005,-5.8125,-5.7131,-5.6865,-5.6379,-5.5533,-5.4647,-5.3961,-5.3677,-5.3472,-5.3215,-5.2816,-5.2261,-5.187,-5.1426,-5.0597,-4.9399,-4.8064,-4.7284,-4.6731,-4.6271,-4.5746,-4.5413,-4.5108,-4.467,-4.4083,-4.3268,-4.2268,-4.1362,-4.0524,-3.9546,-3.8876,-3.8324,-3.7114,-3.6397,-3.6057,-3.4869,-3.4111,-3.4234,-3.439,-3.3827,-3.2327,-3.0903,-3.0033,-2.9954,-2.9596,-2.964,-2.9869,-2.8867,-2.8895,-3.0122,-2.9736,-2.9897,-3.0426,-3.0574,-3.0691,-3.0711,-3.0903,-3.0901,-3.1272,-3.2794,-3.3456,-3.203,-3.4139,-3.5775,-3.5724,-3.5623,-3.562,-3.5673,-3.5673,-3.5662,-3.5809,-3.7189,-3.8864,-3.9997,-3.9359,-3.8388,-3.8633,-3.9621,-3.9984,-4.0117,-4.0241,-3.9461,-3.8685,-3.8616,-3.8319,-3.7126,-3.5575,-3.511,-3.4777,-3.4082,-3.355,-3.2385,-3.1042,-3.0397,-3.0021,-2.8748,-2.7468,-2.5348,-2.3097,-2.1399,-2.0478,-2.0357,-1.9613,-1.847,-1.752,-1.6589,-1.5955,-1.548,-1.5235,-6.1426,-6.1315,-6.0798,-5.9955,-5.8892,-5.8355,-5.7603,-5.676,-5.6546,-5.617,-5.5579,-5.5723,-5.4972,-5.4065,-5.3554,-5.3321,-5.3013,-5.2599,-5.1999,-5.1559,-5.1219,-5.0236,-4.9022,-4.8143,-4.7408,-4.6783,-4.6119,-4.5489,-4.4967,-4.4856,-4.4432,-4.3683,-4.2374,-4.1497,-4.0922,-3.9642,-3.8508,-3.7796,-3.7351,-3.6369,-3.5418,-3.5009,-3.4502,-3.4086,-3.4221,-3.3771,-3.2803,-3.1846,-3.0866,-3.0129,-2.9932,-2.9926,-3.0184,-2.9768,-2.9711,-3.0062,-3.016,-3.0202,-3.0545,-3.0688,-3.0673,-3.0768,-3.1365,-3.1754,-3.203,-3.3496,-3.4379,-3.4472,-3.5591,-3.5864,-3.5727,-3.5589,-3.5566,-3.5623,-3.5591,-3.5573,-3.5901,-3.743,-3.9264,-4.041,-4.0275,-4.0011,-3.9923,-3.9884,-3.9996,-3.9958,-3.9967,-3.9828,-3.8965,-3.9076,-3.9159,-3.6716,-3.5162,-3.4798,-3.4323,-3.3563,-3.2737,-3.1696,-3.0509,-2.9414,-2.8927,-2.8087,-2.6887,-2.539,-2.2695,-2.0712,-2.0519,-2.0448,-1.9202,-1.8073,-1.7593,-1.7048,-1.5849,-1.5114,-1.5109,-6.1058,-6.0962,-6.0237,-5.9434,-5.8534,-5.7825,-5.7096,-5.6545,-5.6328,-5.6114,-5.5794,-5.5488,-5.4919,-5.4026,-5.3292,-5.2956,-5.281,-5.2509,-5.2134,-5.1864,-5.1737,-5.082,-4.9656,-4.8861,-4.8163,-4.732,-4.6651,-4.614,-4.5662,-4.5162,-4.4657,-4.4044,-4.2691,-4.1717,-4.1106,-3.9908,-3.87,-3.7849,-3.7335,-3.6562,-3.5812,-3.5417,-3.496,-3.4457,-3.4227,-3.374,-3.286,-3.2143,-3.1388,-3.0722,-3.0497,-3.0426,-3.0209,-3.0176,-3.0128,-3.0079,-3.0188,-3.0325,-3.0588,-3.084,-3.1265,-3.1668,-3.2264,-3.2377,-3.2652,-3.3716,-3.4904,-3.5613,-3.5859,-3.5811,-3.5679,-3.556,-3.5515,-3.556,-3.5515,-3.5507,-3.5507,-3.7194,-3.8965,-4.0135,-4.0631,-4.0539,-4.0441,-4.0059,-3.9848,-3.9758,-3.9851,-3.9504,-3.9051,-3.9643,-3.9185,-3.6498,-3.4975,-3.4642,-3.4098,-3.3336,-3.221,-3.1124,-3.0121,-2.8965,-2.7993,-2.7362,-2.6536,-2.5032,-2.2379,-2.0586,-2.0558,-2.0336,-1.9473,-1.8624,-1.8154,-1.722,-1.5917,-1.5129,-1.5099,-6.0714,-6.0556,-5.9987,-5.9248,-5.8355,-5.757,-5.6883,-5.6306,-5.6179,-5.6106,-5.591,-5.4889,-5.4517,-5.3939,-5.3336,-5.2585,-5.2315,-5.2346,-5.2251,-5.2156,-5.1958,-5.1182,-5.0105,-4.9561,-4.8799,-4.797,-4.7296,-4.6955,-4.6484,-4.5517,-4.4963,-4.4393,-4.3128,-4.2047,-4.1244,-4.0174,-3.9261,-3.858,-3.7594,-3.713,-3.6783,-3.6204,-3.552,-3.5013,-3.4494,-3.3931,-3.3111,-3.2386,-3.1821,-3.1316,-3.1257,-3.0845,-3.0357,-3.0136,-3.0114,-2.9972,-3.0075,-3.0215,-3.04,-3.0948,-3.2047,-3.2954,-3.316,-3.2958,-3.2867,-3.3727,-3.4783,-3.5721,-3.585,-3.5773,-3.5581,-3.5515,-3.552,-3.5507,-3.5493,-3.546,-3.5734,-3.676,-3.8242,-3.9701,-3.9863,-4.0158,-3.9935,-3.9702,-3.9534,-3.9684,-3.9758,-3.9596,-3.8888,-3.8554,-3.7604,-3.5666,-3.4793,-3.4526,-3.3879,-3.3159,-3.1886,-3.0685,-2.9749,-2.8623,-2.7365,-2.665,-2.6096,-2.469,-2.2413,-2.1067,-2.0582,-2.0154,-1.9528,-1.8768,-1.8039,-1.6953,-1.5845,-1.5423,-1.5235,-6.0565,-6.053,-6.0166,-5.9285,-5.8164,-5.7882,-5.7035,-5.5897,-5.6011,-5.6011,-5.5883,-5.5384,-5.519,-5.515,-5.3845,-5.3282,-5.2874,-5.2554,-5.248,-5.2305,-5.1718,-5.1396,-5.0927,-5.0563,-4.9613,-4.8551,-4.8331,-4.7699,-4.6771,-4.6291,-4.5678,-4.4638,-4.3669,-4.2664,-4.1841,-4.0479,-3.9795,-3.9675,-3.8524,-3.7753,-3.752,-3.6874,-3.6131,-3.5556,-3.4994,-3.466,-3.4375,-3.3792,-3.3167,-3.2639,-3.2162,-3.1467,-3.0544,-3.0677,-3.0587,-3.0113,-2.9997,-3.0091,-3.02,-3.0661,-3.1847,-3.425,-3.384,-3.3093,-3.3121,-3.3644,-3.4613,-3.5456,-3.5773,-3.5659,-3.5424,-3.5455,-3.5474,-3.5479,-3.5369,-3.5339,-3.5643,-3.6527,-3.7107,-3.6824,-3.8478,-3.9956,-3.9665,-3.8874,-3.8922,-3.9425,-3.9637,-3.9661,-3.8867,-3.7839,-3.6346,-3.485,-3.4774,-3.4434,-3.3332,-3.2569,-3.1416,-3.0509,-2.9655,-2.8957,-2.7671,-2.6188,-2.5746,-2.4459,-2.2658,-2.1604,-2.0646,-2.0186,-1.9609,-1.8748,-1.7845,-1.6823,-1.5979,-1.5634,-1.536,-6.0153,-6.0164,-5.9575,-5.8735,-5.7807,-5.7368,-5.6638,-5.5748,-5.5631,-5.5631,-5.5467,-5.5003,-5.4752,-5.4723,-5.3717,-5.3053,-5.269,-5.2165,-5.1812,-5.1599,-5.1264,-5.1123,-5.1052,-5.0886,-5.0076,-4.8568,-4.8012,-4.7489,-4.6981,-4.6524,-4.6015,-4.5358,-4.4175,-4.3139,-4.2395,-4.1071,-4.0402,-4.0093,-3.9335,-3.8597,-3.8168,-3.7774,-3.6987,-3.6251,-3.5592,-3.515,-3.4699,-3.44,-3.3854,-3.3386,-3.3064,-3.242,-3.1371,-3.1408,-3.1051,-3.0127,-3.0727,-3.0513,-3.0383,-3.1134,-3.2702,-3.4936,-3.4493,-3.4051,-3.3724,-3.3812,-3.4116,-3.4765,-3.5198,-3.5495,-3.5281,-3.533,-3.5398,-3.5398,-3.5289,-3.5258,-3.5614,-3.6974,-3.7201,-3.6064,-3.7791,-3.9184,-3.934,-3.8465,-3.7211,-3.7277,-3.9263,-3.9344,-3.8657,-3.7529,-3.5864,-3.4732,-3.4728,-3.4182,-3.2902,-3.1858,-3.0893,-3.0288,-2.9889,-2.9421,-2.8725,-2.7082,-2.5495,-2.4158,-2.2902,-2.135,-2.0472,-2.0055,-1.9477,-1.8452,-1.7519,-1.6699,-1.6035,-1.5566,-1.5371,-5.9836,-5.9679,-5.8855,-5.8206,-5.7583,-5.6868,-5.6274,-5.5634,-5.5329,-5.5242,-5.5034,-5.4261,-5.4183,-5.3835,-5.3262,-5.2602,-5.2057,-5.1503,-5.124,-5.1097,-5.0924,-5.0819,-5.0677,-5.0488,-4.9959,-4.8448,-4.7992,-4.7553,-4.7053,-4.6603,-4.6344,-4.6008,-4.5016,-4.3902,-4.2943,-4.1941,-4.122,-4.0751,-3.9929,-3.9576,-3.9185,-3.8919,-3.8075,-3.7165,-3.6185,-3.5598,-3.5087,-3.4648,-3.4232,-3.3767,-3.3781,-3.3388,-3.2852,-3.2373,-3.2032,-3.0603,-3.177,-3.1522,-3.1065,-3.1989,-3.3466,-3.4737,-3.5095,-3.4827,-3.4194,-3.3972,-3.3955,-3.4116,-3.4558,-3.5326,-3.5226,-3.5273,-3.5285,-3.5285,-3.5242,-3.5209,-3.564,-3.7591,-3.7239,-3.6254,-3.7299,-3.8771,-3.8794,-3.8145,-3.6456,-3.5474,-3.7553,-3.8801,-3.8053,-3.7098,-3.5412,-3.4691,-3.4728,-3.3909,-3.2614,-3.1637,-3.0608,-2.9731,-2.9569,-2.9374,-2.9197,-2.8412,-2.6754,-2.4761,-2.3288,-2.1566,-2.0336,-1.9977,-1.9214,-1.8137,-1.7439,-1.6875,-1.6215,-1.5497,-1.54,-6.0178,-5.9586,-5.9314,-5.881,-5.8159,-5.7492,-5.6708,-5.6003,-5.5436,-5.5018,-5.4755,-5.4686,-5.4458,-5.4223,-5.3758,-5.3055,-5.2369,-5.1628,-5.1193,-5.0979,-5.0689,-5.0359,-5.0328,-5.0,-4.9464,-4.9152,-4.8602,-4.7908,-4.7191,-4.6927,-4.6569,-4.6162,-4.5791,-4.4964,-4.376,-4.2843,-4.2199,-4.1707,-4.0686,-4.0258,-4.0583,-3.9799,-3.8832,-3.7964,-3.6916,-3.6219,-3.5836,-3.5001,-3.437,-3.4238,-3.3767,-3.3579,-3.3414,-3.3198,-3.3205,-3.3313,-3.2768,-3.226,-3.1902,-3.2277,-3.3411,-3.4434,-3.4963,-3.474,-3.4331,-3.4356,-3.4155,-3.3878,-3.4374,-3.516,-3.519,-3.5226,-3.5207,-3.5207,-3.519,-3.5174,-3.547,-3.6307,-3.7178,-3.6138,-3.7202,-3.8136,-3.792,-3.7435,-3.6024,-3.4894,-3.5637,-3.6876,-3.6845,-3.5992,-3.4828,-3.4586,-3.471,-3.3627,-3.236,-3.1449,-3.0485,-2.9174,-2.8761,-2.8701,-2.8717,-2.926,-2.8136,-2.5561,-2.3099,-2.0985,-2.0175,-1.9862,-1.9107,-1.813,-1.7605,-1.7154,-1.6221,-1.5404,-1.5426,-6.0097,-5.9336,-5.9166,-5.8801,-5.8259,-5.7942,-5.7074,-5.605,-5.5678,-5.5154,-5.4644,-5.4494,-5.4385,-5.4218,-5.3977,-5.3404,-5.2561,-5.1485,-5.1055,-5.089,-5.0321,-4.9942,-5.0057,-4.9682,-4.9336,-4.9035,-4.8591,-4.8096,-4.7148,-4.6862,-4.6611,-4.6364,-4.5944,-4.5267,-4.4474,-4.3337,-4.2885,-4.2445,-4.1587,-4.1036,-4.1525,-4.0197,-3.9112,-3.8351,-3.7683,-3.698,-3.6077,-3.5758,-3.4863,-3.4282,-3.393,-3.3791,-3.3661,-3.3692,-3.3831,-3.4336,-3.3815,-3.2951,-3.2616,-3.2882,-3.3995,-3.4543,-3.4831,-3.4794,-3.462,-3.4659,-3.458,-3.4429,-3.4304,-3.5001,-3.5037,-3.5124,-3.5174,-3.5174,-3.5107,-3.5073,-3.519,-3.5703,-3.5797,-3.5843,-3.6341,-3.6825,-3.715,-3.6451,-3.5429,-3.4766,-3.4362,-3.4828,-3.5566,-3.5002,-3.4208,-3.4038,-3.4182,-3.4024,-3.2716,-3.1578,-3.0528,-2.9191,-2.8034,-2.7959,-2.7544,-2.7768,-2.7148,-2.5478,-2.3074,-2.0465,-2.0031,-1.9718,-1.891,-1.8203,-1.7757,-1.7166,-1.6072,-1.542,-1.5483,-6.003,-5.8961,-5.8944,-5.8753,-5.8386,-5.8178,-5.7348,-5.6223,-5.594,-5.5167,-5.4226,-5.4158,-5.4093,-5.3963,-5.3813,-5.3454,-5.2686,-5.1566,-5.1087,-5.06,-5.0172,-4.9812,-4.9666,-4.9563,-4.9296,-4.8673,-4.8488,-4.7874,-4.7241,-4.6702,-4.6482,-4.6283,-4.5676,-4.5276,-4.4865,-4.4029,-4.3441,-4.2889,-4.2386,-4.1832,-4.12,-4.0158,-3.9228,-3.8608,-3.8362,-3.7519,-3.6605,-3.6015,-3.5383,-3.4694,-3.4282,-3.4046,-3.3569,-3.3742,-3.4064,-3.432,-3.4363,-3.3668,-3.3454,-3.3977,-3.4933,-3.5267,-3.4938,-3.4923,-3.502,-3.4983,-3.4907,-3.5072,-3.4908,-3.4831,-3.4927,-3.5037,-3.5372,-3.5639,-3.5342,-3.4927,-3.4964,-3.5078,-3.4936,-3.5057,-3.5299,-3.5535,-3.5856,-3.5658,-3.4686,-3.463,-3.4245,-3.4173,-3.4735,-3.4452,-3.3852,-3.347,-3.3523,-3.4062,-3.3245,-3.1854,-3.0692,-2.9398,-2.809,-2.7372,-2.6529,-2.582,-2.5267,-2.4981,-2.2318,-2.0078,-1.9842,-1.965,-1.9142,-1.8577,-1.8018,-1.7208,-1.6189,-1.5701,-1.5668,-6.027,-5.8857,-5.8857,-5.8841,-5.8771,-5.8185,-5.7376,-5.6449,-5.6038,-5.5056,-5.3849,-5.4028,-5.4028,-5.3783,-5.3584,-5.3143,-5.2615,-5.2041,-5.1274,-5.0515,-5.0158,-4.975,-4.9297,-4.9124,-4.8872,-4.8455,-4.8415,-4.7986,-4.7352,-4.6683,-4.6204,-4.6133,-4.601,-4.5747,-4.512,-4.4611,-4.4232,-4.3381,-4.2713,-4.2021,-4.1267,-4.0388,-4.0008,-3.946,-3.8736,-3.7847,-3.737,-3.6589,-3.5717,-3.5384,-3.492,-3.4041,-3.3138,-3.4225,-3.4263,-3.4032,-3.3876,-3.4176,-3.4267,-3.5049,-3.5988,-3.5969,-3.5375,-3.5184,-3.5362,-3.5188,-3.4946,-3.4889,-3.4764,-3.4645,-3.4829,-3.4908,-3.5723,-3.5988,-3.5742,-3.5154,-3.4927,-3.4908,-3.4713,-3.4476,-3.4814,-3.4581,-3.46,-3.4333,-3.4053,-3.4161,-3.4191,-3.4099,-3.4023,-3.3887,-3.3227,-3.2748,-3.2258,-3.2705,-3.3056,-3.1759,-3.0721,-2.9477,-2.8144,-2.6914,-2.6221,-2.5508,-2.5051,-2.4168,-2.1668,-2.0107,-1.9868,-1.9678,-1.94,-1.8958,-1.8357,-1.7426,-1.6377,-1.6108,-1.6102,-6.0127,-5.8631,-5.8788,-5.8927,-5.8858,-5.8033,-5.7226,-5.6454,-5.5747,-5.4795,-5.3868,-5.3832,-5.3783,-5.3534,-5.3382,-5.2893,-5.2301,-5.1764,-5.0989,-5.0156,-4.9637,-4.9215,-4.8973,-4.8827,-4.8635,-4.8409,-4.8413,-4.8254,-4.7617,-4.6899,-4.6307,-4.5838,-4.5752,-4.5613,-4.5177,-4.4928,-4.4722,-4.4307,-4.3788,-4.2871,-4.202,-4.1447,-4.0874,-4.004,-3.9284,-3.8617,-3.7766,-3.737,-3.6342,-3.5819,-3.5273,-3.4844,-3.4163,-3.4606,-3.5062,-3.579,-3.5278,-3.4934,-3.4567,-3.5399,-3.6448,-3.6896,-3.6081,-3.5154,-3.5726,-3.5515,-3.5438,-3.6272,-3.5995,-3.551,-3.4811,-3.4752,-3.5893,-3.6387,-3.6217,-3.5382,-3.4965,-3.4889,-3.4792,-3.4524,-3.4293,-3.4197,-3.4074,-3.3965,-3.3957,-3.3991,-3.4092,-3.4074,-3.4016,-3.3887,-3.2995,-3.1846,-3.133,-3.1049,-3.1495,-3.1229,-3.0472,-2.9286,-2.7855,-2.6823,-2.63,-2.5716,-2.5114,-2.4253,-2.2547,-2.1245,-2.0245,-1.973,-1.9504,-1.9113,-1.8712,-1.7788,-1.6999,-1.713,-1.6799,-6.0158,-5.8851,-5.8717,-5.8754,-5.8823,-5.7774,-5.6953,-5.6319,-5.5482,-5.4531,-5.3787,-5.3567,-5.3517,-5.3348,-5.3162,-5.2808,-5.2185,-5.1313,-5.0593,-4.9921,-4.917,-4.8735,-4.8534,-4.8513,-4.8413,-4.8279,-4.8348,-4.8031,-4.7612,-4.7266,-4.6574,-4.5646,-4.544,-4.5336,-4.5234,-4.501,-4.4836,-4.4682,-4.4318,-4.3471,-4.2587,-4.2189,-4.1415,-4.0654,-3.9945,-3.9243,-3.8259,-3.7577,-3.679,-3.6253,-3.5821,-3.554,-3.5182,-3.539,-3.6093,-3.6701,-3.653,-3.5793,-3.5432,-3.5789,-3.6989,-3.7396,-3.7173,-3.6118,-3.6861,-3.6152,-3.5616,-3.6873,-3.7604,-3.64,-3.5002,-3.4588,-3.5637,-3.6496,-3.6898,-3.5873,-3.5039,-3.4945,-3.4868,-3.4668,-3.445,-3.4245,-3.4099,-3.3939,-3.386,-3.386,-3.3913,-3.4042,-3.3965,-3.3852,-3.2822,-3.1592,-3.063,-3.0202,-3.037,-3.0439,-2.9792,-2.9169,-2.774,-2.6796,-2.6357,-2.5611,-2.4848,-2.3908,-2.2943,-2.1529,-2.0033,-1.9814,-1.9628,-1.9249,-1.8839,-1.8304,-1.7853,-1.795,-1.7804,-6.0539,-5.9678,-5.8692,-5.849,-5.8719,-5.7617,-5.6728,-5.6065,-5.5348,-5.433,-5.3365,-5.3247,-5.3179,-5.2989,-5.2903,-5.2733,-5.2461,-5.1758,-5.0892,-5.0176,-4.9576,-4.8745,-4.8314,-4.8032,-4.7784,-4.7467,-4.7948,-4.7732,-4.7164,-4.7556,-4.6982,-4.634,-4.5597,-4.5203,-4.5035,-4.5005,-4.4732,-4.461,-4.4285,-4.3769,-4.2877,-4.2311,-4.1763,-4.1332,-4.0367,-3.9473,-3.9457,-3.8308,-3.7352,-3.6913,-3.6508,-3.6177,-3.6006,-3.6173,-3.6784,-3.7126,-3.729,-3.6618,-3.6248,-3.6586,-3.7489,-3.8088,-3.7974,-3.7498,-3.8108,-3.7238,-3.6805,-3.7075,-3.8178,-3.7746,-3.5885,-3.4604,-3.5396,-3.6375,-3.712,-3.7461,-3.6343,-3.4982,-3.4885,-3.4787,-3.4623,-3.4404,-3.4124,-3.3921,-3.3834,-3.3834,-3.378,-3.3887,-3.386,-3.3652,-3.2631,-3.1492,-3.0203,-2.969,-2.9619,-2.9502,-2.9434,-2.9,-2.7938,-2.714,-2.6549,-2.5671,-2.4462,-2.3737,-2.275,-2.1272,-2.0048,-1.9801,-1.9559,-1.9345,-1.9027,-1.8724,-1.8252,-1.805,-1.8276,-6.0775,-6.0398,-5.877,-5.8348,-5.865,-5.7335,-5.6447,-5.5841,-5.4888,-5.3938,-5.3041,-5.3041,-5.2972,-5.2903,-5.2731,-5.2324,-5.1785,-5.1429,-5.0499,-4.962,-4.8892,-4.8414,-4.7951,-4.7721,-4.7572,-4.7506,-4.79,-4.8094,-4.7768,-4.7704,-4.7423,-4.6777,-4.6011,-4.5252,-4.5001,-4.4886,-4.4719,-4.4653,-4.4519,-4.4211,-4.3596,-4.3167,-4.2569,-4.1477,-4.1338,-4.0178,-3.9474,-3.8956,-3.8134,-3.7415,-3.6953,-3.6629,-3.6379,-3.6596,-3.6939,-3.7294,-3.739,-3.7274,-3.7158,-3.7507,-3.8144,-3.845,-3.8493,-3.8449,-3.878,-3.8122,-3.7919,-3.8312,-3.885,-3.8456,-3.8094,-3.5848,-3.4996,-3.6179,-3.7284,-3.8191,-3.7624,-3.6036,-3.4865,-3.4766,-3.4685,-3.4539,-3.4245,-3.3921,-3.386,-3.3807,-3.3753,-3.3698,-3.3689,-3.3515,-3.2585,-3.1365,-3.0091,-2.9453,-2.9386,-2.9307,-2.9246,-2.8701,-2.8138,-2.7558,-2.6833,-2.502,-2.393,-2.329,-2.2628,-2.1325,-2.0335,-1.9801,-1.9577,-1.9562,-1.9529,-1.9398,-1.8878,-1.8306,-1.8431,-6.0664,-6.0378,-5.8625,-5.8188,-5.8388,-5.7103,-5.6305,-5.5702,-5.4555,-5.3536,-5.2764,-5.2764,-5.2694,-5.264,-5.2466,-5.2125,-5.1536,-5.1048,-5.0249,-4.9489,-4.8744,-4.8188,-4.7847,-4.7552,-4.7354,-4.7571,-4.7721,-4.7836,-4.7996,-4.7758,-4.7454,-4.7122,-4.6615,-4.5782,-4.497,-4.4637,-4.4737,-4.4776,-4.4746,-4.4736,-4.4173,-4.3761,-4.3367,-4.2124,-4.1818,-4.1035,-4.0135,-3.964,-3.8955,-3.8138,-3.7439,-3.6853,-3.662,-3.6654,-3.7032,-3.7193,-3.7415,-3.7658,-3.7756,-3.8507,-3.8806,-3.8597,-3.888,-3.8797,-3.8731,-3.8707,-3.8481,-3.8603,-3.9137,-3.9389,-3.9227,-3.7234,-3.5421,-3.6343,-3.8233,-3.9123,-3.8139,-3.6798,-3.5555,-3.4706,-3.4792,-3.5023,-3.4288,-3.3965,-3.386,-3.3807,-3.378,-3.3689,-3.3538,-3.3257,-3.2711,-3.1414,-2.995,-2.9525,-2.924,-2.9178,-2.9097,-2.8872,-2.8346,-2.8011,-2.7065,-2.5248,-2.3961,-2.3553,-2.2719,-2.1425,-2.0826,-2.0536,-2.021,-1.99,-1.9919,-1.9949,-1.9456,-1.8901,-1.8656,-6.0301,-5.9549,-5.8366,-5.8044,-5.8103,-5.6976,-5.6196,-5.5562,-5.4401,-5.3328,-5.2428,-5.2324,-5.2269,-5.2214,-5.2125,-5.1882,-5.1661,-5.1113,-5.051,-4.9975,-4.8962,-4.8313,-4.7928,-4.7619,-4.7391,-4.73,-4.7568,-4.7835,-4.8001,-4.7835,-4.7616,-4.7298,-4.6908,-4.633,-4.5236,-4.4623,-4.453,-4.4737,-4.4626,-4.4563,-4.4449,-4.3952,-4.3508,-4.2949,-4.2343,-4.1613,-4.1035,-4.0088,-3.9477,-3.903,-3.8187,-3.7356,-3.6384,-3.7483,-3.7819,-3.7469,-3.7755,-3.78,-3.7598,-3.939,-3.9679,-3.9059,-3.9454,-3.9094,-3.8797,-3.8707,-3.8658,-3.8689,-3.9054,-3.879,-3.8588,-3.839,-3.7057,-3.7009,-3.8917,-3.9467,-3.8503,-3.7901,-3.6716,-3.5114,-3.5379,-3.5632,-3.4717,-3.4053,-3.386,-3.3807,-3.3807,-3.3689,-3.3481,-3.3216,-3.2802,-3.1536,-3.0112,-2.9538,-2.9237,-2.9058,-2.8925,-2.8778,-2.8558,-2.8168,-2.7427,-2.6002,-2.4914,-2.407,-2.3099,-2.2054,-2.1672,-2.138,-2.1004,-2.064,-2.0547,-2.043,-1.9941,-1.9567,-1.9344,-5.9677,-5.9281,-5.8186,-5.7808,-5.792,-5.7335,-5.6471,-5.5316,-5.3874,-5.2715,-5.2263,-5.2158,-5.2142,-5.2086,-5.1924,-5.1851,-5.1712,-5.1516,-5.1027,-5.0286,-4.941,-4.8699,-4.8269,-4.7987,-4.7648,-4.7371,-4.7492,-4.7746,-4.7687,-4.7803,-4.7737,-4.7505,-4.7204,-4.6533,-4.579,-4.5236,-4.4992,-4.4949,-4.4687,-4.4406,-4.4463,-4.426,-4.3922,-4.3411,-4.2878,-4.2388,-4.1774,-4.0658,-3.9952,-3.9831,-3.9054,-3.8125,-3.7343,-3.8333,-3.8608,-3.8646,-3.8974,-3.8909,-3.9506,-4.0775,-4.135,-4.0699,-3.986,-3.9257,-3.8518,-3.8632,-3.8645,-3.867,-3.895,-3.8804,-3.8904,-3.9133,-3.8483,-3.8544,-3.9564,-3.9626,-3.9113,-3.8812,-3.7948,-3.5968,-3.5333,-3.5745,-3.5317,-3.4223,-3.3879,-3.378,-3.3753,-3.3661,-3.3452,-3.335,-3.3045,-3.171,-3.0448,-2.9712,-2.9234,-2.9028,-2.879,-2.8617,-2.8434,-2.8201,-2.7328,-2.637,-2.5263,-2.4124,-2.3471,-2.2828,-2.2345,-2.1884,-2.168,-2.1453,-2.1276,-2.0875,-2.0322,-2.0153,-2.0119,-5.9304,-5.8649,-5.7938,-5.7662,-5.7735,-5.7364,-5.6378,-5.4924,-5.3307,-5.2285,-5.2086,-5.203,-5.1941,-5.1868,-5.1704,-5.1631,-5.1647,-5.1483,-5.1327,-5.0603,-4.9924,-4.9151,-4.8635,-4.8401,-4.778,-4.7405,-4.7545,-4.7883,-4.7468,-4.7716,-4.7933,-4.7852,-4.7506,-4.722,-4.6599,-4.6074,-4.557,-4.5529,-4.532,-4.5177,-4.5076,-4.4865,-4.4609,-4.4131,-4.3698,-4.3297,-4.229,-4.1261,-4.0234,-4.0307,-3.985,-3.9223,-3.8993,-3.9058,-3.9416,-3.9722,-3.9767,-3.9739,-4.0366,-4.1283,-4.1766,-4.1953,-4.0668,-3.9409,-3.8518,-3.8409,-3.8469,-3.8578,-3.8815,-3.8913,-3.9027,-3.9354,-3.9533,-3.9521,-3.9583,-3.962,-3.9564,-3.9226,-3.8995,-3.6996,-3.5941,-3.6152,-3.6021,-3.4733,-3.3807,-3.3753,-3.3716,-3.3595,-3.3481,-3.3397,-3.3103,-3.188,-3.0803,-3.0089,-2.9427,-2.8964,-2.8712,-2.8445,-2.82,-2.7926,-2.7427,-2.6469,-2.5321,-2.4205,-2.3419,-2.2807,-2.2643,-2.2349,-2.1951,-2.1854,-2.1881,-2.1371,-2.073,-2.0598,-2.061,-5.9343,-5.7796,-5.7588,-5.7588,-5.7497,-5.7064,-5.5913,-5.4361,-5.2937,-5.2125,-5.1794,-5.1794,-5.1721,-5.1515,-5.1333,-5.1333,-5.1499,-5.1333,-5.121,-5.0881,-5.0236,-4.9464,-4.9004,-4.8769,-4.8248,-4.758,-4.7583,-4.8031,-4.746,-4.8034,-4.8397,-4.8374,-4.8117,-4.7819,-4.7386,-4.6899,-4.6341,-4.628,-4.6006,-4.5855,-4.5738,-4.5471,-4.5235,-4.4889,-4.4541,-4.4007,-4.3086,-4.2105,-4.1452,-4.105,-4.0493,-4.0457,-4.0434,-4.037,-4.0238,-4.0114,-4.0054,-4.0209,-4.0491,-4.1429,-4.1821,-4.2015,-4.1457,-4.0002,-3.8811,-3.8259,-3.8307,-3.8451,-3.8634,-3.8755,-3.8892,-3.9202,-3.9527,-3.9552,-3.9602,-3.962,-3.962,-3.9545,-3.9526,-3.8627,-3.7754,-3.7411,-3.6999,-3.5873,-3.4816,-3.378,-3.3726,-3.3633,-3.3509,-3.3441,-3.3031,-3.2141,-3.1173,-3.0422,-2.9782,-2.9042,-2.8388,-2.8034,-2.7718,-2.7414,-2.6954,-2.6337,-2.4976,-2.3876,-2.3165,-2.273,-2.2563,-2.2313,-2.2023,-2.2015,-2.2141,-2.1758,-2.105,-2.0919,-2.0821,-5.9008,-5.8345,-5.7657,-5.7439,-5.7345,-5.5929,-5.4576,-5.3519,-5.2538,-5.1941,-5.1573,-5.1721,-5.1631,-5.1515,-5.1258,-5.1333,-5.1333,-5.1333,-5.1258,-5.0962,-5.059,-5.0091,-4.9791,-4.962,-4.9074,-4.8537,-4.8329,-4.8505,-4.8518,-4.8816,-4.8826,-4.8707,-4.8544,-4.8348,-4.7935,-4.7635,-4.7265,-4.6878,-4.6524,-4.6374,-4.6135,-4.5738,-4.5572,-4.5336,-4.4845,-4.4305,-4.3833,-4.3111,-4.2489,-4.195,-4.1358,-4.1052,-4.0421,-4.0372,-4.0305,-4.0121,-4.0257,-4.0521,-4.0896,-4.1296,-4.1613,-4.1813,-4.1659,-4.0466,-3.912,-3.8192,-3.8207,-3.8322,-3.8433,-3.8559,-3.8683,-3.8931,-3.9283,-3.9476,-3.9527,-3.962,-3.962,-3.962,-3.962,-3.9346,-3.8483,-3.788,-3.7526,-3.7647,-3.6523,-3.477,-3.3753,-3.3643,-3.3549,-3.3481,-3.2705,-3.1844,-3.1038,-3.0152,-2.9665,-2.9007,-2.8222,-2.7603,-2.7296,-2.697,-2.6603,-2.5812,-2.45,-2.3537,-2.2877,-2.2579,-2.2453,-2.2271,-2.2249,-2.2177,-2.2216,-2.1824,-2.1466,-2.1132,-2.0845,-5.8472,-5.7985,-5.7415,-5.6897,-5.617,-5.4858,-5.3651,-5.2704,-5.2121,-5.1721,-5.1499,-5.1631,-5.1557,-5.135,-5.1258,-5.1258,-5.1333,-5.1258,-5.1183,-5.1199,-5.0972,-5.0349,-5.0177,-5.0229,-4.9609,-4.9138,-4.8948,-4.9022,-4.9087,-4.9157,-4.9164,-4.9112,-4.8902,-4.838,-4.7952,-4.7671,-4.7556,-4.729,-4.7054,-4.6836,-4.6483,-4.6046,-4.5801,-4.5462,-4.4858,-4.4411,-4.4406,-4.372,-4.3359,-4.2494,-4.1697,-4.107,-4.0458,-4.0255,-4.0255,-4.0171,-4.0336,-4.0625,-4.0972,-4.1202,-4.1391,-4.1411,-4.1241,-3.9713,-3.8795,-3.7934,-3.8072,-3.8189,-3.8256,-3.8387,-3.8496,-3.8634,-3.9007,-3.9354,-3.9476,-3.9596,-3.962,-3.962,-3.9539,-3.9421,-3.8864,-3.8212,-3.8109,-3.849,-3.8267,-3.6615,-3.4899,-3.3753,-3.3633,-3.3509,-3.2389,-3.1156,-3.0432,-2.9691,-2.9313,-2.8953,-2.8188,-2.7479,-2.6964,-2.6615,-2.6254,-2.5642,-2.4682,-2.3593,-2.2569,-2.2519,-2.2651,-2.2662,-2.2633,-2.2573,-2.2431,-2.2014,-2.1424,-2.0721,-2.0485,-5.7933,-5.712,-5.7004,-5.6112,-5.4568,-5.4135,-5.3121,-5.186,-5.1647,-5.1573,-5.1499,-5.1573,-5.1483,-5.1258,-5.1199,-5.1183,-5.1183,-5.1183,-5.1199,-5.1199,-5.1048,-5.0618,-5.0381,-5.0294,-4.9993,-4.9459,-4.9138,-4.9383,-4.9176,-4.9426,-4.9756,-4.9578,-4.8957,-4.839,-4.7786,-4.7537,-4.7439,-4.7407,-4.7391,-4.7342,-4.7308,-4.6845,-4.6038,-4.5735,-4.4823,-4.3989,-4.4179,-4.4097,-4.3986,-4.2675,-4.1711,-4.1172,-4.0459,-4.0087,-4.007,-4.0121,-4.0288,-4.0534,-4.0806,-4.1041,-4.13,-4.0936,-4.0027,-3.8778,-3.7969,-3.7953,-3.8106,-3.8054,-3.8122,-3.8223,-3.8354,-3.8419,-3.8652,-3.9036,-3.9275,-3.9451,-3.9596,-3.9596,-3.9558,-3.9477,-3.9339,-3.8644,-3.8114,-3.8395,-3.7805,-3.7195,-3.6337,-3.4577,-3.3521,-3.336,-3.2202,-3.0711,-2.9984,-2.9439,-2.9272,-2.8833,-2.8134,-2.7482,-2.6853,-2.6371,-2.6033,-2.5524,-2.4953,-2.3763,-2.2655,-2.2856,-2.2975,-2.2948,-2.2947,-2.3077,-2.2805,-2.2285,-2.1549,-2.0615,-2.0162,-5.8157,-5.7786,-5.7066,-5.5928,-5.4518,-5.4043,-5.3088,-5.1827,-5.1408,-5.1258,-5.1333,-5.1483,-5.1483,-5.1183,-5.1048,-5.1048,-5.1108,-5.1032,-5.1124,-5.1124,-5.1124,-5.0951,-5.0758,-5.0566,-5.0378,-5.0246,-5.0016,-4.9727,-4.9821,-5.0221,-5.0237,-4.966,-4.9066,-4.8462,-4.7535,-4.7319,-4.7251,-4.7199,-4.7115,-4.7302,-4.749,-4.6518,-4.5673,-4.5363,-4.4654,-4.3898,-4.3948,-4.4112,-4.3867,-4.3128,-4.2528,-4.1562,-4.0256,-4.0071,-3.9986,-4.0087,-4.0087,-4.0288,-4.0583,-4.0853,-4.118,-4.0954,-4.0053,-3.8513,-3.7764,-3.8026,-3.8124,-3.802,-3.802,-3.8122,-3.8207,-3.8241,-3.834,-3.8683,-3.9064,-3.9328,-3.9552,-3.9577,-3.9577,-3.9577,-3.9577,-3.9121,-3.8454,-3.7819,-3.7193,-3.6746,-3.6351,-3.5172,-3.358,-3.2845,-3.1955,-3.0632,-2.9692,-2.921,-2.9113,-2.888,-2.8247,-2.7492,-2.6827,-2.6346,-2.5882,-2.4903,-2.4056,-2.3547,-2.2904,-2.3058,-2.3127,-2.3119,-2.3199,-2.3253,-2.2833,-2.2145,-2.1445,-2.0541,-2.0098,-5.7603,-5.7399,-5.6707,-5.5699,-5.4576,-5.4251,-5.3248,-5.1917,-5.1408,-5.1108,-5.1108,-5.1258,-5.1333,-5.1183,-5.0972,-5.0912,-5.1048,-5.0972,-5.0896,-5.0956,-5.1108,-5.1108,-5.0956,-5.0743,-5.0618,-5.0506,-5.0314,-5.0181,-5.0451,-5.0267,-4.9985,-4.943,-4.8985,-4.8215,-4.7297,-4.703,-4.6892,-4.677,-4.6545,-4.6722,-4.7006,-4.5799,-4.4964,-4.4644,-4.4113,-4.3558,-4.3772,-4.3898,-4.3742,-4.312,-4.232,-4.1392,-4.0341,-4.0003,-3.9833,-3.9781,-3.9833,-4.0037,-4.0387,-4.068,-4.0977,-4.0732,-4.001,-3.843,-3.7114,-3.7337,-3.7881,-3.7846,-3.7916,-3.8038,-3.7985,-3.802,-3.8174,-3.8483,-3.8921,-3.9256,-3.9458,-3.9596,-3.9596,-3.9596,-3.9464,-3.9052,-3.8371,-3.7549,-3.6849,-3.5758,-3.5459,-3.5515,-3.403,-3.2783,-3.1708,-3.0535,-2.9609,-2.9154,-2.908,-2.8858,-2.8504,-2.7705,-2.6925,-2.6313,-2.5728,-2.4257,-2.3144,-2.3716,-2.3762,-2.3143,-2.3205,-2.3235,-2.3059,-2.2985,-2.2492,-2.1904,-2.1151,-2.0444,-1.9901,-5.6636,-5.6541,-5.6244,-5.5472,-5.4616,-5.4414,-5.3539,-5.2137,-5.1431,-5.1253,-5.1355,-5.1237,-5.1124,-5.1124,-5.0972,-5.0912,-5.0836,-5.0743,-5.0666,-5.0727,-5.0956,-5.0956,-5.082,-5.0682,-5.0589,-5.0589,-5.0493,-5.0631,-5.0783,-5.036,-4.9708,-4.9118,-4.8317,-4.741,-4.6948,-4.6668,-4.6528,-4.6474,-4.6317,-4.6308,-4.5672,-4.4809,-4.4431,-4.3927,-4.3293,-4.2932,-4.3355,-4.3614,-4.3564,-4.311,-4.223,-4.117,-4.0426,-3.9986,-3.9677,-3.959,-3.9746,-3.9935,-4.0238,-4.0534,-4.0681,-4.0474,-3.9521,-3.845,-3.7119,-3.6895,-3.7449,-3.7739,-3.781,-3.7881,-3.7846,-3.7916,-3.8106,-3.834,-3.8755,-3.9156,-3.938,-3.9552,-3.9596,-3.9596,-3.9346,-3.8977,-3.8434,-3.7572,-3.647,-3.5311,-3.476,-3.4779,-3.4463,-3.3473,-3.2441,-3.0902,-2.9539,-2.9215,-2.913,-2.898,-2.8737,-2.8182,-2.7446,-2.657,-2.571,-2.4843,-2.4649,-2.5399,-2.5228,-2.3761,-2.3322,-2.3343,-2.3114,-2.2807,-2.2156,-2.1554,-2.0764,-2.0089,-1.9527,-5.6385,-5.6149,-5.5927,-5.5499,-5.4874,-5.4579,-5.3964,-5.3095,-5.1853,-5.1858,-5.2349,-5.1347,-5.082,-5.1005,-5.0743,-5.0743,-5.0836,-5.0666,-5.0589,-5.065,-5.0727,-5.0743,-5.0666,-5.0512,-5.0434,-5.0356,-5.0434,-5.0666,-5.0723,-5.0156,-4.9538,-4.9094,-4.8023,-4.7261,-4.6759,-4.6506,-4.6413,-4.6239,-4.6072,-4.6064,-4.5501,-4.4902,-4.4621,-4.4026,-4.3394,-4.3111,-4.3174,-4.3476,-4.3764,-4.3591,-4.279,-4.1493,-4.0544,-3.9935,-3.9694,-3.952,-3.9642,-3.9729,-3.9986,-4.0337,-4.0456,-3.8865,-3.8126,-3.8285,-3.73,-3.6781,-3.7226,-3.754,-3.7649,-3.781,-3.7846,-3.7969,-3.814,-3.8354,-3.8725,-3.8989,-3.921,-3.9406,-3.9552,-3.9546,-3.9471,-3.9296,-3.9121,-3.8072,-3.6817,-3.5768,-3.4918,-3.4857,-3.4524,-3.3804,-3.3138,-3.1269,-2.9477,-2.9344,-2.928,-2.9197,-2.8989,-2.8494,-2.7853,-2.6792,-2.6125,-2.5983,-2.6029,-2.6083,-2.5163,-2.3697,-2.35,-2.3312,-2.2987,-2.2552,-2.1854,-2.1156,-2.0407,-1.9789,-1.923]},{"header":{"parameterUnit":"m.s-1","parameterCategory":1,"la1":31.0,"la2":29.5877,"lo1":-88.7671,"lo2":-86.6584,"dy":0.0162,"dx":0.0185,"nx":115,"ny":88,"refTime":"2024-05-22T00:00:00:Z","depth":0,"parameterNumber":3,"parameterNumberName":"V-component_of_WINDS"},"data":[0.0,0.0,0.0,0.0,0.0,0.0,0.0,0.0,0.0,0.0,0.0,0.0,0.0,0.0,0.0,0.0,0.0,0.0,0.0,0.0,0.0,0.0,0.0,0.0,0.0,0.0,0.0,0.0,0.0,0.0,0.0,0.0,0.0,0.0,0.0,0.0,0.0,0.0,0.0,0.0,0.0,0.0,0.0,0.0,0.0,0.0,0.0,0.0,0.0,0.0,0.0,0.0,0.0,0.0,0.0,0.0,0.0,0.0,0.0,0.0,0.0,0.0,0.0,0.0,0.0,0.0,0.0,0.0,0.0,0.0,0.0,0.0,0.0,0.0,0.0,0.0,0.0,0.0,0.0,0.0,0.0,0.0,0.0,0.0,0.0,0.0,0.0,0.0,0.0,0.0,0.0,0.0,0.0,0.0,0.0,0.0,0.0,0.0,0.0,0.0,0.0,0.0,0.0,0.0,0.0,0.0,0.0,0.0,0.0,0.0,0.0,0.0,0.0,0.0,0.0,0.0,0.0,0.0,0.0,0.0,0.0,0.0,0.0,0.0,0.0,0.0,0.0,0.0,0.0,0.0,0.0,0.0,0.0,0.0,0.0,0.0,0.0,0.0,0.0,0.0,0.0,0.0,0.0,0.0,0.0,0.0,0.0,0.0,0.0,0.0,0.0,0.0,0.0,0.0,0.0,0.0,0.0,0.0,0.0,0.0,0.0,0.0,0.0,0.0,0.0,0.0,0.0,0.0,0.0,0.0,0.0,0.0,0.0,0.0,0.0,0.0,0.0,0.0,0.0,0.0,0.0,0.0,0.0,0.0,0.0,0.0,0.0,0.0,0.0,0.0,0.0,0.0,0.0,0.0,0.0,0.0,0.0,0.0,0.0,0.0,0.0,0.0,0.0,0.0,0.0,0.0,0.0,0.0,0.0,0.0,0.0,0.0,0.0,0.0,0.0,0.0,0.0,0.0,0.0,0.0,0.0,0.0,0.0,0.0,0.0,0.0,0.0,0.0,0.0,0.0,0.0,0.0,0.0,0.0,0.0,0.0,0.0,0.0,0.0,0.0,0.0,0.0,0.0,0.0,0.0,0.0,0.0,0.0,0.0,0.0,0.0,0.0,0.0,0.0,0.0,0.0,0.0,0.0,0.0,0.0,0.0,0.0,0.0,0.0,0.0,0.0,0.0,0.0,0.0,0.0,0.0,0.0,0.0,0.0,0.0,0.0,0.0,0.0,0.0,0.0,0.0,0.0,0.0,0.0,0.0,0.0,0.0,0.0,0.0,0.0,0.0,0.0,0.0,0.0,0.0,0.0,0.0,0.0,0.0,0.0,0.0,0.0,0.0,0.0,0.0,0.0,0.0,0.0,0.0,0.0,0.0,0.0,0.0,0.0,0.0,0.0,0.0,0.0,0.0,0.0,0.0,0.0,0.0,0.0,0.0,0.0,0.0,0.0,0.0,0.0,0.0,0.0,0.0,0.0,0.0,0.0,0.0,0.0,0.0,0.0,0.0,0.0,0.0,0.0,0.0,0.0,0.0,0.0,0.0,0.0,0.0,0.0,0.0,0.0,0.0,0.0,0.0,0.0,0.0,0.0,0.0,0.0,0.0,0.0,0.0,0.0,0.0,0.0,0.0,0.0,0.0,0.0,0.0,0.0,0.0,0.0,0.0,0.0,0.0,0.0,0.0,0.0,0.0,0.0,0.0,0.0,0.0,0.0,0.0,0.0,0.0,0.0,0.0,0.0,0.0,0.0,0.0,0.0,0.0,0.0,0.0,0.0,0.0,0.0,0.0,0.0,0.0,0.0,0.0,0.0,0.0,0.0,0.0,0.0,0.0,0.0,0.0,0.0,0.0,0.0,0.0,0.0,0.0,0.0,0.0,0.0,0.0,0.0,0.0,0.0,0.0,0.0,0.0,0.0,0.0,0.0,0.0,0.0,0.0,0.0,0.0,0.0,0.0,0.0,0.0,0.0,0.0,0.0,0.0,0.0,0.0,0.0,0.0,0.0,0.0,0.0,0.0,0.0,0.0,0.0,0.0,0.0,0.0,0.0,0.0,0.0,0.0,0.0,0.0,0.0,0.0,0.0,0.0,0.0,0.0,0.0,0.0,0.0,0.0,0.0,0.0,0.0,0.0,0.0,0.0,0.0,0.0,0.0,0.0,0.0,0.0,0.0,0.0,0.0,0.0,0.0,0.0,0.0,0.0,0.0,0.0,0.0,0.0,0.0,0.0,0.0,0.0,0.0,0.0,0.0,0.0,0.0,0.0,0.0,0.0,0.0,0.0,0.0,0.0,0.0,0.0,0.0,0.0,0.0,0.0,0.0,0.0,0.0,0.0,0.0,0.0,0.0,0.0,0.0,0.0,0.0,0.0,0.0,0.0,0.0,0.0,0.0,0.0,0.0,0.0,0.0,0.0,0.0,0.0,0.0,0.0,0.0,0.0,0.0,0.0,0.0,0.0,0.0,0.0,0.0,0.0,0.0,0.0,0.0,0.0,0.0,0.0,0.0,0.0,0.0,0.0,0.0,0.0,0.0,0.0,0.0,0.0,0.0,0.0,0.0,0.0,0.0,0.0,0.0,0.0,0.0,0.0,0.0,0.0,0.0,0.0,0.0,0.0,0.0,0.0,0.0,0.0,0.0,0.0,0.0,0.0,0.0,0.0,0.0,0.0,0.0,0.0,0.0,0.0,0.0,0.0,0.0,0.0,0.0,0.0,0.0,0.0,0.0,0.0,0.0,0.0,0.0,0.0,0.0,0.0,0.0,0.0,0.0,0.0,0.0,0.0,0.0,0.0,0.0,0.0,0.0,0.0,0.0,0.0,0.0,0.0,0.0,0.0,0.0,0.0,0.0,0.0,0.0,0.0,0.0,0.0,0.0,0.0,0.0,0.0,0.0,0.0,0.0,0.0,0.0,0.0,0.0,0.0,0.0,0.0,0.0,0.0,0.0,0.0,0.0,0.0,0.0,0.0,0.0,0.0,0.0,0.0,0.0,0.0,0.0,0.0,0.0,0.0,0.0,0.0,0.0,0.0,0.0,0.0,0.0,0.0,0.0,0.0,0.0,0.0,0.0,0.0,0.0,0.0,0.0,0.0,0.0,0.0,0.0,0.0,0.0,0.0,0.0,0.0,0.0,0.0,0.0,0.0,0.0,0.0,0.0,0.0,0.0,0.0,0.0,0.0,0.0,0.0,0.0,0.0,0.0,0.0,0.0,0.0,0.0,0.0,0.0,0.0,0.0,0.0,0.0,0.0,0.0,0.0,0.0,0.0,0.0,0.0,0.0,0.0,0.0,0.0,0.0,0.0,0.0,0.0,0.0,0.0,0.0,0.0,0.0,0.0,0.0,0.0,0.0,0.0,0.0,0.0,0.0,0.0,0.0,0.0,0.0,0.0,0.0,0.0,0.0,0.0,0.0,0.0,0.0,0.0,0.0,0.0,0.0,0.0,0.0,0.0,0.0,0.0,0.0,0.0,0.0,0.0,0.0,0.0,0.0,0.0,0.0,0.0,0.0,0.0,0.0,0.0,0.0,0.0,0.0,0.0,0.0,0.0,0.0,0.0,0.0,0.0,0.0,0.0,0.0,0.0,0.0,0.0,0.0,0.0,0.0,0.0,0.0,0.0,0.0,0.0,0.0,0.0,0.0,0.0,0.0,0.0,0.0,0.0,0.0,0.0,0.0,0.0,0.0,0.0,0.0,0.0,0.0,0.0,0.0,0.0,0.0,0.0,0.0,0.0,0.0,0.0,0.0,0.0,0.0,0.0,0.0,0.0,0.0,0.0,0.0,0.0,0.0,0.0,0.0,0.0,0.0,0.0,0.0,0.0,0.0,0.0,0.0,0.0,0.0,0.0,0.0,0.0,0.0,0.0,0.0,0.0,0.0,0.0,0.0,0.0,0.0,0.0,0.0,0.0,0.0,0.0,0.0,0.0,0.0,0.0,0.0,0.0,0.0,0.0,0.0,0.0,0.0,0.0,0.0,0.0,0.0,0.0,0.0,0.0,0.0,0.0,0.0,0.0,0.0,0.0,0.0,0.0,0.0,0.0,0.0,0.0,0.0,0.0,0.0,0.0,0.0,0.0,0.0,0.0,0.0,0.0,0.0,0.0,0.0,0.0,0.0,0.0,0.0,0.0,0.0,0.0,0.0,0.0,0.0,0.0,0.0,0.0,0.0,0.0,0.0,0.0,0.0,0.0,0.0,0.0,0.0,0.0,0.0,0.0,0.0,0.0,0.0,0.0,0.0,0.0,0.0,0.0,0.0,0.9625,0.0,0.0,0.0,0.0,0.0,0.0,0.0,0.0,0.0,0.0,0.0,0.0,0.0,0.0,0.0,0.0,0.0,0.0,0.0,0.0,0.0,0.0,0.0,0.0,0.0,0.0,0.0,0.0,0.0,0.0,0.0,0.0,0.0,0.0,0.0,0.0,0.0,0.0,0.0,0.0,0.0,0.0,0.0,0.0,0.0,0.0,0.0,0.0,0.0,0.0,0.0,0.0,0.0,0.0,0.0,0.0,0.0,0.0,0.0,0.0,0.0,0.0,0.0,0.0,0.0,0.0,0.0,0.0,0.0,0.0,0.0,0.0,0.0,0.0,0.0,0.0,0.0,0.0,0.0,0.0,0.0,0.0,0.0,0.0,0.0,0.0,0.0,0.0,0.0,0.0,0.0,0.0,0.0,0.0,0.0,0.0,0.0,0.0,0.0,0.0,0.0,0.0,0.0,0.0,0.0,0.0,0.0,0.0,0.0,0.0,0.9846,0.9218,1.0251,1.051,0.9885,0.0,0.0,0.0,0.0,0.0,0.0,0.0,0.0,0.0,0.0,0.0,0.0,0.0,0.0,0.0,0.0,0.0,0.0,0.0,0.0,0.0,0.0,0.0,0.0,0.0,0.0,0.0,0.0,0.0,0.0,0.0,0.0,0.0,0.0,0.0,0.0,0.0,0.0,0.0,0.0,0.0,0.0,0.0,0.0,0.0,0.0,0.0,0.0,0.0,0.0,0.0,0.0,0.0,0.0,0.0,0.0,0.0,0.0,0.0,0.0,0.0,0.0,0.0,0.0,0.0,0.0,0.0,0.0,0.0,0.0,0.0,0.0,0.0,0.0,0.0,0.0,0.0,0.0,0.0,0.0,0.0,0.0,0.0,0.0,0.0,0.0,0.0,0.0,0.0,0.0,0.0,0.0,0.0,0.0,0.0,0.0,0.0,0.0,0.0,0.0,0.0,0.0,0.0,0.0,0.0,0.0,0.0,0.0,0.0,0.0,0.0,0.0,1.0029,1.0392,1.0116,0.0,0.0,0.0,0.0,0.0,0.0,0.0,0.0,0.0,0.0,0.0,0.0,0.0,0.0,0.0,0.0,0.0,0.0,0.0,0.0,0.0,0.0,0.0,0.0,0.0,0.0,0.0,0.0,0.0,0.0,0.0,0.0,0.0,0.0,0.0,0.0,0.0,0.0,0.0,0.0,0.0,0.0,0.0,0.0,0.0,0.0,0.0,0.0,0.0,0.0,0.0,0.0,0.0,0.0,0.0,0.0,0.0,0.0,0.0,0.0,0.0,0.0,0.0,0.0,0.0,0.0,0.0,0.0,0.0,0.0,0.0,0.0,0.0,0.0,0.0,0.0,0.0,0.0,0.0,0.0,0.0,0.0,0.0,0.0,0.0,0.0,0.0,0.0,0.0,0.0,0.0,0.0,0.0,0.0,0.0,0.0,0.0,0.0,0.0,0.0,0.0,0.0,0.0,0.0,0.0,0.0,0.0,0.0,0.0,0.0,0.9307,0.928,0.9792,0.0,0.9677,0.0,0.0,0.0,0.0,0.0,0.0,0.0,0.0,0.0,0.0,0.0,0.0,0.0,0.0,0.0,0.0,0.0,0.0,0.0,0.0,0.0,0.0,0.0,0.0,0.0,0.0,0.0,0.0,0.0,0.0,0.0,0.0,0.0,0.0,0.0,0.0,0.0,0.0,0.0,0.0,0.0,0.0,0.0,0.0,0.0,0.0,0.0,0.0,0.0,0.0,0.0,0.0,0.0,0.0,0.0,0.0,0.0,0.0,0.0,0.0,0.0,0.0,0.0,0.0,0.0,0.0,0.0,0.0,0.0,0.0,0.0,0.0,0.0,0.0,0.0,0.0,0.0,0.0,0.0,0.0,0.0,0.0,0.0,0.0,0.0,0.0,0.0,0.0,0.0,0.0,0.0,0.0,0.0,0.0,0.0,0.0,0.0,0.0,0.0,0.0,0.0,0.0,0.0,0.0,0.0,0.0,0.0,0.0,0.0,0.0,0.0,0.9008,0.9227,0.9524,0.0,0.0,0.0,0.0,0.0,0.0,0.0,0.0,0.0,0.0,0.0,0.0,0.0,0.0,0.0,0.0,0.0,0.0,0.0,0.0,0.0,0.0,0.0,0.0,0.0,0.0,0.0,0.0,0.0,0.0,0.0,0.0,0.0,0.0,0.0,0.0,0.0,0.0,0.0,0.0,0.0,0.0,0.0,0.0,0.0,0.0,0.0,0.0,0.0,0.0,0.0,0.0,0.0,0.0,0.0,0.0,0.0,0.0,0.0,0.0,0.0,0.0,0.0,0.0,0.0,0.0,0.0,0.0,0.0,0.0,0.0,0.0,0.0,0.0,0.0,0.0,0.0,0.0,0.0,0.0,0.0,0.0,0.0,0.0,0.0,0.0,0.0,0.0,0.0,0.0,0.0,0.0,0.0,0.0,0.0,0.0,0.0,0.0,0.0,0.0,0.0,0.0,0.0,0.0,0.0,0.0,0.0,0.0,0.0,0.0,0.8987,0.0,0.8919,0.9003,0.9179,0.9387,0.0,0.0,0.0,0.0,0.0,0.0,0.0,0.0,0.0,0.0,0.0,0.0,0.0,0.0,0.0,0.0,0.0,0.0,0.0,0.0,0.0,0.0,0.0,0.0,0.0,0.0,0.0,0.0,0.0,0.0,0.0,0.0,0.0,0.0,0.0,0.0,0.0,0.0,0.0,0.0,0.0,0.0,0.0,0.0,0.0,0.0,0.0,0.0,0.0,0.0,0.0,0.0,0.0,0.0,0.0,0.0,0.0,0.0,0.0,0.0,0.0,0.0,0.0,0.0,0.0,0.0,0.0,0.0,0.0,0.0,0.0,0.0,0.0,0.0,0.0,0.0,0.0,0.0,0.0,0.0,0.0,0.0,0.0,0.0,0.0,0.0,0.0,0.0,0.0,0.0,0.0,0.0,0.0,0.0,0.0,0.0,0.0,0.0,0.0,0.0,0.0,0.0,0.0,0.0,0.0,0.0,0.0,0.0,0.0,0.9197,0.9355,0.9109,0.9319,0.8941,0.0,0.0,0.0,0.0,0.0,0.0,0.0,0.0,0.0,0.0,0.0,0.0,0.0,0.0,0.0,0.0,0.0,0.0,0.0,0.0,0.0,0.0,0.0,0.0,0.0,0.0,0.0,0.0,0.0,0.0,0.0,0.0,0.0,0.0,0.0,0.0,0.0,0.0,0.0,0.0,0.0,0.0,0.0,0.0,0.0,0.0,0.0,0.0,0.0,0.0,0.0,0.0,0.0,0.0,0.0,0.0,0.0,0.0,0.0,0.0,0.0,0.0,0.0,0.0,0.0,0.0,0.0,0.0,0.0,0.0,0.0,0.0,0.0,0.0,0.0,0.0,0.0,0.0,0.0,0.0,0.0,0.0,0.0,0.0,0.0,0.0,0.0,0.0,0.0,0.0,0.0,0.0,0.0,0.0,0.0,0.0,0.0,0.0,0.0,0.0,0.0,0.0,0.0,0.0,0.0,0.0,0.0,0.0,0.0,0.9223,0.9554,0.9605,0.0,0.9259,0.8902,0.0,0.0,0.0,0.0,0.0,0.0,0.0,0.0,0.0,0.0,0.0,0.0,0.0,0.0,0.0,0.0,0.0,0.0,0.0,0.0,0.0,0.0,0.0,0.0,0.0,0.0,0.0,0.0,0.0,0.0,0.0,0.0,0.0,0.0,0.0,0.0,0.0,0.0,0.0,0.0,0.0,0.0,0.0,0.0,0.0,0.0,0.0,0.0,0.0,0.0,0.0,0.0,0.0,0.0,0.0,0.0,0.0,0.0,0.0,0.0,0.0,0.0,0.0,0.0,0.0,0.0,0.0,0.0,0.0,0.0,0.0,0.0,0.0,0.0,0.0,0.0,0.0,0.0,0.0,0.0,0.0,0.0,0.0,0.0,0.0,0.0,0.0,0.0,0.0,0.0,0.0,0.0,0.0,0.0,0.0,0.0,0.0,0.0,0.0,0.0,0.0,0.0,0.0,0.0,0.0,0.0,0.0,0.0,0.0,0.903,0.0,0.9334,0.0,0.8878,0.8525,0.0,0.0,0.0,0.0,0.0,0.0,0.0,0.0,0.0,0.0,0.0,0.0,0.0,0.0,0.0,0.0,0.0,0.0,0.0,0.0,0.0,0.0,0.0,0.0,0.0,0.0,0.0,0.0,0.0,0.0,0.0,0.0,0.0,0.0,0.0,0.0,0.0,0.0,0.0,0.0,0.0,0.0,0.0,0.0,0.0,0.0,0.0,0.0,0.0,0.0,0.0,0.0,0.0,0.0,0.0,0.0,0.0,0.0,0.0,0.0,0.0,0.0,0.0,0.0,0.0,0.0,0.0,0.0,0.0,0.0,0.0,0.0,0.0,0.0,0.0,0.0,0.0,0.0,0.0,0.0,0.0,0.0,0.0,0.0,0.0,0.0,0.0,0.0,0.0,0.0,0.0,0.0,0.0,0.0,0.0,0.0,0.0,0.0,0.0,0.0,0.0,0.0,0.0,0.0,0.0,0.0,0.0,0.0,0.6213,0.7821,0.8319,0.8576,0.852,0.8272,0.7798,0.0,0.0,0.0,0.0,0.0,0.0,0.0,0.0,0.0,0.0,0.0,0.0,0.0,0.0,0.0,0.0,0.0,0.0,0.0,0.0,0.0,0.0,0.0,0.0,0.0,0.0,0.0,0.0,0.0,0.0,0.0,0.0,0.0,0.0,0.0,0.0,0.0,0.0,0.0,0.0,0.0,0.0,0.0,0.0,0.0,0.0,0.0,0.0,0.0,0.0,0.0,0.0,0.0,0.0,0.0,0.0,0.0,0.0,0.0,0.0,0.0,0.0,0.0,0.0,0.0,0.0,0.0,0.0,0.0,0.0,0.0,0.0,0.0,0.0,0.0,0.0,0.0,0.0,0.0,0.0,0.0,0.0,0.0,0.0,0.0,0.0,0.0,0.0,0.0,0.0,0.0,0.0,0.0,0.0,0.0,0.0,0.0,0.0,0.0,0.0,0.0,0.0,0.0,0.0,0.0,0.0,0.0,0.0,0.0,0.6785,0.8111,0.8953,0.9303,0.9268,0.9108,0.0,0.0,0.0,0.0,0.0,0.0,0.0,0.0,0.0,0.0,0.0,0.0,0.0,0.0,0.0,0.0,0.0,0.0,0.0,0.0,0.0,0.0,0.0,0.0,0.0,0.0,0.0,0.0,0.0,0.0,0.0,0.0,0.0,0.0,0.0,0.0,0.0,0.0,0.0,0.0,0.0,0.0,0.0,0.0,0.0,0.0,0.0,0.0,0.0,0.0,0.0,0.0,0.0,0.0,0.0,0.0,0.0,0.0,0.0,0.0,0.0,0.0,0.0,0.0,0.0,0.0,0.0,0.0,0.0,0.0,0.0,0.0,0.0,0.0,0.0,0.0,0.0,0.0,0.0,0.0,0.0,0.0,0.0,0.0,0.0,0.0,0.0,0.0,0.0,0.0,0.0,0.0,0.0,0.0,0.0,0.0,0.0,0.0,0.0,0.0,0.0,0.0,0.0,0.0,0.0,0.0,0.0,0.0,0.0,0.5249,0.7453,0.8898,0.9586,0.9983,1.0058,0.9797,0.0,0.0,0.0,0.0,0.0,0.0,0.0,0.0,0.0,0.0,0.0,0.0,0.0,0.0,0.0,0.0,0.0,0.0,0.0,0.0,0.0,0.0,0.0,0.0,0.0,0.0,0.0,0.0,0.0,0.0,0.0,0.0,0.0,0.0,0.0,0.0,0.0,0.0,0.0,0.0,0.0,0.0,0.0,0.0,0.0,0.0,0.0,0.0,0.0,0.0,0.0,0.0,0.0,0.0,0.0,0.0,0.0,0.0,0.0,0.0,0.0,0.0,0.0,0.0,0.0,0.0,0.0,0.0,0.0,0.0,0.0,0.0,0.0,0.0,0.0,0.0,0.0,0.0,0.0,0.0,0.0,0.0,0.0,0.0,0.0,0.0,0.0,0.0,0.0,0.0,0.0,0.0,0.0,0.0,0.0,0.0,0.0,0.0,0.0,0.0,0.0,0.0,0.0,0.0,0.0,0.0,0.0,0.0,0.3429,0.6437,0.8494,0.9506,1.0418,1.0651,0.0,0.0,0.0,0.0,0.0,0.0,0.0,0.0,0.0,0.0,0.0,0.0,0.0,0.0,0.0,0.0,0.0,0.0,0.0,0.0,0.0,0.0,0.0,0.0,0.0,0.0,0.0,0.0,0.0,0.0,0.0,0.0,0.0,0.0,0.0,0.0,0.0,0.0,0.0,0.0,0.0,0.0,0.0,0.0,0.0,0.0,0.0,0.0,0.0,0.0,0.0,0.0,0.0,0.0,0.0,0.0,0.0,0.0,0.0,0.0,0.0,0.0,0.0,0.0,0.0,0.0,0.0,0.0,0.0,0.0,0.0,0.0,0.0,0.0,0.0,0.0,0.0,0.0,0.0,0.0,0.0,0.0,0.0,0.0,0.0,0.0,0.0,0.0,0.0,0.0,0.0,0.0,0.0,0.0,0.0,0.0,0.0,0.0,0.0,0.0,0.0,0.0,0.0,0.0,0.0,0.0,0.0,0.0,0.0,0.3081,0.6396,0.9051,1.0949,1.14,1.1589,0.0,0.0,0.0,0.0,0.0,0.0,0.0,0.0,0.0,0.0,0.0,0.0,0.0,0.0,0.0,0.0,0.0,0.0,0.0,0.0,0.0,0.0,0.0,0.0,0.0,0.0,0.0,0.0,0.0,0.0,0.0,0.0,0.0,0.0,0.0,0.0,0.0,0.0,0.0,0.0,0.0,0.0,0.0,0.0,0.0,0.0,0.0,0.0,0.0,0.0,0.0,0.0,0.0,0.0,0.0,0.0,0.0,0.0,0.0,0.0,0.0,0.0,0.0,0.0,0.0,0.0,0.0,0.0,0.0,0.0,0.0,0.0,0.0,0.0,0.0,0.0,0.0,0.0,0.0,0.0,0.0,0.0,0.0,0.0,0.0,0.0,0.0,0.0,0.0,0.0,0.0,0.0,0.0,0.0,0.0,0.0,0.0,0.0,0.0,0.0,0.0,0.0,0.0,0.0,0.0,0.0,0.0,0.0,0.1643,0.309,0.642,0.9357,1.1826,1.2505,1.2576,0.0,0.0,0.0,0.0,0.0,0.0,0.0,0.0,0.0,0.0,0.0,0.0,0.0,0.0,0.0,0.0,0.0,0.0,0.0,0.0,0.0,0.0,0.0,0.0,0.0,0.0,0.0,0.0,0.0,0.0,0.0,0.0,0.0,0.0,0.0,0.0,0.0,0.0,0.0,0.0,0.0,0.0,0.0,0.0,0.0,0.0,0.0,0.0,0.0,0.0,0.0,0.0,0.0,0.0,0.0,0.0,0.0,0.0,0.0,0.0,0.0,0.0,0.0,0.0,0.0,0.0,0.0,0.0,0.0,0.0,0.0,0.0,0.0,0.0,0.0,0.0,0.0,0.0,0.0,0.0,0.0,0.0,0.0,0.0,0.0,0.0,0.0,0.0,0.0,0.0,0.0,0.0,0.0,0.0,0.0,0.0,0.0,0.0,0.0,0.0,0.0,0.0,0.0,0.0,0.0,0.0,0.0,0.0,0.1576,0.3242,0.6506,0.9467,1.2064,1.346,1.3577,0.0,0.0,0.0,0.0,0.0,0.0,0.0,0.0,0.0,0.0,0.0,0.0,0.0,0.0,0.0,0.0,0.0,0.0,0.0,0.0,0.0,0.0,0.0,0.0,0.0,0.0,0.0,0.0,0.0,0.0,0.0,0.0,0.0,0.0,0.0,0.0,0.0,0.0,0.0,0.0,0.0,0.0,0.0,0.0,0.0,0.0,0.0,0.0,0.0,0.0,0.0,0.0,0.0,0.0,0.0,0.0,0.0,0.0,0.0,0.0,0.0,0.0,0.0,0.0,0.0,0.0,0.0,0.0,0.0,0.0,0.0,0.0,0.0,0.0,0.0,0.0,0.0,0.0,0.0,0.0,0.0,0.0,0.0,0.0,0.0,0.0,0.0,0.0,0.0,0.0,0.0,0.0,0.0,0.0,0.0,0.0,0.0,0.0,0.0,0.0,0.0,0.0,0.0,0.0,0.0,0.0,0.0,0.0,0.0875,0.28,0.6275,0.9334,1.1743,1.3701,1.4112,0.0,0.0,0.0,0.0,0.0,0.0,0.0,0.0,0.0,0.0,0.0,0.0,0.0,0.0,0.0,0.0,0.0,0.0,0.0,0.0,0.0,0.0,0.0,0.0,0.0,0.0,0.0,0.0,0.0,0.0,0.0,0.0,0.0,0.0,0.0,0.0,0.0,0.0,0.0,0.0,0.0,0.0,0.0,0.0,0.0,0.0,0.0,0.0,-0.2916,0.0,0.0,0.0,0.0,0.0,0.0,0.0,0.0,0.0,0.0,0.0,0.0,0.0,0.0,0.0,0.0,0.0,0.0,0.0,0.0,0.0,0.0,0.0,0.0,0.0,0.0,0.0,0.0,0.0,0.0,0.0,0.0,0.0,0.0,0.0,0.0,0.0,0.0,0.0,0.0,0.0,0.0,0.0,0.0,0.0,0.0,0.0,0.0,0.0,0.0,0.0,0.0,0.0,0.0,0.0,0.0,0.0,0.0,0.0,0.0528,0.2591,0.6079,0.9152,1.1786,1.4212,1.4718,0.0,0.0,0.0,0.0,0.0,0.0,0.0,0.0,0.0,0.0,0.0,0.0,0.0,0.0,0.0,0.0,0.0,0.0,0.0,0.0,0.0,0.0,0.0,0.0,0.0,0.0,0.0,0.0,0.0,0.0,0.0,0.0,0.0,0.0,0.0,0.0,0.0,0.0,0.0,0.0,0.0,0.0,0.0,0.0,0.0,0.0,0.0,0.0,0.0,0.0,0.0,0.0,0.0,0.0,0.0,0.0,0.0,0.0,0.0,0.0,0.0,0.0,0.0,0.0,0.0,0.0,0.0,0.0,0.0,0.0,0.0,0.0,0.0,0.0,0.0,0.0,0.0,0.0,0.0,0.0,0.0,0.0,0.0,0.0,0.0,0.0,0.0,0.0,0.0,0.0,0.0,0.0,0.0,0.0,0.0,0.0,0.0,0.0,0.0,0.0,0.0,0.0,0.0,0.0,0.0,0.0,0.0,-0.1341,0.0236,0.2439,0.5844,0.9025,1.1875,1.4456,1.4962,1.3243,0.0,0.0,0.0,0.0,0.0,0.0,0.0,0.0,0.0,0.0,0.0,0.0,0.0,0.0,0.0,0.0,0.0,0.0,0.0,0.0,0.0,0.0,0.0,0.0,0.0,0.0,0.0,0.0,0.0,0.0,0.0,0.0,0.0,0.0,0.0,0.0,0.0,0.0,-0.4969,-0.1677,0.0,0.0,0.0,0.0,0.0,0.0,0.0,0.0,0.0232,0.0,0.0,0.0,0.0,0.0,0.0,0.0,0.0,0.0,0.0,0.0,0.0,0.0,0.0,0.0,0.0,0.0,0.0,0.0,0.0,0.0,0.0,0.0,0.0,0.0,0.0,0.0,0.0,0.0,0.0,0.0,0.0,0.0,0.0,0.0,0.0,0.0,0.0,0.0,0.0,0.0,0.0,0.0,0.0,0.0,0.0,0.0,0.0,0.0,0.0,0.0,0.0,0.0,0.0,0.0,0.0,-0.2934,-0.1644,0.0059,0.2386,0.562,0.8756,1.1626,1.3223,1.385,1.3494,0.0,0.0,0.0,0.0,0.0,0.0,0.0,0.0,0.0,0.0,0.0,0.0,0.0,0.0,0.0,0.0,0.0,0.0,0.0,0.0,0.0,0.0,0.0,0.0,0.0,0.0,0.0,0.0,0.0,0.0,0.0,0.0,0.0,0.0,0.0,0.0,0.0,0.0,0.0,-0.2031,-0.0086,0.0,0.0,0.0,0.0,0.0,0.0,0.0,0.0,-0.1374,0.0,0.0,0.0,0.0,0.0,0.0,0.0,0.0,0.0,0.0,0.0,0.0,0.0,0.0,0.0,0.0,0.0,0.0,0.0,0.0,0.0,0.0,0.0,0.0,0.0,0.0,0.0,0.0,0.0,0.0,0.0,0.0,0.0,0.0,0.0,0.0,0.0,0.0,0.0,0.0,0.0,0.0,0.0,0.0,0.0,0.0,0.0,0.0,0.0,0.0,0.0,0.0,0.0,0.0,0.0,-0.2762,-0.1849,-0.0244,0.1991,0.4969,0.7966,1.0844,1.2199,1.2987,0.0,0.0,0.0,0.0,0.0,0.0,0.0,0.0,0.0,0.0,0.0,0.0,0.0,0.0,0.0,0.0,0.0,0.0,0.0,0.0,0.0,0.0,0.0,0.0,0.0,0.0,0.0,0.0,0.0,0.0,0.0,0.0,0.0,0.0,0.0,0.0,0.0,0.0,0.0,0.0,-0.3301,-0.1619,-0.0187,0.0,0.0,0.0,0.0,0.0,0.0,-0.3571,-0.1811,0.0,0.0,0.0,0.0,0.0,0.0,0.0,0.0,0.0,0.0,0.0,0.0,0.0,0.0,0.0,0.0,0.0,0.0,0.0,0.0,0.0,0.0,0.0,0.0,0.0,0.0,0.0,0.0,0.0,0.0,0.0,0.0,0.0,0.0,0.0,0.0,0.0,0.0,0.0,0.0,0.0,0.0,0.0,0.0,0.0,0.0,0.0,0.0,0.0,0.0,0.0,0.0,0.0,0.0,0.0,-0.2518,-0.175,-0.0314,0.1742,0.4496,0.7228,0.997,1.1501,1.2384,0.0,0.0,0.0,0.0,0.0,0.0,0.0,0.0,0.0,0.0,0.0,0.0,0.0,0.0,0.0,0.0,0.0,0.0,0.0,0.0,0.0,0.0,0.0,0.0,0.0,0.0,0.0,0.0,0.0,0.0,0.0,0.0,0.0,0.0,0.0,0.0,0.0,0.0,0.0,0.0,0.0,-0.326,-0.0928,-0.0263,0.0,0.0,0.0,0.0,-0.1953,-0.2162,0.0,0.0,0.0,0.0,0.0,0.0,0.0,0.0,0.0,0.0,0.0,0.0,0.0,0.0,0.0,0.0,0.0,0.0,0.0,0.0,0.0,0.0,0.0,0.0,0.0,0.0,0.0,0.0,0.0,0.0,0.0,0.0,0.0,0.0,0.0,0.0,0.0,0.0,0.0,0.0,0.0,0.0,0.0,0.0,0.0,0.0,0.0,0.0,0.0,0.0,0.0,0.0,0.0,0.0,0.0,0.0,-0.2115,-0.1017,0.0497,0.2409,0.4998,0.725,0.9083,1.1297,1.2203,0.0,0.0,0.0,0.0,0.0,0.0,0.0,0.0,0.0,0.0,0.0,0.0,0.0,0.0,0.0,0.0,0.0,0.0,0.0,0.0,0.0,0.0,0.0,0.0,0.0,0.0,0.0,0.0,0.0,0.0,0.0,0.0,0.0,0.0,0.0,0.0,0.0,0.0,0.0,0.0,0.0,-0.3737,-0.2693,-0.1096,-0.0697,0.0,0.0,-0.2421,-0.2284,-0.1322,0.0,0.0,0.0,0.0,0.0,0.0,0.0,0.0,0.0,0.0,0.0,0.0,0.0,0.0,0.0,0.0,0.0,0.0,0.0,0.0,0.0,0.0,0.0,0.0,0.0,0.0,0.0,0.0,0.0,0.0,0.0,0.0,0.0,0.0,0.0,0.0,0.0,0.0,0.0,0.0,0.0,0.0,0.0,0.0,0.0,0.0,0.0,0.0,0.0,0.0,0.0,0.0,0.0,0.0,0.0,-0.2358,-0.2083,-0.0987,0.0383,0.1973,0.4156,0.6036,0.7717,0.9115,1.0094,0.0,0.0,0.0,0.0,0.0,0.0,0.0,0.0,0.0,0.0,0.0,0.0,0.0,0.0,0.0,0.0,0.0,0.0,0.0,0.0,0.0,0.0,0.0,0.0,0.0,0.0,0.0,0.0,0.0,0.0,0.0,0.0,0.0,0.0,0.0,0.0,0.0,0.0,0.0,0.0,0.0,0.0,-0.4818,-0.342,0.0,0.0,0.0,-0.3937,-0.2875,0.0,0.0,0.0,0.0,0.0,0.0,0.0,0.0,0.0,0.0,0.0,0.0,0.0,0.0,0.0,0.0,0.0,0.0,0.0,0.0,0.0,0.0,0.0,0.0,0.0,0.0,0.0,0.0,0.0,0.0,0.0,0.0,0.0,0.0,0.0,0.0,0.0,0.0,0.0,0.0,0.0,0.0,0.0,0.0,0.0,0.0,0.0,0.0,0.0,0.0,0.0,0.0,0.0,0.0,0.0,0.0,0.0,-0.187,-0.0792,0.0399,0.1712,0.348,0.5054,0.6411,0.7399,0.0,0.0,0.0,0.0,0.0,0.0,0.0,0.0,0.0,0.0,0.0,0.0,0.0,0.0,0.0,0.0,0.0,0.0,0.0,0.0,0.0,0.0,0.0,0.0,0.0,0.0,0.0,0.1277,0.0,0.0,0.0,0.0,0.0,0.0,0.0,0.0,0.0,0.0,0.0,0.0,0.0,0.0,-0.5232,-0.6091,-0.5442,-0.4997,0.0,0.0,-0.5302,-0.3949,-0.2796,-0.1737,0.0,0.0,0.0,0.0,0.0,0.0,0.0,0.0,0.0,0.0,0.0,0.0,0.0,0.0,0.0,0.0,0.0,0.0,0.0,0.0,0.0,0.0,0.0,0.0,0.0,0.0,0.0,0.0,0.0,0.0,0.0,0.0,0.0,0.0,0.0,0.0,0.0,0.0,0.0,0.0,0.0,0.0,0.0,0.0,0.0,0.0,0.0,0.0,0.0,0.0,0.0,0.0,0.0,0.0,0.0,-0.1269,-0.0065,0.1055,0.2169,0.3674,0.4776,0.5421,0.7283,0.8018,0.0,0.0,0.0,0.0,0.0,0.0,0.0,0.0,0.0,0.0,0.0,0.0,0.0,0.0,0.0,0.0,0.0,0.0,0.0,0.0,0.0,0.0,0.0,0.0,0.0,0.0,0.0,0.0,0.0,0.0,0.0,0.0,0.0,0.0,0.0,0.0,0.0,0.0,0.0,0.0,0.0,-0.4839,-0.5864,-0.6378,-0.6644,0.0,0.0,-0.6134,-0.584,-0.4679,-0.3466,-0.2509,0.0,0.0,0.0,0.0,0.0,0.0,0.0,0.0,0.0,0.0,0.0,0.0,0.0,0.0,0.0,0.0,0.0,0.0,0.0,0.0,0.0,0.0,0.0,0.0,0.0,0.0,0.0,0.0,0.0,0.0,0.0,0.0,0.0,0.0,0.0,0.0,0.0,0.0,0.0,0.0,0.0,0.0,0.0,0.0,0.0,0.0,0.0,0.0,0.0,0.0,0.0,0.0,0.0,-0.1118,-0.0879,0.0462,0.1658,0.2691,0.3579,0.4414,0.5243,0.6271,0.688,0.0,0.0,0.0,0.0,0.0,0.0,0.0,0.0,0.0,0.0,0.0,0.0,0.0,0.0,0.0,0.0,0.0,0.0,0.0,0.0,0.0,0.0,0.0,0.0,0.0,0.0,0.0,0.0,0.3426,0.4083,0.4914,0.0,0.0,0.0,0.0,0.0,0.0,0.0,0.0,0.0,0.0,-0.5383,-0.5928,-0.6603,0.0,0.0,-0.6641,-0.6507,-0.6602,-0.6005,-0.5175,-0.4153,-0.3907,0.0,0.0,0.0,0.0,0.0,0.0,0.0,0.0,0.0,0.0,0.0,0.0,0.0,0.0,0.0,0.0,0.0,0.0,0.0,0.0,0.0,0.0,0.0,0.0,0.0,0.0,0.0,0.0,0.0,0.0,0.0,0.0,0.0,0.0,0.0,0.0,0.0,0.0,0.0,0.0,0.0,0.0,0.0,0.0,0.0,0.0,0.0,0.0,0.0,0.0,0.0,0.0,-0.0732,-0.0499,0.081,0.1917,0.302,0.3375,0.3995,0.4868,0.5226,0.5609,0.0,0.0,0.0,0.0,0.0,0.0,0.0,0.0,0.0,0.0,0.0,0.0,0.0,0.0,0.0,0.0,0.0,0.0,0.0,0.0,0.0,0.0,0.0,0.0,0.0,0.0,0.0,0.0,0.3511,0.3876,0.4902,0.0,0.0,0.0,0.0,0.0,0.0,0.0,0.0,0.0,0.0,-0.5817,-0.6001,-0.6454,-0.694,-0.7389,-0.7093,-0.686,-0.6915,-0.6807,-0.6395,-0.5467,0.0,0.0,0.0,0.0,0.0,0.0,0.0,0.0,0.0,0.0,0.0,0.0,0.0,0.0,0.0,0.0,0.0,0.0,0.0,0.0,0.0,0.0,0.0,0.0,0.0,0.0,0.0,0.0,0.0,0.0,0.283,0.0,0.0,0.0,0.0,0.0,0.0,0.0,0.0,0.0,0.0,0.0,0.0,0.0,0.0,0.0,0.0,0.0,0.0,0.0,0.0,0.0,0.0,-0.0573,0.0,0.0849,0.1891,0.2948,0.3099,0.3478,0.4298,0.4225,0.4151,0.4282,0.0,0.0,0.0,0.0,0.0,0.0,0.0,0.0,0.0,0.0,0.0,0.0,0.0,0.0,0.0,0.0,0.0,0.0,0.0,0.0,0.0,0.0,0.0,0.0,0.0,0.0,0.4912,0.4653,0.4582,0.0,0.0,0.0,0.0,0.0,0.0,0.0,0.0,0.0,0.0,-0.5783,-0.5871,-0.6055,-0.5977,-0.6633,-0.8607,-0.8024,-0.7217,-0.6748,-0.7011,-0.7068,0.0,0.0,0.0,0.0,0.0,0.0,0.0,0.0,0.0,0.0,0.0,0.0,0.0,0.0,0.0,0.0,0.0,0.0,0.0,0.0,0.0,0.0,0.0,0.0,0.0,0.0,0.0,0.7998,0.6927,0.0,0.0,0.0,0.0,0.0,0.0,0.0,0.0,0.0,0.0,0.0,0.3261,0.4121,0.0,0.0,0.0,0.0,0.0,0.0,0.0,0.0,0.0,0.0,0.0,0.0,0.0113,0.0698,0.1454,0.2249,0.3023,0.3028,0.3381,0.4043,0.3944,0.379,0.3648,0.0,0.0,0.0,0.0,0.0,0.0,0.0,0.0,0.0,0.0,0.0,0.0,0.0,0.0,0.0,0.0,0.0,0.0,0.0,0.0,0.0,0.0,0.0,0.0,0.0,0.4465,0.0,0.0,0.0,0.0,0.0,0.0,0.0,0.0,0.0,0.0,0.0,-0.4758,-0.4899,-0.5447,-0.5899,-0.6109,-0.6665,-0.7214,0.0,0.0,0.0,0.0,0.0,0.0,0.0,0.0,0.0,0.0,0.0,0.0,0.0,0.0,-0.6946,-0.646,-0.4247,-0.2772,-0.395,0.0,0.0,0.0,0.0,0.0,0.0,0.0,0.0,0.0,0.0,0.0,0.0,0.0,0.0,0.995,0.0,0.898,0.0,0.0,0.0,0.0,0.0,0.0,0.0,0.0,0.4305,0.4772,0.4527,0.5094,0.5215,0.0,0.5018,0.4944,0.0,0.0,0.0,0.0,0.0,0.0,0.0,0.0,0.084,0.1328,0.1931,0.251,0.3214,0.3142,0.3364,0.4003,0.3629,0.3258,0.2982,0.3128,0.3287,0.0,0.0,0.0,0.0,0.0,0.0,0.0,0.0,0.0,0.0,0.0,0.0,0.0,0.0,0.0,0.0,0.0,0.0,0.0,0.0,0.0,0.0,0.0,0.407,0.0,0.0,0.0,0.0,0.0,0.0,0.0,0.0,0.0,-0.3774,-0.4306,-0.4496,-0.4442,-0.4961,-0.5557,-0.6213,0.0,0.0,0.0,0.0,0.0,0.0,0.0,-0.6696,-0.6974,-0.7296,-0.7446,-0.7175,-0.7153,-0.7517,-0.8627,0.0,0.0,-0.788,-0.6477,-0.5544,-0.5913,-0.5868,-0.6042,-0.6794,-0.7236,-0.778,0.0,0.0,0.0,0.0,0.0,0.0,0.0,0.0,1.1566,1.1566,0.0,1.0644,0.0,0.0,0.0,0.0,0.0,0.4859,0.0,0.0,0.6205,0.6441,0.6062,0.6664,0.693,0.68,0.6763,0.6379,0.557,0.4148,0.0,0.0,0.0,0.0,0.0,0.0,0.1634,0.2039,0.2198,0.2668,0.3446,0.3295,0.3509,0.3977,0.3179,0.254,0.2199,0.2218,0.2368,0.2651,0.392,0.0,0.0,0.0,0.0,0.0,0.0,0.0,0.0,0.0,0.0,0.0,0.0,0.0,0.0,0.0,0.0,0.0,0.0,0.0,0.0,0.2673,0.0,0.0,0.0,0.0,0.0,0.0,0.0,0.0,0.0,0.0,-0.4555,-0.4252,-0.3986,-0.4258,0.0,0.0,0.0,0.0,-0.456,-0.4576,-0.5332,-0.6234,-0.7272,-0.689,-0.6699,-0.7393,0.0,0.0,-0.7461,-0.8149,-0.8912,-0.9533,-0.9622,-0.9219,-0.8026,-0.7635,-0.7359,-0.6955,-0.6825,-0.6899,-0.7044,-0.7432,-0.7893,1.1906,0.0,0.0,0.0,0.0,1.2314,1.3132,1.3973,1.4641,1.4358,1.3295,1.262,0.0,0.0,0.0,0.0,0.0,0.0,0.5909,0.5742,0.6452,0.6724,0.6556,0.6741,0.6777,0.6681,0.6711,0.6554,0.6287,0.5711,0.4706,0.3454,0.0,0.0,0.0,0.0,0.2701,0.288,0.2997,0.295,0.2824,0.2758,0.2622,0.2477,0.2097,0.1677,0.1294,0.1314,0.1483,0.1849,0.2668,0.0,0.0,0.0,0.0,0.0,0.0,0.0,0.0,0.0,0.0,0.0,0.0,0.0,0.0,0.0,0.0,0.0,0.0,0.0,0.199,0.1884,0.1799,0.0,0.0,0.0,0.0,0.0,0.0,0.0,0.0,0.0,-0.3309,-0.3644,-0.3889,0.0,0.0,-0.4527,-0.4899,-0.4684,-0.4737,-0.5273,0.0,0.0,0.0,-0.6984,-0.7116,-0.6752,-0.702,-0.7377,-0.7702,-0.7996,-0.8594,-0.9972,-0.988,-0.9482,-0.9124,-0.8267,-0.757,-0.7151,-0.6884,-0.6929,-0.7319,-0.7594,-0.8,1.3778,1.2852,1.2644,1.2937,1.3578,1.4378,1.5134,1.6003,1.6247,1.5962,1.5252,1.4372,1.3188,1.1578,0.9823,0.0,0.0,0.0,0.7269,0.7087,0.7286,0.7305,0.7127,0.7092,0.705,0.6998,0.6858,0.6834,0.6834,0.6662,0.5969,0.4859,0.0,0.0,0.398,0.3587,0.3521,0.3644,0.3195,0.2863,0.2589,0.2504,0.2282,0.194,0.1522,0.119,0.0931,0.0656,0.0708,0.1118,0.151,0.1925,0.0,0.0,0.0,0.0,0.0,0.0,0.0,0.0,0.0,0.0,0.0,0.1301,0.0,0.0,0.0,0.0,0.3086,0.1379,-0.0546,0.0505,0.0,0.0,0.0,0.0,0.0,0.0,0.0,-0.1728,-0.1999,-0.2305,-0.2561,-0.3005,-0.3296,-0.3413,-0.3765,-0.3987,-0.394,0.0,-0.4706,-0.5149,-0.5186,-0.5414,-0.6077,-0.6612,-0.6865,-0.6777,-0.7108,-0.7654,-0.827,-0.8326,-0.8798,-0.9987,-0.9932,-0.9465,-0.9562,-0.8779,-0.7953,-0.7503,-0.71,-0.705,-0.7611,-0.7721,-0.8047,1.5071,1.5399,1.4602,1.4852,1.5624,1.6,1.658,1.7385,1.6787,1.6796,1.6968,1.5896,1.4641,1.3167,1.1025,0.0,0.9312,0.9103,0.8874,0.8825,0.8233,0.796,0.7807,0.7665,0.7612,0.7461,0.7307,0.7139,0.7139,0.7139,0.7004,0.6809,0.5867,0.5423,0.5392,0.4507,0.4178,0.4373,0.318,0.2592,0.2737,0.239,0.2101,0.1996,0.1391,0.0962,0.0738,0.0245,0.0091,0.0457,0.0435,0.0937,0.2008,0.0,0.0,0.0,0.0,0.0,0.0,0.0,0.0,0.0,0.0,0.0,0.0,0.0,0.0,0.0,-0.0201,0.0,-0.3428,-0.1088,0.0,0.0,0.0,-0.2091,-0.279,-0.1821,-0.1078,-0.1082,0.0,0.0,-0.2315,0.0,-0.2512,-0.3084,-0.3388,-0.3497,-0.3228,-0.3898,-0.4419,-0.4591,-0.4567,-0.4875,-0.574,-0.595,-0.6292,-0.7187,-0.7668,-0.808,-0.8817,-0.8876,-0.9211,-0.9991,-0.9629,-0.9211,-0.9458,-0.9011,-0.8525,-0.8007,-0.7506,-0.7265,-0.7814,-0.7848,-0.8129,1.4936,1.5047,1.5362,1.5843,1.6495,1.6985,1.7274,1.7408,1.7218,1.7083,1.6997,1.6034,1.4687,1.3217,1.2353,1.1438,1.0259,0.9486,0.8992,0.8726,0.8237,0.8062,0.8104,0.7949,0.7891,0.7916,0.7752,0.7764,0.7676,0.7676,0.7724,0.7556,0.7119,0.6498,0.5949,0.5246,0.4785,0.4786,0.3632,0.277,0.2064,0.1631,0.132,0.0938,0.0803,0.0365,-0.0282,-0.0476,-0.0562,-0.0602,-0.0537,-0.0088,0.0809,0.0797,0.0,0.0,0.0,0.0,0.0,0.0,0.0,0.0,0.0,0.0371,-0.1569,0.0,-0.1214,0.0,-0.1507,-0.3194,-0.2589,-0.1246,0.0,0.0,-0.1975,-0.1963,-0.2339,-0.1626,-0.1162,-0.114,-0.1104,-0.1605,-0.2838,-0.2591,-0.2358,-0.2636,-0.3048,-0.3339,-0.3353,-0.3462,-0.3931,-0.4864,-0.4952,-0.4731,-0.4643,-0.5286,-0.6217,-0.7312,-0.7502,-0.767,-0.8158,-0.8362,-0.848,-0.8533,-0.858,-0.8685,-0.8917,-0.8666,-0.845,-0.84,-0.8105,-0.7946,-0.8222,-0.8077,-0.83,1.5418,1.5332,1.6252,1.6832,1.7221,1.7629,1.7804,1.7833,1.77,1.7247,1.6756,1.5693,1.4364,1.3018,1.2685,1.1971,1.095,0.9854,0.9327,0.9126,0.8336,0.8062,0.8204,0.7949,0.798,0.8098,0.7934,0.7944,0.7944,0.7944,0.7944,0.7937,0.7602,0.7176,0.6757,0.5888,0.5347,0.5195,0.3854,0.2734,0.1791,0.1542,0.1241,0.079,0.0689,0.0264,-0.0371,-0.053,-0.071,-0.0895,-0.0881,-0.0696,-0.0426,-0.0253,-0.0405,0.0,0.0,0.0,0.0,0.0,0.0,0.0,0.0,0.0,0.0,0.0,-0.3283,-0.1668,-0.3225,-0.4049,-0.3439,-0.2485,-0.2039,-0.2448,-0.219,-0.2071,-0.2207,-0.1547,-0.111,-0.1271,-0.1177,-0.1504,-0.2173,-0.168,-0.1598,-0.2345,-0.2695,-0.2809,-0.2697,-0.309,-0.3695,-0.433,-0.4935,-0.5115,-0.4584,-0.5399,-0.6236,-0.6653,-0.7195,-0.7537,-0.7626,-0.8237,-0.8714,-0.8658,-0.8545,-0.8392,-0.8347,-0.8467,-0.8508,-0.8575,-0.863,-0.8571,-0.8493,-0.8502,-0.8869,1.6121,1.5948,1.6992,1.7637,1.8005,1.8018,1.8157,1.8342,1.796,1.73,1.6318,1.5106,1.3968,1.2891,1.2546,1.2016,1.1405,1.0207,0.9628,0.9628,0.8535,0.815,0.8176,0.8033,0.7969,0.8072,0.8012,0.794,0.794,0.794,0.794,0.7937,0.779,0.771,0.7588,0.6558,0.5752,0.5143,0.3781,0.267,0.1753,0.1745,0.1435,0.0957,0.0762,0.0384,-0.0048,-0.0377,-0.0638,-0.0803,-0.0901,-0.1097,-0.1456,-0.1492,-0.1747,0.0,-0.1507,0.0,0.0,0.0,0.0,0.0,0.0,0.0,0.0,-0.3856,-0.4372,-0.4452,-0.4721,-0.483,-0.4784,-0.4019,-0.3333,-0.2867,-0.2479,-0.2221,-0.2154,-0.1361,-0.0854,-0.0934,-0.1179,-0.1236,-0.1262,-0.0536,-0.0706,-0.1803,-0.2345,-0.2418,-0.1982,-0.2962,-0.3705,-0.3332,-0.47,-0.5534,-0.5274,-0.5698,-0.6067,-0.599,-0.6661,-0.7358,-0.7426,-0.8241,-0.8987,-0.9075,-0.8768,-0.8403,-0.7962,-0.8282,-0.8595,-0.8678,-0.9059,-0.9156,-0.8722,-0.8823,-0.9368,1.6621,1.6565,1.7188,1.7763,1.8256,1.8412,1.8522,1.8607,1.822,1.7308,1.6074,1.5176,1.4045,1.287,1.2715,1.2123,1.1107,1.0302,0.9924,0.992,0.9027,0.8474,0.8302,0.8262,0.8092,0.8001,0.8044,0.8113,0.8113,0.8384,0.8476,0.8476,0.8169,0.8084,0.7866,0.0,0.0,0.0,0.313,0.2553,0.1752,0.1713,0.142,0.0798,0.068,0.0,-0.0502,-0.0659,-0.0771,-0.1051,-0.1068,0.0,0.0,0.0,0.0,0.0,0.0,0.0,0.0,0.0,0.0,0.0,-0.231,-0.2527,-0.2781,-0.3187,-0.3656,-0.4115,-0.4446,-0.4392,-0.4053,-0.4364,-0.4015,-0.25,-0.2274,-0.2221,-0.2159,-0.0435,0.0848,0.0783,-0.0393,-0.1254,-0.1242,-0.0782,-0.0471,-0.0628,-0.1648,-0.2417,-0.2369,-0.3093,-0.3734,-0.3825,-0.482,-0.5554,-0.5503,-0.5322,-0.5487,-0.6063,-0.6197,-0.6655,-0.7521,-0.7772,-0.784,-0.7917,-0.8247,-0.8431,-0.8366,-0.8286,-0.8357,-0.8607,-0.9316,-0.9646,-0.8917,-0.8906,-0.9297,1.7311,0.0,1.8171,1.8793,0.0,1.9717,1.9579,1.9304,1.8662,1.7561,1.5975,1.538,1.4239,1.2903,1.2795,1.2373,1.1453,1.0536,1.015,1.005,0.9065,0.8459,0.834,0.8153,0.8081,0.7948,0.8116,0.8201,0.8204,0.8476,0.8572,0.8572,0.8476,0.8341,0.8249,0.7319,0.583,0.3705,0.3553,0.3046,0.2151,0.1977,0.1685,0.1176,0.0,0.0,0.0,0.0,0.0,0.0,0.0,0.0,0.0,0.0,0.0,-0.2217,-0.2027,-0.1797,-0.1687,-0.1939,-0.2257,-0.2504,-0.259,-0.2939,-0.3504,-0.3727,-0.3919,-0.4273,-0.4535,-0.4389,-0.3639,-0.4046,-0.3968,-0.3078,-0.2488,-0.1952,-0.1089,0.0296,0.1256,0.1258,0.055,-0.0314,-0.1179,-0.0864,-0.0471,-0.0079,-0.0706,-0.1569,-0.2275,-0.251,-0.2746,-0.3684,-0.4857,-0.5442,-0.5203,-0.5108,-0.5055,-0.5522,-0.5822,-0.6222,-0.6876,-0.7265,-0.7396,-0.7068,-0.7269,-0.7543,-0.8064,-0.8303,-0.8533,-0.8658,-0.9354,-0.9845,-0.9346,-0.9512,-0.973,1.817,1.8397,1.9449,2.0125,2.0521,2.0743,2.0573,1.9998,0.0,0.0,0.0,1.5686,1.4542,1.292,1.2981,1.2536,1.1808,1.0888,1.0391,1.0378,0.9203,0.8571,0.8385,0.8074,0.7908,0.7812,0.7952,0.8113,0.8201,0.8472,0.8656,0.874,0.874,0.8623,0.8364,0.7468,0.6125,0.4465,0.4138,0.3528,0.26,0.2372,0.2084,0.1742,0.1709,0.1339,0.0654,0.0554,0.027,-0.0198,-0.0393,-0.0532,-0.0657,-0.1199,-0.1781,-0.2405,-0.2383,-0.2307,-0.2263,-0.2434,-0.2645,-0.2889,-0.3118,-0.3626,-0.445,-0.4446,-0.4455,-0.4494,-0.4666,-0.4427,-0.3497,-0.3551,-0.3654,-0.3551,-0.2487,-0.1287,-0.0139,0.0746,0.1336,0.1336,0.1258,0.0786,-0.055,-0.0471,-0.0236,0.0,0.0,-0.0628,-0.1961,-0.1884,-0.2041,-0.3528,-0.4543,-0.5078,-0.4784,-0.483,-0.4987,-0.48,-0.5292,-0.576,-0.6024,-0.6544,-0.6806,-0.6354,-0.6354,-0.6912,-0.7557,-0.8151,-0.8586,-0.8564,-0.926,-0.9857,-0.9875,-1.0206,-1.018,1.8955,1.9322,1.9953,2.0539,2.1167,2.0661,2.0418,1.9992,1.8565,1.7527,1.6686,1.5764,1.4623,1.3125,1.3046,1.2536,1.1808,1.1203,1.101,1.09,0.9909,0.9225,0.8837,0.8222,0.7784,0.7521,0.7567,0.7764,0.8197,0.8464,0.8819,0.9174,0.9174,0.866,0.7598,0.7082,0.6113,0.461,0.4291,0.3752,0.2802,0.2669,0.246,0.2117,0.2135,0.1824,0.122,0.0909,0.0613,0.0384,0.0055,-0.0109,-0.0163,-0.0744,-0.1546,-0.2524,-0.2301,-0.2159,-0.2333,-0.2513,-0.2693,-0.2917,-0.3436,-0.3975,-0.4443,-0.4477,-0.4474,-0.447,-0.4493,-0.4259,-0.3798,-0.3592,-0.3204,-0.2474,-0.1145,0.0,0.0,0.0854,0.1336,0.1335,0.1336,0.1258,0.0864,0.0944,0.0709,0.0,0.0,-0.0549,-0.1804,-0.1805,-0.2041,-0.3372,-0.3919,-0.407,-0.4142,-0.4342,-0.4388,-0.44,-0.4303,-0.4706,-0.5557,-0.5756,-0.5752,-0.5627,-0.6433,-0.7171,-0.7295,-0.7513,-0.7967,-0.8459,-0.9119,-0.9644,-0.9957,-1.0238,-1.009,1.9267,1.9814,2.0533,2.1077,2.1572,2.1011,2.0618,2.0322,1.9106,1.8209,1.7361,1.6289,1.4993,1.375,1.3645,1.3214,1.2361,1.1731,1.1479,1.1462,1.0255,0.9525,0.8983,0.8512,0.7973,0.7468,0.7573,0.776,0.8032,0.8372,0.8727,0.9078,0.8983,0.8361,0.745,0.7196,0.6599,0.546,0.4734,0.4035,0.3361,0.2926,0.2799,0.2831,0.2625,0.223,0.1797,0.1404,0.1074,0.0808,0.0461,0.0171,0.0,-0.0607,-0.1324,-0.2127,-0.2125,-0.2138,-0.2243,-0.2711,-0.3077,-0.3262,-0.3782,-0.4168,-0.445,-0.4463,-0.4463,-0.447,-0.4581,-0.4364,-0.374,-0.4071,-0.3697,-0.1818,-0.0618,0.0,0.0,0.1177,0.1963,0.1963,0.1805,0.1649,0.1336,0.1593,0.1756,0.1341,0.0706,0.0,0.0,-0.1257,-0.1649,-0.2666,-0.337,-0.3631,-0.3591,-0.3645,-0.3737,-0.3804,-0.3894,-0.4183,-0.4721,-0.4758,-0.4957,-0.5328,-0.6195,-0.6698,-0.6696,-0.7301,-0.7757,-0.8105,-0.8998,-0.9577,-0.9713,-1.0202,-1.039,1.9552,2.0249,2.1075,2.1562,2.1756,2.1313,2.0935,2.0456,1.9644,1.8877,1.8323,1.7037,1.5605,1.4265,1.4134,1.3663,1.2925,1.2238,1.1911,1.1813,1.068,0.9817,0.934,0.8902,0.8361,0.7848,0.7766,0.7937,0.8093,0.8396,0.8727,0.8969,0.8679,0.8158,0.7616,0.7396,0.6905,0.6163,0.5369,0.4662,0.4108,0.3505,0.3379,0.3559,0.3221,0.2811,0.2413,0.1992,0.1562,0.1135,0.0764,0.0461,0.0112,-0.0393,-0.0954,-0.1459,-0.1793,-0.2015,-0.2179,-0.2765,-0.3345,-0.3788,-0.3946,-0.4134,-0.4385,-0.4452,-0.4507,-0.4501,-0.4653,-0.4296,-0.3246,-0.3855,-0.3682,-0.1373,-0.0428,0.0,0.0,0.1649,0.2588,0.2666,0.2431,0.204,0.1813,0.2004,0.225,0.2207,0.1099,0.0,0.0,-0.0471,-0.0942,-0.1648,-0.2588,-0.3027,-0.2814,-0.303,-0.3129,-0.3199,-0.3293,-0.3637,-0.3813,-0.409,-0.4223,-0.4776,-0.5352,-0.5923,-0.6192,-0.6869,-0.7422,-0.7717,-0.8606,-0.9416,-0.9589,-1.0319,-1.0716,1.9965,2.0671,2.149,2.1726,2.1521,2.1437,2.1098,2.0501,1.9618,1.9443,1.9427,1.7708,1.6026,1.4798,1.4281,1.3744,1.3231,1.2744,1.2451,1.2132,1.1087,1.0484,1.0181,0.9344,0.8956,0.8783,0.8347,0.8299,0.8611,0.8633,0.8815,0.9126,0.8548,0.8127,0.7983,0.7367,0.6725,0.624,0.6073,0.5771,0.511,0.4694,0.4446,0.4201,0.3978,0.3646,0.3143,0.2547,0.2039,0.1589,0.1106,0.0732,0.0393,0.0056,-0.0224,-0.0561,-0.0954,-0.157,-0.2354,-0.2625,-0.3226,-0.4236,-0.3889,-0.377,-0.4027,-0.4282,-0.4426,-0.4452,-0.4439,-0.3563,-0.1645,-0.2026,-0.2102,-0.132,-0.0377,0.0312,0.1096,0.1962,0.2823,0.3606,0.2984,0.2431,0.2435,0.2444,0.2446,0.2454,0.1258,0.0,0.0,0.0471,0.055,-0.0157,-0.0942,-0.1556,-0.1836,-0.2626,-0.2803,-0.2443,-0.2151,-0.2694,-0.3438,-0.3578,-0.3426,-0.3784,-0.4261,-0.5108,-0.5742,-0.6372,-0.6658,-0.7379,-0.8146,-0.902,-0.9929,-1.0492,-1.0303,2.0388,2.1075,2.176,2.1984,2.1747,2.168,2.1368,2.0869,2.0449,2.0138,1.9722,1.8433,1.7101,1.5913,1.523,1.4558,1.3956,1.3108,1.2743,1.2621,1.1578,1.0963,1.0571,0.9891,0.9364,0.8975,0.8543,0.8528,0.8774,0.8886,0.9013,0.9069,0.8726,0.8455,0.809,0.7768,0.7356,0.6942,0.6865,0.6678,0.6439,0.5482,0.4985,0.4856,0.4439,0.4006,0.3553,0.3037,0.2573,0.2219,0.1655,0.1143,0.073,0.028,-0.0056,-0.0168,-0.0673,-0.1178,-0.1626,-0.2128,-0.2521,-0.2907,-0.3522,-0.3799,-0.3749,-0.3868,-0.3946,-0.3966,-0.3819,-0.3013,-0.1362,-0.0973,-0.0914,-0.0994,-0.0078,0.0864,0.1258,0.2575,0.3566,0.3793,0.3651,0.3423,0.3226,0.2823,0.2542,0.2583,0.1842,0.1178,0.0314,0.0786,0.11,0.0864,0.0629,0.0078,-0.0853,-0.2025,-0.2224,-0.1782,-0.1736,-0.2267,-0.2541,-0.3005,-0.2958,-0.3159,-0.3882,-0.4416,-0.4725,-0.5575,-0.6199,-0.6946,-0.7839,-0.872,-0.9374,-0.9604,-0.9632,2.0665,2.1477,2.2089,2.231,2.1971,2.18,2.1511,2.1256,2.1109,2.0664,1.9965,1.8906,1.7958,1.7044,1.5938,1.5104,1.453,1.3525,1.3081,1.2971,1.2073,1.1452,1.1001,1.0662,1.0096,0.9542,0.9276,0.9041,0.9019,0.9071,0.9089,0.8907,0.8974,0.872,0.8243,0.8193,0.8081,0.7794,0.7594,0.7565,0.7516,0.6585,0.5771,0.5428,0.4942,0.44,0.3889,0.3488,0.3011,0.2595,0.2095,0.1574,0.103,0.0565,0.0336,0.028,-0.0224,-0.0673,-0.0954,-0.1526,-0.1811,-0.1857,-0.2895,-0.3387,-0.3325,-0.3455,-0.346,-0.324,-0.3439,-0.2907,-0.1086,-0.0306,-0.0314,-0.0786,0.0314,0.1022,0.1339,0.2945,0.3981,0.4027,0.4144,0.4146,0.3905,0.3588,0.3317,0.2689,0.2561,0.2352,0.1256,0.1256,0.1336,0.1336,0.1573,0.1178,-0.0157,-0.1177,-0.1473,-0.1123,-0.101,-0.1052,-0.1495,-0.2125,-0.2688,-0.2926,-0.3667,-0.4139,-0.4305,-0.4972,-0.5822,-0.6635,-0.7429,-0.8261,-0.892,-0.8864,-0.9116,2.1075,2.1865,2.2552,2.2552,2.1964,2.208,2.1902,2.1642,2.1235,2.0899,2.0436,1.9135,1.8409,1.8093,1.6354,1.5104,1.4536,1.3983,1.3429,1.3113,1.2654,1.2323,1.1836,1.1601,1.1183,1.0565,1.0408,1.0045,0.9518,0.9285,0.9089,0.892,0.8991,0.8878,0.864,0.8513,0.8467,0.8593,0.8285,0.8187,0.8309,0.7895,0.7033,0.6032,0.5684,0.5052,0.4113,0.3887,0.3463,0.2658,0.246,0.2009,0.1364,0.1205,0.1122,0.1066,0.0617,0.0056,-0.0619,-0.0867,-0.1218,-0.1707,-0.2069,-0.2207,-0.2387,-0.2997,-0.3056,-0.2452,-0.3353,-0.2922,-0.0738,0.0077,0.0157,-0.0079,0.0,0.055,0.1258,0.2864,0.4105,0.4509,0.4504,0.438,0.4299,0.4871,0.4252,0.3212,0.2602,0.2671,0.3057,0.2198,0.1649,0.1571,0.165,0.1493,0.0236,-0.0628,-0.0692,-0.0296,0.0071,0.0339,-0.0675,-0.1548,-0.2151,-0.2621,-0.2936,-0.3309,-0.3811,-0.4564,-0.5399,-0.6196,-0.6811,-0.7556,-0.8288,-0.8265,-0.8553,2.1766,2.2846,2.3147,2.3206,2.3168,2.2869,2.2692,2.2518,2.1942,2.139,2.067,1.9958,1.913,1.8371,1.7597,1.6452,1.5412,1.495,1.4494,1.3719,1.3148,1.282,1.2649,1.189,1.1306,1.1012,1.0826,1.0455,0.9921,0.9696,0.9544,0.9535,0.9423,0.9266,0.9137,0.9336,0.9356,0.9209,0.9089,0.914,0.9179,0.8646,0.7988,0.7183,0.6424,0.5521,0.4564,0.4418,0.4137,0.3617,0.3079,0.2583,0.2183,0.1716,0.1515,0.1519,0.1088,0.0516,0.0,-0.0354,-0.095,-0.1705,-0.1669,-0.1573,-0.1612,-0.1791,-0.2041,-0.2294,-0.2211,-0.1419,0.0075,0.1154,0.1256,0.055,0.0393,0.0707,0.1425,0.2861,0.4202,0.4536,0.4617,0.4658,0.493,0.521,0.5082,0.444,0.336,0.3157,0.3551,0.3215,0.2901,0.2979,0.2511,0.1806,0.1568,0.0157,-0.0386,0.0368,0.0843,0.0819,0.0202,-0.074,-0.1411,-0.1731,-0.2058,-0.2696,-0.3343,-0.4396,-0.5195,-0.57,-0.6318,-0.6937,-0.7568,-0.7739,-0.8165,2.2585,2.3529,2.3433,2.3623,2.3719,2.3399,2.3093,2.3047,2.2454,2.1644,2.0911,2.0426,1.9692,1.8849,1.8588,1.7742,1.6553,1.5899,1.5212,1.4597,1.3826,1.3456,1.308,1.2496,1.1864,1.1428,1.1002,1.0697,1.06,1.018,0.9983,0.9917,0.9851,0.9777,0.9686,1.002,1.0153,1.0065,1.0041,0.9959,0.9834,0.9362,0.8753,0.8066,0.7237,0.6233,0.5238,0.496,0.4669,0.424,0.3595,0.299,0.2557,0.212,0.1834,0.1796,0.152,0.1052,0.0579,0.0242,-0.0364,-0.1366,-0.1397,-0.123,-0.1141,-0.111,-0.1451,-0.165,-0.095,0.0078,0.115,0.2322,0.2586,0.1569,0.149,0.1727,0.2123,0.3147,0.4138,0.4713,0.4883,0.5098,0.5402,0.5507,0.5541,0.5569,0.4511,0.4197,0.4458,0.4075,0.3919,0.4226,0.3604,0.3059,0.2653,0.163,0.0689,0.117,0.1605,0.1495,0.1073,0.0134,-0.0581,-0.088,-0.1468,-0.2161,-0.3075,-0.4188,-0.4865,-0.5315,-0.5882,-0.654,-0.7001,-0.7361,-0.7796,2.3679,2.3917,2.363,2.3629,2.3738,2.3658,2.3435,2.3083,2.2502,2.1892,2.1272,2.0653,2.0026,1.9441,1.9414,1.882,1.7938,1.6814,1.5899,1.5465,1.4797,1.4228,1.3626,1.3491,1.293,1.2119,1.1301,1.1196,1.1597,1.0967,1.0393,1.0181,1.0447,1.049,1.0299,1.0624,1.0915,1.1117,1.0925,1.0606,1.0323,1.0019,0.9489,0.8646,0.8175,0.7334,0.6076,0.5635,0.515,0.4586,0.4054,0.3267,0.2427,0.232,0.2266,0.2123,0.1975,0.1603,0.114,0.1001,0.0435,-0.0414,-0.0946,-0.0935,-0.0883,-0.0947,-0.1047,-0.1001,0.0074,0.1327,0.1873,0.3283,0.3759,0.2821,0.2978,0.3526,0.3686,0.3773,0.4101,0.4806,0.5162,0.5507,0.5817,0.606,0.6114,0.5984,0.5918,0.5849,0.5851,0.4993,0.427,0.4309,0.4387,0.4233,0.3722,0.3213,0.247,0.2039,0.2296,0.2283,0.1671,0.0865,0.0378,-0.0058,-0.1009,-0.1754,-0.2832,-0.3828,-0.444,-0.4936,-0.5534,-0.6025,-0.6373,-0.6759,-0.7326,2.4095,2.4595,2.4025,2.4113,2.4473,2.4087,2.3784,2.3413,2.2964,2.2494,2.1864,2.1227,2.0608,2.0385,2.0515,2.0113,1.9293,1.8346,1.7315,1.6083,1.5269,1.4764,1.4596,1.4429,1.397,1.3336,1.2541,1.2242,1.2352,1.1919,1.1551,1.1409,1.1036,1.1049,1.1305,1.1516,1.1747,1.1958,1.1974,1.1793,1.1289,1.065,1.0099,0.9665,0.9185,0.8543,0.7789,0.6578,0.5807,0.548,0.4957,0.3977,0.2802,0.3079,0.329,0.2768,0.2744,0.242,0.1786,0.1541,0.1378,0.1094,0.0462,0.0,0.0067,0.0213,-0.0144,-0.0763,0.0144,0.1433,0.2953,0.4151,0.4231,0.3056,0.3682,0.4309,0.4562,0.4753,0.4899,0.5014,0.5249,0.5417,0.5758,0.6212,0.6665,0.6223,0.6288,0.6395,0.6234,0.6106,0.5479,0.4783,0.5069,0.5237,0.4637,0.4123,0.3523,0.2973,0.2979,0.2958,0.2338,0.1689,0.1227,0.0343,-0.0578,-0.1513,-0.2614,-0.3409,-0.3995,-0.4523,-0.503,-0.5413,-0.574,-0.6137,-0.6557,2.4774,2.5285,2.4691,2.4591,2.4889,2.4706,2.4269,2.3665,2.3576,2.3182,2.2527,2.2361,2.1807,2.1263,2.1256,2.0838,2.0026,1.9266,1.8367,1.7215,1.6193,1.5535,1.5309,1.4959,1.4783,1.4471,1.3698,1.3285,1.3361,1.2748,1.2294,1.2146,1.1828,1.1774,1.2126,1.2325,1.2523,1.2767,1.2836,1.2561,1.2098,1.138,1.0812,1.0513,0.9841,0.9311,0.8805,0.7625,0.6745,0.6264,0.5567,0.4487,0.3495,0.3931,0.4097,0.3743,0.3389,0.3009,0.2365,0.2106,0.2151,0.2287,0.1681,0.1008,0.0882,0.1121,0.0567,-0.0615,0.0,0.1593,0.3581,0.4779,0.4701,0.3917,0.4309,0.4701,0.4969,0.5227,0.5344,0.5336,0.5376,0.5501,0.5884,0.682,0.732,0.7015,0.6753,0.6567,0.6582,0.6837,0.6172,0.566,0.559,0.5604,0.5325,0.4952,0.4507,0.4044,0.3655,0.3452,0.3013,0.25,0.2003,0.0392,-0.0771,-0.148,-0.2464,-0.3078,-0.3651,-0.4131,-0.4421,-0.4605,-0.4822,-0.5146,-0.5493,2.545,2.6003,2.5427,2.4893,2.491,2.5198,2.4822,2.3811,2.3991,2.3786,2.343,2.3761,2.3183,2.2096,2.1876,2.1365,2.0406,1.967,1.9265,1.8718,1.7669,1.6769,1.6082,1.5706,1.5636,1.5594,1.4754,1.4319,1.4439,1.355,1.2849,1.2714,1.2721,1.2744,1.2874,1.304,1.3197,1.3477,1.3325,1.3068,1.2857,1.2177,1.1496,1.1123,1.0432,0.986,0.9422,0.8789,0.7977,0.6915,0.5887,0.5226,0.4931,0.4766,0.4835,0.4838,0.4113,0.3472,0.293,0.2809,0.282,0.3025,0.2636,0.2161,0.1502,0.1575,0.1168,-0.021,0.0372,0.1797,0.3912,0.5165,0.5323,0.5093,0.5093,0.5171,0.5112,0.5392,0.5548,0.5621,0.5532,0.5566,0.6033,0.7433,0.8317,0.8253,0.7731,0.7225,0.6908,0.707,0.7275,0.6965,0.6433,0.6033,0.5898,0.5551,0.5164,0.4768,0.4225,0.3732,0.342,0.2831,0.1981,0.0442,-0.0605,-0.1403,-0.2107,-0.2635,-0.3019,-0.334,-0.3525,-0.3678,-0.3904,-0.4257,-0.4477,2.6391,2.6501,2.6121,2.5759,2.5607,2.5373,2.4897,2.4386,2.4734,2.4423,2.4166,2.4519,2.4188,2.3089,2.2594,2.2086,2.1553,2.0852,2.0352,1.9921,1.9661,1.8783,1.7842,1.7285,1.7021,1.6912,1.6332,1.5886,1.5484,1.49,1.4437,1.4088,1.3564,1.3483,1.3792,1.3553,1.3542,1.385,1.3872,1.3598,1.3242,1.2829,1.2218,1.1571,1.1037,1.0648,1.0343,0.9736,0.8633,0.7025,0.6567,0.6225,0.5935,0.5921,0.591,0.5844,0.5318,0.4446,0.348,0.3429,0.3563,0.3234,0.3158,0.2778,0.2521,0.2563,0.2253,0.1656,0.1943,0.2586,0.4229,0.5398,0.5792,0.5562,0.5637,0.5873,0.5927,0.6012,0.6043,0.5769,0.575,0.5801,0.6502,0.8024,0.9602,0.9593,0.8952,0.8103,0.7839,0.7684,0.7967,0.7721,0.7234,0.6764,0.6439,0.6145,0.5772,0.5375,0.4764,0.3872,0.336,0.2766,0.1586,0.0222,-0.005,-0.0678,-0.139,-0.2014,-0.2273,-0.262,-0.2786,-0.2968,-0.3117,-0.3385,-0.3662,2.7185,2.7302,2.6819,2.6462,2.6368,2.5897,2.5421,2.5028,2.5226,2.513,2.4841,2.5141,2.4883,2.3913,2.3449,2.2752,2.2145,2.175,2.1329,2.0955,2.0903,2.0147,1.8937,1.839,1.8247,1.8046,1.7442,1.6908,1.6507,1.5993,1.5486,1.5166,1.4596,1.4364,1.4456,1.4328,1.4277,1.4434,1.4519,1.4402,1.4016,1.3684,1.3071,1.2287,1.1702,1.1126,1.0677,1.0289,0.9223,0.7731,0.7251,0.6955,0.649,0.6552,0.6679,0.6806,0.621,0.5279,0.4503,0.4403,0.4324,0.3958,0.3747,0.3617,0.3432,0.3395,0.3284,0.3037,0.2901,0.3448,0.4618,0.5712,0.6103,0.5951,0.6103,0.6261,0.6261,0.681,0.6783,0.6536,0.6526,0.6966,0.7404,0.9248,1.012,1.0467,1.0028,0.9393,0.9016,0.8789,0.8508,0.8175,0.7914,0.7522,0.6782,0.6404,0.6261,0.5909,0.5311,0.4394,0.3437,0.2755,0.1565,0.0601,0.0391,0.009,-0.0583,-0.1199,-0.1746,-0.1998,-0.2149,-0.2229,-0.2379,-0.2362,-0.2662,2.799,2.8238,2.7654,2.7157,2.6902,2.6693,2.6223,2.5512,2.5602,2.5717,2.5627,2.5741,2.5567,2.4724,2.4306,2.355,2.2611,2.249,2.2314,2.2139,2.2055,2.1331,1.999,1.9773,1.9469,1.9017,1.8274,1.7907,1.7496,1.6679,1.6143,1.5939,1.5591,1.5304,1.5113,1.5021,1.5169,1.5197,1.5189,1.519,1.4955,1.4719,1.4171,1.3265,1.23,1.1601,1.1159,1.0679,0.9881,0.8318,0.8084,0.7476,0.673,0.6819,0.7091,0.7265,0.6736,0.6079,0.5634,0.5457,0.5291,0.4925,0.4734,0.4485,0.3963,0.3843,0.3886,0.3754,0.3452,0.3997,0.5318,0.6103,0.6183,0.6261,0.6338,0.6412,0.6542,0.7312,0.7867,0.7537,0.7929,0.8811,0.9772,1.0453,1.0778,1.0819,1.0467,1.024,0.9696,0.9167,0.8941,0.8563,0.8353,0.8209,0.7356,0.6596,0.6487,0.6313,0.5715,0.4918,0.3724,0.2801,0.171,0.0916,0.0636,0.0552,0.0404,-0.0264,-0.0938,-0.123,-0.1301,-0.1409,-0.1526,-0.1417,-0.1534,2.8403,2.8386,2.8698,2.8277,2.7587,2.7453,2.7052,2.6214,2.597,2.597,2.6059,2.6565,2.6472,2.6011,2.5252,2.4704,2.4515,2.395,2.364,2.3837,2.3569,2.3287,2.2276,2.1593,2.0932,2.0484,1.9896,1.9272,1.8542,1.8002,1.742,1.6579,1.6436,1.6058,1.5748,1.5539,1.5575,1.5929,1.5859,1.5831,1.583,1.5652,1.5151,1.4185,1.3258,1.2701,1.2342,1.1883,1.1178,1.0213,0.9146,0.8284,0.7474,0.7507,0.7626,0.7508,0.741,0.7016,0.6626,0.6238,0.5974,0.5962,0.5208,0.4504,0.414,0.4206,0.4327,0.4196,0.3997,0.4616,0.6167,0.6331,0.6335,0.6416,0.6795,0.6949,0.6606,0.7183,0.8226,0.8926,0.9149,0.9685,1.0814,1.0598,1.0794,1.1026,1.0992,1.0906,1.0324,0.9698,0.9231,0.8932,0.8912,0.8745,0.8079,0.722,0.6821,0.6764,0.6371,0.5891,0.4693,0.339,0.2422,0.1603,0.089,0.0849,0.0856,0.0617,-0.0086,-0.0245,-0.0467,-0.0661,-0.0733,-0.058,-0.057,2.9176,2.902,2.9379,2.8965,2.8194,2.798,2.7472,2.689,2.6684,2.6684,2.6754,2.7125,2.7149,2.6986,2.6199,2.5733,2.5273,2.4603,2.4298,2.4474,2.4315,2.4248,2.4214,2.3324,2.2557,2.1624,2.0752,2.0036,1.958,1.9152,1.8591,1.7867,1.7512,1.7211,1.6807,1.649,1.6632,1.6915,1.7001,1.6983,1.6794,1.6719,1.6082,1.5016,1.42,1.3669,1.332,1.3119,1.2573,1.1741,1.0743,0.945,0.8186,0.8123,0.8175,0.8002,0.7947,0.7679,0.7224,0.7188,0.725,0.7267,0.616,0.5622,0.5191,0.5129,0.4947,0.4963,0.5104,0.5622,0.6938,0.6788,0.6641,0.6641,0.7099,0.7253,0.7165,0.8282,0.9275,0.9917,1.0038,1.0499,1.0818,1.0758,1.067,1.0865,1.1166,1.1096,1.1085,1.0408,0.961,0.9306,0.9468,0.9319,0.8739,0.8017,0.7274,0.7202,0.7107,0.6792,0.6237,0.4775,0.3413,0.2592,0.1752,0.1259,0.1207,0.0963,0.0765,0.0443,0.0153,0.0036,-0.0035,0.0,0.0,2.9996,2.9917,2.9988,2.9498,2.8867,2.8508,2.7904,2.7436,2.7435,2.7392,2.7589,2.7647,2.7757,2.7579,2.7285,2.6514,2.5813,2.5259,2.513,2.5198,2.4975,2.4923,2.4991,2.4488,2.3829,2.2592,2.1619,2.0924,2.0459,2.0022,1.9434,1.9175,1.8762,1.8185,1.7897,1.7911,1.7709,1.7613,1.7882,1.814,1.7961,1.7839,1.7052,1.6064,1.5174,1.4654,1.4355,1.4087,1.3657,1.3131,1.2546,1.101,0.9575,0.8826,0.8959,0.8631,0.8513,0.8226,0.7889,0.7976,0.8189,0.858,0.746,0.6612,0.6492,0.6296,0.6064,0.5939,0.6016,0.6707,0.7407,0.7176,0.7019,0.7019,0.733,0.7484,0.7983,0.9722,1.0502,1.0396,1.0432,1.0752,1.1032,1.1028,1.0885,1.0761,1.1035,1.1218,1.1272,1.0989,1.0071,0.9458,0.9468,0.9643,0.9198,0.8403,0.7702,0.7344,0.751,0.7324,0.7144,0.6299,0.4838,0.359,0.2808,0.2219,0.1734,0.1572,0.1301,0.099,0.0876,0.0811,0.0708,0.0575,0.0571,3.0662,3.0361,3.0549,3.0289,2.9633,2.9136,2.8738,2.8228,2.779,2.7882,2.8352,2.8316,2.85,2.8528,2.7984,2.7472,2.6972,2.6448,2.6225,2.6256,2.5967,2.5798,2.5643,2.5339,2.4797,2.4373,2.3182,2.2086,2.1258,2.0649,2.0249,1.9714,1.9437,1.9086,1.8575,1.8186,1.8349,1.8352,1.8435,1.8666,1.9032,1.8771,1.8211,1.7201,1.6436,1.5937,1.5397,1.4767,1.4149,1.4007,1.3557,1.2638,1.1424,1.0388,0.9757,0.9238,0.901,0.8795,0.8473,0.8272,0.8408,0.8506,0.8313,0.7622,0.7297,0.7459,0.7182,0.6585,0.6993,0.7714,0.748,0.7407,0.7403,0.7403,0.748,0.7557,0.8026,0.9305,1.0924,1.079,1.0843,1.0845,1.0963,1.1089,1.11,1.0918,1.0895,1.1186,1.1353,1.1004,1.0399,0.9836,0.9463,0.9563,0.9585,0.8796,0.8026,0.7477,0.7438,0.7356,0.7293,0.7295,0.6367,0.4737,0.3607,0.2949,0.2522,0.2175,0.1882,0.1626,0.1579,0.1576,0.149,0.1415,0.1384,3.1118,3.0888,3.1129,3.0773,3.0166,2.9842,2.9395,2.8867,2.8522,2.8559,2.8902,2.8975,2.9222,2.9285,2.9155,2.8695,2.8242,2.752,2.7289,2.7059,2.6756,2.6554,2.6336,2.6001,2.5819,2.5255,2.4359,2.3199,2.2237,2.1603,2.1119,2.0764,2.0696,2.0392,1.9917,1.9636,1.9544,1.9567,1.9282,1.9354,1.9918,1.9389,1.876,1.8087,1.7672,1.7146,1.6632,1.6108,1.5431,1.4906,1.449,1.3653,1.2753,1.1931,1.0911,0.9927,0.9617,0.9371,0.9122,0.8965,0.9188,0.9256,0.9008,0.8514,0.8152,0.8241,0.8063,0.7397,0.7605,0.8322,0.8169,0.7787,0.7557,0.7557,0.7863,0.8097,0.8286,0.8985,0.9927,1.0958,1.1197,1.1083,1.074,1.0971,1.1171,1.1129,1.0917,1.1065,1.1385,1.1288,1.095,0.976,0.9319,0.9596,0.9691,0.9129,0.861,0.8095,0.7512,0.7492,0.738,0.7375,0.6643,0.5357,0.4433,0.3609,0.2994,0.2552,0.2406,0.2235,0.218,0.2184,0.2259,0.227,0.2245,3.1584,3.1515,3.1506,3.1075,3.0556,3.0447,3.0013,2.9424,2.9121,2.9333,2.9596,2.9558,2.9677,2.9912,2.9982,2.9783,2.9355,2.8436,2.8172,2.776,2.7525,2.7328,2.7107,2.7051,2.6766,2.6153,2.5376,2.4393,2.3169,2.2401,2.2046,2.1828,2.1786,2.1717,2.1399,2.0883,2.107,2.0687,2.0559,2.0403,2.0318,1.9913,1.9239,1.8726,1.8607,1.8198,1.7755,1.7178,1.6688,1.6086,1.5533,1.4715,1.3733,1.3462,1.2567,1.0986,1.0588,1.0053,0.9672,0.9903,1.0182,1.0363,0.9443,0.9194,0.9057,0.8885,0.8461,0.8016,0.8623,0.8927,0.8627,0.8169,0.7842,0.7901,0.8322,0.8627,0.8475,0.8827,0.9525,1.0384,1.113,1.1289,1.1048,1.1158,1.1438,1.1169,1.0962,1.1186,1.1538,1.1947,1.1409,0.9756,0.9139,0.9606,0.969,0.9436,0.9164,0.9058,0.8254,0.7784,0.7607,0.7526,0.6593,0.571,0.4999,0.4176,0.3543,0.3156,0.3118,0.3067,0.2854,0.2841,0.3,0.3159,0.3223,3.2215,3.1791,3.1791,3.1616,3.1249,3.0937,3.0668,3.0331,2.9483,2.9582,3.0157,2.9795,2.9795,3.0274,3.0626,3.0374,2.992,2.9744,2.9157,2.8435,2.8234,2.8004,2.7891,2.8077,2.7651,2.6997,2.6424,2.5113,2.3997,2.3021,2.2535,2.2501,2.2441,2.2312,2.2128,2.1879,2.1454,2.0925,2.118,2.1296,2.114,2.0801,2.0385,1.9998,1.9525,1.9076,1.8632,1.8143,1.7614,1.745,1.6843,1.6146,1.5541,1.5327,1.4456,1.3149,1.1996,1.0858,1.0232,1.0548,1.1347,1.1341,1.0479,1.0089,0.989,0.9264,0.8632,0.8699,0.9559,0.9771,0.917,0.8623,0.8576,0.8474,0.8581,0.8684,0.8627,0.8623,0.9301,1.0212,1.0977,1.132,1.1326,1.1571,1.1726,1.1347,1.1192,1.1409,1.1632,1.2083,1.1604,0.9856,0.9022,0.9378,0.9713,0.9483,0.9539,0.9649,0.9009,0.8164,0.7892,0.7616,0.6947,0.6082,0.5453,0.5013,0.4587,0.4273,0.4079,0.39,0.3818,0.3784,0.3819,0.4016,0.4277,3.2646,3.2166,3.1919,3.1662,3.146,3.1345,3.1071,3.0652,3.0111,3.0062,3.0322,3.0147,3.0274,3.0752,3.0976,3.0846,3.0348,3.0339,2.9885,2.9104,2.8947,2.8701,2.8417,2.8475,2.8221,2.7949,2.7113,2.6473,2.5185,2.4155,2.3467,2.3356,2.3438,2.3367,2.3019,2.2646,2.2664,2.2575,2.2432,2.208,2.1642,2.1347,2.1051,2.0622,2.0341,1.9889,1.9451,1.8938,1.8417,1.8152,1.7586,1.7089,1.6478,1.6137,1.5702,1.5748,1.3985,1.2285,1.0982,1.1331,1.2019,1.2345,1.1376,1.033,1.0668,0.9849,0.8918,0.9044,1.0236,1.0434,0.99,0.9231,0.8949,0.8904,0.8862,0.8822,0.8799,0.878,0.9079,0.9981,1.0812,1.1111,1.1484,1.1861,1.1942,1.1787,1.149,1.1484,1.1713,1.2083,1.12,0.9736,0.928,0.9197,0.9479,0.9548,0.9681,0.9728,0.9388,0.8651,0.8166,0.774,0.7083,0.6897,0.6679,0.6192,0.571,0.5148,0.4683,0.4721,0.4796,0.485,0.4915,0.536,0.5499,3.2833,3.2454,3.2213,3.1901,3.1607,3.186,3.1569,3.0898,3.0596,3.0539,3.0586,3.0616,3.0743,3.1112,3.1315,3.1261,3.1047,3.0832,3.0399,2.9848,2.9544,2.9283,2.9162,2.9006,2.8946,2.8866,2.8055,2.7313,2.6664,2.5797,2.5025,2.4398,2.4288,2.4233,2.4051,2.3681,2.3465,2.3758,2.3317,2.2871,2.2288,2.2079,2.1789,2.1389,2.1016,2.0756,2.0236,1.977,1.9254,1.8973,1.8449,1.8011,1.7637,1.7261,1.683,1.6629,1.5412,1.4009,1.2634,1.2323,1.2917,1.2876,1.2438,1.1388,1.1888,1.0537,0.9627,1.0139,1.0429,1.0869,1.0701,0.9755,0.9549,0.9354,0.92,0.9111,0.898,0.8956,0.9018,0.9614,1.0368,1.0962,1.1409,1.1935,1.2157,1.2157,1.2009,1.1639,1.1861,1.2238,1.1222,0.9961,0.9438,0.9234,0.9285,0.9524,0.9752,0.9831,0.9484,0.9227,0.8755,0.8014,0.7301,0.7309,0.751,0.6995,0.622,0.5728,0.5305,0.5429,0.558,0.5859,0.6104,0.6533,0.6701,3.287,3.2571,3.2701,3.2422,3.1882,3.2102,3.1932,3.1398,3.0838,3.0895,3.1122,3.1208,3.1325,3.1682,3.1787,3.1842,3.1991,3.1717,3.1187,3.0748,3.038,3.0017,2.9898,2.9723,2.9714,2.9373,2.881,2.8257,2.7643,2.7318,2.6311,2.5292,2.5145,2.4928,2.4707,2.4436,2.4161,2.4221,2.392,2.3765,2.3402,2.3093,2.2793,2.2441,2.1803,2.1321,2.0979,2.0476,2.007,1.9938,1.9412,1.9034,1.8644,1.8232,1.7743,1.7017,1.67,1.5355,1.4187,1.3407,1.3552,1.3675,1.3354,1.2638,1.3029,1.2369,1.187,1.1601,1.14,1.0646,1.0545,1.0332,0.9983,0.9662,0.9514,0.9601,0.9399,0.9047,0.9185,0.9402,0.9846,1.0519,1.1335,1.1929,1.2231,1.2231,1.2378,1.2083,1.2157,1.2331,1.1475,1.0461,0.9814,0.9432,0.9268,0.9444,0.9777,0.9844,0.9688,0.9544,0.9401,0.859,0.7889,0.7656,0.7778,0.7273,0.6805,0.6434,0.6167,0.6193,0.6412,0.6861,0.7006,0.7201,0.7477,3.317,3.2964,3.3082,3.2676,3.201,3.2604,3.2426,3.1754,3.1689,3.1613,3.1556,3.1556,3.1672,3.1787,3.1998,3.2064,3.2046,3.2137,3.1709,3.1308,3.0998,3.0695,3.0548,3.0401,3.0307,2.9974,2.9786,2.9472,2.8844,2.8381,2.7934,2.7143,2.6164,2.5602,2.5331,2.5137,2.4916,2.4752,2.4551,2.4381,2.4041,2.3928,2.3597,2.3109,2.2796,2.2271,2.1768,2.1372,2.0921,2.0527,2.0273,1.9888,1.9445,1.8949,1.8316,1.749,1.7237,1.6498,1.5582,1.4775,1.4261,1.3995,1.382,1.371,1.3828,1.3406,1.3335,1.2912,1.1878,1.0936,1.0923,1.0534,1.0035,0.9864,0.9816,1.0055,0.9906,0.9571,0.9261,0.9478,0.97,1.0067,1.0962,1.1929,1.2157,1.2305,1.2452,1.2599,1.268,1.2531,1.1779,1.0953,1.0214,0.9783,0.9548,0.9664,0.9786,0.9813,0.9826,0.9827,0.9766,0.9542,0.8888,0.8535,0.8069,0.7709,0.7402,0.7158,0.7029,0.7072,0.7496,0.8085,0.8111,0.8007,0.8206,3.3454,3.3124,3.3338,3.2921,3.2365,3.2969,3.2672,3.1998,3.2296,3.2327,3.2018,3.2018,3.2133,3.2258,3.2467,3.2571,3.2517,3.2521,3.2321,3.1985,3.1806,3.1443,3.1072,3.0881,3.0899,3.0599,3.0401,3.0037,2.9556,2.9123,2.8796,2.8174,2.7459,2.6833,2.6094,2.5771,2.544,2.5333,2.5187,2.4925,2.4611,2.4507,2.4411,2.3832,2.3419,2.3099,2.2707,2.2313,2.1816,2.1358,2.0967,2.0533,1.9986,1.9387,1.8869,1.8241,1.7646,1.7261,1.6711,1.595,1.4993,1.4719,1.4633,1.4409,1.4193,1.4088,1.3911,1.386,1.2528,1.1574,1.1434,1.0941,1.0324,1.0079,1.0424,1.0575,1.0398,1.0119,0.9777,0.9625,0.9894,1.0291,1.0893,1.1861,1.2157,1.2305,1.2378,1.268,1.3127,1.2933,1.2393,1.1512,1.0679,1.0238,0.9926,1.0047,1.0161,1.0153,1.0177,1.0126,0.9985,0.9818,0.962,0.9219,0.8778,0.8332,0.8256,0.8349,0.8165,0.7939,0.8558,0.9303,0.9385,0.9321,0.92,3.3425,3.3009,3.3359,3.3175,3.2873,3.3227,3.2937,3.224,3.2365,3.2519,3.2602,3.2696,3.282,3.2944,3.3048,3.3212,3.323,3.3035,3.2959,3.2921,3.2716,3.2282,3.1873,3.1668,3.1516,3.1159,3.0891,3.0621,2.9994,2.9891,2.9466,2.9126,2.8604,2.7976,2.718,2.6416,2.5839,2.544,2.5635,2.547,2.5276,2.5121,2.4993,2.4672,2.4079,2.3664,2.3573,2.3261,2.2678,2.2082,2.1826,2.1351,2.069,2.0564,1.9898,1.8784,1.8824,1.8334,1.7532,1.6822,1.6334,1.5682,1.5641,1.5007,1.4409,1.4088,1.4166,1.4082,1.2973,1.2137,1.1798,1.1372,1.0713,1.0525,1.0884,1.0945,1.0768,1.06,1.0269,0.9903,1.0396,1.0979,1.128,1.1726,1.2157,1.2305,1.2305,1.268,1.3273,1.3252,1.2756,1.2185,1.1259,1.0897,1.0641,1.0504,1.0528,1.0474,1.0394,1.0322,1.0186,0.9981,0.9814,0.9664,0.9864,0.9819,0.9763,0.9744,0.9628,0.9624,0.9911,1.041,1.0547,1.0624,1.0503,3.3421,3.3369,3.3594,3.3544,3.3272,3.3773,3.343,3.2583,3.2371,3.2621,3.2976,3.3069,3.3058,3.3182,3.3399,3.3512,3.3582,3.3776,3.3774,3.3442,3.3485,3.3003,3.2558,3.252,3.229,3.1652,3.1434,3.1155,3.0527,3.0454,3.0266,2.9829,2.9353,2.8655,2.7923,2.718,2.6635,2.6477,2.6191,2.5897,2.58,2.5682,2.5486,2.5317,2.4756,2.4473,2.4362,2.3949,2.3299,2.265,2.2434,2.2012,2.1452,2.1248,2.1072,2.0549,2.0723,1.9399,1.8843,1.8475,1.8194,1.7486,1.6511,1.5662,1.4979,1.4348,1.4257,1.4075,1.3222,1.2608,1.236,1.1685,1.1126,1.1052,1.1251,1.1176,1.1123,1.1038,1.0792,1.0399,1.055,1.1528,1.2075,1.1951,1.2164,1.2378,1.2452,1.2753,1.3346,1.339,1.31,1.2651,1.2071,1.1704,1.1369,1.1143,1.0836,1.0628,1.056,1.0404,1.0285,1.0057,0.9888,0.9686,1.0573,1.1382,1.108,1.0911,1.1226,1.1407,1.1612,1.1691,1.1792,1.1812,1.1792,3.3724,3.369,3.3788,3.3796,3.367,3.4298,3.4043,3.3165,3.2666,3.283,3.3182,3.3306,3.3409,3.3523,3.3738,3.3851,3.3861,3.4076,3.4134,3.3812,3.4152,3.3623,3.327,3.3265,3.2685,3.2126,3.1919,3.1693,3.0974,3.0987,3.0831,3.0632,2.9974,2.9363,2.8696,2.8096,2.7381,2.7222,2.6963,2.6744,2.6685,2.6428,2.6015,2.5866,2.5484,2.5124,2.4911,2.4426,2.3937,2.3271,2.2892,2.2532,2.1949,2.1873,2.2074,2.2246,2.1145,1.9922,1.9579,1.947,1.9034,1.8569,1.7262,1.6223,1.5562,1.4936,1.4671,1.4328,1.3555,1.3209,1.2869,1.2032,1.1429,1.1332,1.1257,1.1267,1.1251,1.1155,1.1182,1.0783,1.0903,1.1921,1.2667,1.2385,1.2305,1.2452,1.2606,1.298,1.3273,1.3324,1.3375,1.2961,1.2602,1.2233,1.1889,1.1629,1.131,1.0919,1.0684,1.058,1.0186,0.9962,0.9847,0.9903,1.092,1.1683,1.1913,1.2009,1.2168,1.2617,1.3148,1.316,1.308,1.2996,1.2941,3.4089,3.3875,3.3922,3.3922,3.4037,3.4457,3.4431,3.3969,3.3078,3.3048,3.3636,3.3636,3.3749,3.4097,3.43,3.43,3.4086,3.43,3.4379,3.4482,3.4526,3.3995,3.3837,3.3832,3.3315,3.2701,3.2246,3.2245,3.1413,3.1642,3.173,3.1264,3.0506,3.0026,2.9467,2.8881,2.8259,2.7945,2.7643,2.7552,2.7482,2.7053,2.6646,2.631,2.5976,2.5535,2.5253,2.4802,2.4295,2.382,2.3497,2.2773,2.2413,2.2608,2.2882,2.2465,2.0851,2.0377,2.0078,1.9983,1.9613,1.9147,1.8242,1.698,1.5878,1.5264,1.509,1.4664,1.4062,1.3724,1.3392,1.2454,1.1521,1.1435,1.1262,1.1267,1.1267,1.1246,1.1241,1.1259,1.1453,1.2155,1.283,1.2792,1.2672,1.2378,1.2526,1.2826,1.32,1.3426,1.3345,1.3149,1.2833,1.2757,1.2412,1.1955,1.1542,1.1113,1.0849,1.0661,1.0279,0.9978,1.0028,1.0381,1.1361,1.1959,1.2187,1.256,1.2908,1.3491,1.4173,1.4333,1.4198,1.4043,1.3978,3.424,3.4368,3.4302,3.4173,3.3948,3.4106,3.4103,3.3768,3.3309,3.3409,3.3974,3.3749,3.3851,3.4097,3.4412,3.43,3.43,3.43,3.4412,3.4536,3.477,3.4427,3.4381,3.4422,3.4044,3.3515,3.306,3.2871,3.2572,3.2618,3.1859,3.1179,3.0926,3.0506,3.0099,2.9621,2.9106,2.8727,2.8371,2.8279,2.7995,2.7482,2.7112,2.6705,2.6153,2.5838,2.5563,2.5016,2.4531,2.4098,2.3638,2.299,2.2637,2.2725,2.2803,2.3047,2.2086,2.1432,2.0837,2.0477,2.0184,1.972,1.8985,1.7386,1.6104,1.5431,1.534,1.4999,1.4657,1.4321,1.3984,1.3215,1.2198,1.1693,1.1521,1.1267,1.1267,1.1267,1.1267,1.1375,1.1674,1.2035,1.2738,1.3517,1.3293,1.2741,1.2452,1.2746,1.3046,1.3273,1.3214,1.2947,1.2698,1.249,1.244,1.2089,1.169,1.1293,1.1167,1.0828,1.0212,1.0038,1.0211,1.0851,1.1846,1.2323,1.251,1.2988,1.3634,1.4333,1.4985,1.521,1.5311,1.5073,1.4937,3.4614,3.4669,3.4669,3.4356,3.4085,3.4279,3.4179,3.3738,3.3526,3.3749,3.4086,3.3851,3.3963,3.4311,3.4412,3.4412,3.43,3.4412,3.4524,3.4534,3.4869,3.4604,3.4647,3.4845,3.4575,3.4088,3.3641,3.3534,3.3265,3.2846,3.2234,3.1741,3.1455,3.0821,3.0402,3.0224,3.0151,2.9694,2.926,2.8983,2.8625,2.8217,2.7793,2.7182,2.6555,2.616,2.5897,2.5369,2.4782,2.4287,2.3832,2.3236,2.289,2.2891,2.2891,2.296,2.2589,2.1943,2.1329,2.0881,2.0637,2.0198,1.9561,1.8308,1.6969,1.6004,1.5673,1.5333,1.5166,1.4831,1.4489,1.4062,1.3052,1.2032,1.1693,1.1354,1.1267,1.1267,1.1338,1.1397,1.1697,1.1957,1.2659,1.3536,1.3928,1.3327,1.2788,1.2452,1.2826,1.32,1.3004,1.2667,1.2373,1.2071,1.2067,1.2067,1.182,1.1593,1.1654,1.1229,1.0408,1.036,1.0732,1.1507,1.2382,1.2871,1.3343,1.3819,1.4419,1.5154,1.5706,1.5921,1.5998,1.5828,1.5718,3.4982,3.5003,3.4932,3.4554,3.4264,3.4654,3.4497,3.3678,3.3861,3.3974,3.4086,3.3974,3.4076,3.4412,3.4534,3.4524,3.4524,3.4524,3.4534,3.4534,3.4758,3.4626,3.4626,3.489,3.4843,3.4311,3.4088,3.394,3.3482,3.3182,3.2933,3.235,3.1945,3.1275,3.059,3.0724,3.066,3.0493,3.0337,3.016,2.9849,2.9557,2.9189,2.8164,2.7333,2.6562,2.6284,2.5846,2.514,2.4639,2.4082,2.3413,2.3124,2.3144,2.3135,2.3047,2.2794,2.2353,2.1811,2.1365,2.0817,2.041,1.9957,1.8913,1.7705,1.611,1.559,1.5665,1.5499,1.5249,1.4915,1.4748,1.4068,1.2966,1.2289,1.178,1.1354,1.1354,1.1343,1.1413,1.1466,1.1815,1.22,1.3033,1.348,1.3446,1.3405,1.2756,1.2118,1.2556,1.2522,1.2097,1.1811,1.1596,1.1752,1.1796,1.1798,1.1736,1.1956,1.1741,1.105,1.1098,1.1372,1.2173,1.2948,1.3801,1.4426,1.4832,1.5332,1.6009,1.6493,1.6641,1.661,1.6471,1.6254,3.5291,3.5411,3.5314,3.4778,3.4232,3.4762,3.4476,3.3657,3.4188,3.4412,3.43,3.4076,3.4076,3.4524,3.4758,3.4758,3.4635,3.4747,3.4646,3.4646,3.4646,3.4692,3.456,3.5079,3.5111,3.4857,3.4536,3.4336,3.3922,3.3715,3.3409,3.2404,3.2169,3.1773,3.087,3.1023,3.1127,3.124,3.1333,3.1013,3.04,2.9635,2.8817,2.8208,2.7498,2.69,2.6668,2.6244,2.5582,2.5026,2.4307,2.3635,2.3125,2.3251,2.3319,2.3144,2.3144,2.2794,2.2264,2.1722,2.1096,2.0419,1.9861,1.9097,1.7912,1.6337,1.5597,1.5748,1.5748,1.5499,1.534,1.5257,1.5006,1.3984,1.2881,1.2118,1.1435,1.1348,1.1348,1.1348,1.1348,1.1588,1.2032,1.2288,1.2806,1.3193,1.3591,1.3063,1.1236,1.091,1.1394,1.1149,1.1101,1.0994,1.1249,1.1522,1.1628,1.1811,1.2014,1.1799,1.1591,1.148,1.1538,1.2586,1.3491,1.4478,1.5308,1.5741,1.6244,1.674,1.705,1.7147,1.7058,1.6933,1.6642,3.5299,3.5519,3.5779,3.5143,3.4435,3.5231,3.4911,3.3877,3.4188,3.4635,3.4635,3.4412,3.43,3.4524,3.4869,3.4991,3.4758,3.4869,3.498,3.4858,3.4635,3.4635,3.4858,3.5202,3.5279,3.5201,3.5067,3.4812,3.4351,3.4065,3.3715,3.2717,3.2576,3.2216,3.1305,3.1424,3.1629,3.1845,3.2139,3.1812,3.0965,3.017,2.92,2.8578,2.8103,2.7483,2.6955,2.6638,2.6024,2.5273,2.4434,2.3657,2.3291,2.3329,2.358,2.3667,2.358,2.3232,2.2618,2.2087,2.1445,2.0642,1.9948,1.9265,1.8707,1.7212,1.6079,1.6162,1.5997,1.5756,1.5831,1.5748,1.5423,1.458,1.3307,1.2283,1.1688,1.1354,1.1354,1.1354,1.1316,1.1475,1.164,1.139,1.1796,1.2051,1.2557,1.2751,1.1057,0.9944,1.0303,1.0365,1.0413,1.0467,1.0728,1.115,1.1516,1.176,1.1988,1.2061,1.1929,1.157,1.1666,1.3214,1.449,1.539,1.6098,1.6497,1.6676,1.7008,1.7337,1.758,1.7513,1.7384,1.7148,3.5562,3.5675,3.6178,3.5681,3.4627,3.6016,3.5605,3.4183,3.4365,3.4734,3.4966,3.4723,3.4646,3.4646,3.4869,3.4991,3.5102,3.5202,3.5312,3.5191,3.4858,3.4858,3.5091,3.5323,3.5423,3.5423,3.5356,3.5124,3.4902,3.445,3.3845,3.2975,3.259,3.2432,3.1965,3.1924,3.2128,3.224,3.2432,3.2275,3.1684,3.094,2.9969,2.9213,2.8791,2.8416,2.762,2.6989,2.6435,2.5521,2.4628,2.3769,2.334,2.3319,2.3841,2.4024,2.3764,2.3406,2.2882,2.2353,2.163,2.0846,2.0137,1.9486,1.8913,1.8095,1.6968,1.6409,1.6245,1.6079,1.6162,1.5997,1.559,1.5006,1.3724,1.2534,1.1946,1.1435,1.1354,1.1354,1.1375,1.1453,1.1293,1.104,1.0976,1.1218,1.1211,1.1217,1.1115,1.0554,1.0384,1.019,0.9955,1.006,1.0244,1.0548,1.1031,1.153,1.1721,1.2109,1.247,1.259,1.3175,1.4443,1.5612,1.6254,1.6712,1.7116,1.726,1.7343,1.7702,1.8006,1.7971,1.7852,1.766,3.5921,3.629,3.6667,3.6214,3.5635,3.6297,3.6058,3.5143,3.4647,3.4815,3.531,3.529,3.5091,3.4891,3.5202,3.5202,3.5102,3.5312,3.5423,3.5301,3.5191,3.5202,3.5312,3.5533,3.5643,3.5753,3.5643,3.5312,3.5024,3.4471,3.3887,3.3115,3.316,3.2786,3.2137,3.2263,3.2499,3.2679,3.2711,3.2555,3.186,3.1149,3.0524,2.9836,2.9132,2.8535,2.7904,2.7431,2.6819,2.5934,2.483,2.3835,2.3408,2.3406,2.3851,2.41,2.3937,2.3754,2.3319,2.2706,2.1966,2.1212,2.0486,1.9507,1.8903,1.8238,1.7359,1.6812,1.6566,1.6245,1.6162,1.5922,1.5506,1.4915,1.3808,1.3045,1.2363,1.186,1.1435,1.1527,1.1505,1.1547,1.1588,1.1277,1.0906,1.0935,1.0509,1.0574,1.1051,1.0739,1.0448,1.0009,0.9649,0.9676,0.9868,1.0053,1.0408,1.1009,1.1609,1.2139,1.2954,1.4034,1.4877,1.5672,1.6263,1.6825,1.7231,1.7647,1.7879,1.8019,1.8257,1.8472,1.8375,1.8213,1.8011]}]]